GFSGL_prec_radar_000.txt.gz
Reflectivity
-20 -20 -20 -20 -20 -20 -20 -20 -20 -20 -20 -20 -20 -18 -20 -20 -20 -20 -20 -20 -20 -20 -20 -20 -20 -20 -20 -20 -20 -20 -20 -20 -20 -20 -20 -20 -20 -20 -20 8 -10 -20 -20
-20 -20 -20 -20 -20 -20 -20 -20 -20 -20 -20 -20 -20 -20 -20 -20 -20 -20 -20 -20 -20 -20 -20 -20 -20 -20 -20 -20 -20 -20 -20 -20 -20 -20 -20 -20 -20 -20 -20 -20 12 -17 -20
-20 -20 -20 -20 -20 -20 -20 -20 -20 -20 -20 -20 -20 -20 -20 -20 -20 -20 -20 -20 -20 -20 -20 -20 -20 -20 -20 -20 -20 -20 -20 -18 -5 15 -12 -20 -20 -20 -20 -20 -20 12 8
-20 -20 -20 -20 -20 -20 -20 -20 -20 -20 -20 -20 -20 -20 -20 -20 -20 -20 -20 -20 -20 -20 -20 -20 -20 -20 -20 -20 -20 -20 -8 -20 -20 5 -9 -20 -20 -20 -20 -20 -20 -20 -1
-20 -20 -20 -20 -20 -20 -20 -20 -20 -20 -20 -20 -20 -20 -20 -20 -20 -20 -20 -20 -20 -20 -20 -20 -20 -20 8 9 3 -17 -19 4 3 14 4 1 -12 1 -20 -20 -20 -20 -20
-20 -20 -20 -20 -20 -20 -20 -20 -20 -20 -20 -20 -20 -20 -20 -20 -20 -20 -20 -20 -20 -20 -20 -20 -20 -20 -20 -1 -20 -1 5 5 3 13 -20 7 -20 2 11 -20 -20 -20 -20
-20 -20 -20 -20 -20 -20 -20 -20 -20 -20 -20 -20 -19 -15 -20 -20 -20 -20 -20 -20 -20 -20 -20 -20 -20 -20 -20 -20 -20 -10 -7 4 7 16 9 -5 16 -20 -2 -19 -20 -20 -20
-20 -20 -20 -20 -20 -20 -20 -20 -20 -20 -20 -20 -20 -20 -20 -20 -20 -20 -20 -20 -20 -20 -20 -20 -20 -20 -20 -1 -11 12 -10 -20 -20 -20 -9 -16 -11 -20 -20 -20 -20 -20 -20
-20 -20 -20 -20 -20 -20 -20 -20 -20 -20 -20 -20 -20 -20 -20 -20 -20 -20 -20 -20 -20 -20 -20 -20 -15 -20 -20 9 3 -16 -20 -20 -17 -13 -0 -20 -20 -20 8 -9 -20 -5 -20
-20 -20 -20 -20 -20 -20 -20 -20 -20 -20 -20 -20 -20 -20 -20 -20 -20 -20 -20 -20 -20 -20 -20 -20 -20 -2 3 8 10 -19 -20 4 -19 -18 -20 -20 -20 -20 -20 -20 -18 6 6
-20 -20 -20 -20 -20 -20 -20 -20 -20 -20 -20 -20 -20 -20 -20 -20 -20 -20 -20 -20 -20 -20 -20 -20 -20 -7 -0 -2 9 -12 15 -15 -20 -13 -20 -20 -20 -20 -20 -20 -20 -20 -20
-20 -20 -20 -20 -20 -20 -20 -20 -20 -20 -20 -20 -20 -20 -20 -20 -20 -20 -20 -20 -20 -20 -20 -20 -20 -5 -20 -13 -8 7 2 -20 -20 -20 -20 -20 -20 -20 -20 -20 -20 -20 -20
-20 -20 -20 -20 -20 -20 -20 -20 -20 -20 -20 -20 -20 -20 -20 -20 -20 -20 -20 -20 -20 -20 -20 -20 -20 -20 -20 -20 -20 -9 -20 -20 -20 -20 -20 -20 -20 -20 -20 -20 -20 -20 -20
-20 -20 -20 -20 -20 -20 -20 -20 -20 -20 -20 -20 -20 -20 -20 -20 -20 -20 -20 -20 -20 -20 -20 -20 -20 -20 -20 -20 -20 -20 -20 -20 -20 -20 -20 -20 -20 -20 -19 -20 -20 -20 -20
-20 -20 -20 -20 -20 -20 -20 -20 -20 -20 -20 -20 -20 -20 -20 -20 -20 -20 -20 -20 -20 -20 -20 -20 -20 -20 -20 -20 -20 -20 -20 -20 -20 -20 -20 -20 -20 -20 -10 1 1 2 -5
-20 -20 -14 -19 -20 -12 -20 -20 -20 -20 -20 -20 -20 -20 -20 -20 -20 -20 -20 -20 -20 -20 -20 -20 -20 -20 -20 -20 -20 -20 -20 -20 -20 -20 -20 -20 -20 -20 -20 -20 -16 -10 1
-20 -20 -20 -1 -17 -0 -20 -20 -20 -20 -20 -20 -20 -20 -20 -20 -20 -20 -20 -20 -20 -20 -20 -20 -20 -20 -20 -20 -20 -20 -20 -20 -20 -20 -20 -20 -20 -20 -20 -20 -20 -20 -20
-20 9 -15 -20 -20 -17 -20 -20 -17 -20 -20 -20 -20 -20 -20 -20 -20 -20 -20 -20 -20 -20 -20 -20 -20 -20 -20 -20 -20 -20 -20 -20 -20 -20 -20 -20 -20 -20 -20 -20 -20 -20 -20
-20 -20 -20 -20 -20 -20 -20 -20 -20 -19 -20 -20 -20 -20 -9 -20 -20 -20 -20 -20 -20 -20 -20 -20 -20 -20 -20 -20 -20 -20 -20 -20 -20 -20 -20 -20 -20 -20 -20 -20 -20 -20 -20
-19 6 -13 -20 -20 -20 -20 -20 -20 -20 -20 -20 -20 -20 -20 -16 -20 -20 -20 -20 -20 -20 -20 -20 -20 -20 -20 -20 -20 -20 -20 -20 -20 -20 -20 -20 -20 -20 -20 -20 -20 -20 -20
-20 -20 -17 -20 -20 -20 -20 -20 -20 -20 -6 -3 -20 -20 -20 -20 -20 -20 -20 -20 -20 -20 -20 -20 -20 -20 -20 -20 -20 -20 -20 -20 -20 -20 -20 -20 -20 -20 -20 -20 -20 -20 -20
-20 -18 -20 -20 -19 -20 -20 -20 -20 -20 -20 -20 -15 -20 -20 -20 -20 -20 -20 -20 -20 -20 -20 -20 -20 -20 -20 -20 -20 -20 -20 -20 -20 -20 -20 -20 -20 -20 -20 -20 -20 -20 -20
-20 -20 -20 -20 -20 -20 -20 -20 -20 -20 -20 -20 -20 -20 -20 -20 -20 -20 -20 -20 -20 -20 -20 -20 -20 -20 -20 -20 -20 -20 -20 -20 -20 -20 -20 -20 -20 -20 -20 -20 -20 -20 -20
-20 -20 -20 -20 -20 -20 -20 -20 -20 -20 -20 -20 -20 -20 -20 -20 -20 -20 -20 -20 -20 -20 -20 -20 -20 -20 -20 -20 -20 -20 -20 -20 -20 -20 -20 -20 -20 -20 -20 -20 -20 -20 -20
-9 -20 -18 -20 -20 -20 -20 -20 -20 -20 -20 -11 -19 -20 -20 -20 -20 -20 -20 -20 -20 -20 -20 -20 -20 -20 -20 -20 -20 -20 -20 -20 -20 -20 -20 -20 -20 -20 -20 -20 -20 -20 -20
-10 -4 -20 -20 -20 -16 -11 -15 -15 -11 -9 -13 6 8 -13 -20 -20 -20 -20 -20 -20 -20 -20 -20 -20 -20 -20 -20 -20 -20 -20 -20 -20 -20 -20 -20 -20 -20 -20 -20 -20 -20 -20

GFSGL_prec_radar_003.txt.gz
Reflectivity
-18 -20 -20 -20 -20 -20 -20 -20 -20 -20 -20 -20 -20 -18 -20 -20 -20 -20 -20 -20 -20 -20 -20 -20 -20 -20 -20 -20 -20 -20 -20 -20 -20 -20 -20 -20 -20 -20 -20 -20 13 -20 -20
-19 -20 -20 -20 -20 -20 -20 -20 -20 -20 -20 -20 -20 -20 -20 -20 -20 -20 -20 -20 -20 -20 -20 -20 -20 -20 -20 -20 -20 -20 -20 -4 3 -12 -18 6 4 6 -20 -13 18 -19 -7
-20 -20 -20 -20 -20 -20 -20 -20 -20 -20 -20 -20 -20 -20 -20 -20 -20 -20 -20 -20 -20 -20 -20 -20 -20 -20 -20 -20 -20 -3 0 1 0 7 -4 -12 -20 2 -14 -20 4 16 -19
-20 -20 -20 -20 -20 -20 -20 -20 -20 -20 -20 -20 -20 -20 -20 -20 -20 -20 -20 -20 -20 -20 -20 -20 -20 -20 -20 -2 7 13 13 9 2 -5 4 -11 5 -13 11 12 15 14 -20
-20 -20 -20 -20 -20 -20 -20 -20 -20 -20 -20 -20 -20 -20 -20 -20 -20 -20 -20 -20 -20 -20 -20 -20 -20 -10 -8 -8 1 3 3 1 6 8 4 2 6 7 19 10 16 16 -20
-20 -20 -20 -20 -20 -20 -20 -20 -20 -20 -20 -20 -20 -20 -20 -20 -2 -20 -20 -20 -20 -20 -20 -20 -20 -20 -20 -20 -20 -20 -4 4 10 11 16 6 -13 5 5 12 12 15 8
-20 -20 -20 -20 -20 -20 -20 -20 -20 -20 -20 -20 -20 -20 -20 -20 -20 -20 -20 -20 -20 -20 -20 -20 -20 -20 -20 -20 -20 -16 7 8 9 11 14 10 9 8 12 16 12 6 -16
-20 -20 -20 -20 -20 -20 -20 -20 -20 -20 -20 -20 -20 -20 -20 -20 -20 -20 -20 -20 -20 -20 -20 -20 -20 -20 -20 -2 5 7 3 0 6 8 13 13 10 10 10 15 7 5 -12
-20 -20 -20 -20 -20 -20 -20 -20 -20 -20 -20 -20 -20 -20 -20 -20 -20 -20 -20 -20 -20 -20 -20 -20 -20 -20 -4 4 3 8 2 -3 4 0 -19 -14 -2 1 2 4 15 10 7
-20 -20 -20 -20 -20 -20 -20 -20 -20 -20 -20 -20 -20 -20 -20 -20 -20 -20 -20 -20 -20 -20 -20 -20 -20 -6 0 -5 -5 6 4 10 1 5 6 -3 6 5 -20 -9 2 14 18
-20 -20 -20 -20 -20 -20 -20 -20 -20 -20 -20 -20 -20 -20 -20 -20 -20 -20 -20 -20 -20 -16 -20 -20 -20 -8 -20 -20 -16 -0 9 -3 2 3 3 4 3 4 7 7 -7 3 10
-20 -20 -20 -20 -20 -20 -20 -20 -20 -20 -20 -20 -20 -20 -20 -20 -20 -20 -20 -20 -20 -20 -20 -20 -20 -20 -20 -20 -20 -17 -15 -16 3 2 2 3 4 4 4 5 8 8 -9
-20 -20 -20 -20 -20 -20 -20 -20 -20 -20 -20 -20 -20 -20 -20 -20 -20 -20 -20 -20 -20 -20 -20 -20 -20 -20 -20 -20 -20 -20 -20 -15 1 0 -2 -1 -3 -1 -3 5 3 9 6
-20 -20 -20 -20 -20 -20 -20 -20 -20 -20 -20 -20 -20 -20 -20 -20 -20 -20 -20 -20 -20 -20 -20 -20 -20 -20 -20 -20 -20 -20 -20 -20 -20 -1 -3 -17 -5 -0 6 16 13 16 9
-20 -20 -20 -20 -20 -20 -20 -20 -20 -20 -20 -20 -20 -20 -20 -20 -20 -20 -20 -20 -20 -20 -20 -20 -20 -20 -20 -20 -20 -20 -20 -20 -20 -20 -12 -20 -20 -20 -8 5 7 11 16
-20 -20 -20 -20 -20 -20 -20 -20 -20 -20 -20 -20 -20 -20 -20 -20 -20 -20 -20 -20 -20 -20 -20 -20 -20 -20 -20 -20 -20 -20 -20 -20 -20 -20 -20 -20 -20 -20 -16 -4 -3 5 11
-20 -20 -20 -20 -20 -19 -20 -20 -20 -20 -20 -20 -20 -20 -20 -20 -20 -20 -20 -20 -20 -20 -20 -20 -20 -20 -20 -20 -20 -20 -20 -20 -20 -20 -20 -20 -20 -20 -2 1 0 -1 -2
-20 -20 -20 -20 -20 -20 -20 -19 -19 -20 -20 -20 -20 -20 -20 -20 -20 -20 -20 -20 -20 -20 -20 -20 -20 -20 -20 -20 -20 -20 -20 -20 -20 -20 -20 -20 -20 -20 -2 -1 -2 -4 1
-20 -20 -20 -20 -20 -20 -20 -20 -20 -20 -20 -20 -20 -20 -20 -20 -20 -20 -13 1 -20 -20 -20 -20 -20 -20 -20 -20 -20 -20 -20 -20 -20 -20 -20 -20 -20 -20 -20 -20 -11 -20 -20
-20 -20 -20 -20 -20 -20 -20 -20 -20 -20 -20 -20 -12 -19 -20 -20 -20 -20 -20 -20 -20 -20 -20 -20 -20 -20 -20 -20 -20 -20 -20 -20 -20 -20 -20 -20 -20 -20 -20 -20 -20 -20 -20
-20 -20 -20 -12 -20 -20 -20 -20 -20 -20 -20 -20 -20 -20 -20 -20 -20 -20 -20 -20 -20 -20 -20 -20 -20 -20 -20 -20 -20 -20 -20 -20 -20 -20 -20 -20 -20 -20 -20 -20 -20 -20 -20
-20 -20 -20 -20 -20 -20 -20 -20 -20 -20 -20 -20 -20 -20 -20 -20 -20 -20 -20 -20 -20 -20 -20 -20 -20 -20 -20 -20 -20 -20 -20 -20 -6 -20 -20 -20 -20 -20 -15 -20 -20 -20 -20
-20 -20 -20 -20 -20 -20 -19 -20 -20 -20 -20 -20 -20 -20 -20 -20 -20 -20 -20 -20 -20 -20 -20 -20 -20 -20 -20 -20 -20 -20 -20 -20 -20 -20 -20 -20 -20 -12 -20 -20 -20 -20 -20
-20 -20 -20 -20 -20 -20 -20 -20 -20 -20 -20 -20 -20 -20 -20 -17 -20 -20 -20 -20 -20 -20 -20 -20 -20 -20 -20 -20 -20 -20 -20 -20 -20 -20 -20 -20 -20 -20 -20 -20 -20 -20 -20
-20 -20 -0 0 0 -3 -20 -20 -18 -19 -18 -19 -16 0 -11 -4 1 -20 5 -12 -20 -20 -20 -20 -20 -20 -20 -20 -20 -20 -20 -20 -20 -20 -20 -20 -20 -20 -20 -20 -20 -20 -20
-20 -9 -4 -15 4 -14 -5 3 5 8 9 8 8 5 5 3 -11 -17 -15 7 9 -19 -20 -20 -20 -20 -20 -20 -20 -20 -20 -20 -20 -20 -20 -20 -20 -20 -20 -20 -20 -20 -20

GFSGL_prec_radar_006.txt.gz
Reflectivity
-11 -15 -20 -20 -20 -20 -20 -20 -20 -20 -20 -20 -20 -5 8 -20 -20 5 -20 -20 -20 -20 -20 -20 -20 -20 -20 -20 -20 -20 -20 -20 -20 -20 -20 -20 -20 -20 -20 -20 -20 -20 -5
-4 -19 -20 -20 -20 -20 -20 -20 -20 -20 -20 -20 -20 -11 -0 -20 -19 -20 -20 -20 -20 -20 -20 -20 -20 -20 -20 -6 -20 -20 -20 -20 -7 -8 -20 -20 -20 -20 -20 -19 -20 -20 17
-20 -20 -20 -20 -20 -20 -20 -20 -20 -20 -20 -20 -20 -15 -20 -20 -20 -20 -20 -20 -20 -20 -20 -20 -20 -16 -20 -20 -20 -20 -20 -13 10 7 1 -20 -20 -20 -19 -15 -19 -20 -3
-20 -20 -20 -20 -20 -20 -20 -20 -20 -20 -20 -20 -10 6 -18 -20 -20 -20 -20 -20 -20 -20 -20 -20 -20 -20 -20 -20 -20 -14 -8 3 8 -6 -1 -11 -12 -20 -20 2 18 -1 1
-20 -20 -20 -20 -20 -20 -20 -20 -20 -20 -20 1 -20 -20 -20 -20 -20 -20 -20 -18 -20 -20 -20 -20 -20 -20 -20 -20 -20 -20 -8 -2 1 2 -12 -5 8 -18 6 -9 14 -20 18
-20 -20 -20 -20 -20 -20 -20 -20 -20 -20 -20 0 7 15 -20 -20 -20 -20 -20 -20 -20 -20 -20 -20 -20 -20 -20 -20 -20 -20 -20 -1 5 10 9 7 9 -9 19 17 18 15 5
-20 -20 -20 -20 -20 -20 -20 -20 -20 -20 -20 -20 0 16 10 4 -20 -20 -20 -20 -20 -20 -20 -20 -20 -20 -20 -20 -20 -20 -0 -14 -20 8 9 7 12 12 11 11 10 20 14
-20 -20 -20 -20 -20 -20 -20 -20 -20 -20 -20 -20 -20 -20 -7 -20 -20 -20 -20 -20 -20 -20 -20 -20 -20 -20 -20 -20 -4 -6 -5 -14 0 -9 7 8 12 14 17 14 12 7 -8
-20 -20 -20 -20 -20 -20 -20 -20 -20 -12 -20 -20 -20 -20 -20 -20 -20 -20 -20 -20 -20 -20 -20 -20 -20 -20 -20 -16 -5 -3 -12 -20 -6 -20 -1 -7 -20 -20 -19 10 8 9 19
-20 -20 -20 -20 -20 -20 -20 -20 -20 -20 -20 -20 -20 -20 -20 -20 -20 -20 -20 -20 -20 -20 -20 -20 -20 -20 -20 -20 -19 -2 1 1 1 -0 3 -5 -8 8 -19 11 4 8 9
-20 -20 -20 -20 -20 -20 -20 -20 -20 -20 -20 -20 -20 -20 -20 -20 -20 -20 -20 -20 -20 -20 -20 -20 -20 -20 -20 -20 -20 -13 -6 -8 -3 3 4 6 7 8 8 13 14 -3 8
-20 -20 -20 -20 -20 -20 -20 -20 -20 -20 -20 -20 -20 -20 -20 -20 -20 -20 -20 -20 -20 -20 -20 -20 -20 -20 -20 -20 -20 -20 -20 -17 2 6 7 8 8 10 12 15 14 13 11
-20 -20 -20 -20 -20 -20 -20 -20 -20 -20 -20 -20 -20 -20 5 3 -8 -20 -20 -20 -20 -20 -18 -20 -20 -20 -20 -20 -20 -20 -20 -20 -1 3 2 2 3 4 5 4 1 8 9
-6 -20 -19 -20 -20 -20 -20 -20 -20 -20 -20 -20 -17 2 -3 -2 3 3 -20 -5 -17 -7 -20 -20 -20 -20 -20 -20 -20 -20 -20 -20 -20 2 2 -2 0 7 13 18 21 18 14
-20 -14 -19 -20 -20 -20 -14 -20 -20 -20 -20 2 -12 -20 -20 2 3 -20 -20 -20 -9 -10 -20 -9 -6 -11 -20 -20 -20 -20 -20 -20 -20 -4 3 3 0 2 5 11 9 19 19
-20 -7 -8 -20 -20 -20 -20 -16 -17 -20 -20 -20 -20 -20 -20 -20 -20 -20 -20 -20 -20 -20 -20 2 4 5 4 -20 -20 -20 -20 -20 -20 -20 1 3 1 1 3 8 8 10 14
-12 -20 -20 -20 -3 -10 -2 -19 3 -20 -20 -20 -20 -20 -20 -20 -20 -20 -20 -20 -20 -20 2 3 3 4 4 -20 -20 -20 -20 -20 -20 -20 -6 3 2 3 8 7 5 4 9
-20 -20 -18 0 2 -2 -20 10 10 11 18 3 -15 -20 -20 -20 -20 -20 -20 -20 3 -14 -20 2 3 1 4 -1 -18 -20 -20 -20 -20 -20 -20 -3 2 2 9 7 7 6 2
-20 -20 -5 3 3 10 -7 2 2 1 8 5 -3 -4 -20 -20 -20 -20 -20 5 4 4 3 0 1 1 2 2 1 3 0 -20 -20 -20 -20 -20 -1 -3 1 2 6 7 -4
-20 -9 -5 -2 -16 9 12 9 5 8 6 7 2 1 -1 -20 3 9 10 14 7 6 5 3 0 -1 -1 -2 -1 0 4 1 -20 -20 -20 -20 -3 -16 -18 -2 4 4 1
-20 -20 -20 -7 2 5 17 14 14 13 12 5 -19 -20 -20 -19 8 11 9 15 5 7 10 4 7 0 -8 3 -1 1 2 2 -13 -20 -20 -20 -20 -20 -20 -20 -3 -3 -3
-20 -15 -0 -20 -9 8 8 11 14 14 15 10 10 4 -20 -13 -0 7 7 8 9 11 9 9 9 8 0 1 -1 -1 -0 4 -0 -14 -20 -20 -20 -20 -20 -20 -6 -20 -20
-2 4 6 9 10 1 12 -10 7 13 13 14 11 7 6 10 3 -4 5 3 5 6 -6 10 8 6 5 3 2 1 2 2 -12 -12 -20 -20 -20 2 0 -14 -20 -20 -20
1 0 3 0 14 12 9 7 2 3 7 9 12 11 7 5 8 5 5 5 8 8 6 2 -17 -19 -20 5 0 -2 -20 -20 -20 -20 -20 -20 -20 1 2 -18 -20 -20 -20
-1 -10 4 6 7 17 14 2 5 13 10 12 10 12 11 12 11 10 7 8 7 17 24 3 -15 -20 -20 -20 -20 -20 -20 -20 -20 -20 -20 -20 -20 -20 -19 -20 -20 -20 -20
4 18 14 12 0 16 16 17 19 16 14 12 12 12 9 11 9 9 9 1 7 10 8 15 7 -20 -20 -20 -20 -20 -20 -20 -20 -20 -20 -20 -20 -20 -12 -9 -20 -20 0

GFSGL_prec_radar_009.txt.gz
Reflectivity
-20 -20 -20 -3 -6 -20 -20 -20 -20 -20 -20 -20 -20 -20 -20 -20 -20 -20 -20 -20 -2 -20 -20 0 -14 -20 -20 -20 -20 -20 -20 -20 -20 -20 -20 -20 -20 -20 -20 -20 -20 -20 -20
-20 -20 -20 -20 -20 -20 -20 -20 -20 -20 -20 -20 -20 -20 -20 -20 -20 -20 -20 -20 -20 3 -9 -20 -20 -20 -19 -20 -20 -20 -20 -20 -20 -20 -20 -8 -14 -20 -20 -20 -20 -20 -20
-20 -20 -20 -20 -20 -20 -20 -20 -20 -20 -20 -20 -20 -20 -20 -20 -16 -20 -20 -15 10 -20 -11 -19 -20 -20 -20 -20 -20 -20 -20 -20 -20 -3 -1 -12 -20 -20 -20 -20 -20 -20 -20
-20 -19 -20 -20 -20 -20 -20 -20 -20 -20 -20 -20 -20 -20 -20 -19 -20 -20 -20 -13 -20 7 -18 -20 -20 -20 -20 -20 -20 -20 -20 -20 -20 -12 -20 -20 -20 -20 -17 8 -4 -20 12
-7 -20 -20 -20 -20 -20 -20 -20 -20 -20 -20 -20 -20 -20 -20 -14 -20 -20 -20 -20 -20 -20 -20 -20 -20 -20 -20 -20 -20 -20 -20 -20 -20 -18 -18 -1 0 4 8 -20 -13 6 -3
-18 -20 -20 -20 -14 -20 -20 -20 -20 -20 -20 -20 -20 -20 10 -6 -15 -20 -20 -20 -20 -20 -20 -20 -20 -20 -20 -20 -20 -20 -20 -18 -2 4 6 -10 4 4 -20 14 15 14 -1
3 -20 -17 -9 0 -20 -20 -20 -20 -20 -20 -20 -20 -20 -20 18 -20 -20 -20 -20 -20 -20 -20 -20 -20 -20 -20 -20 -20 -20 -20 -9 -14 -18 8 9 14 10 8 19 17 16 14
-20 9 19 4 -20 -20 -20 -20 -20 -20 -20 -20 -20 -20 -20 -18 -20 -20 -20 -20 -20 -20 -20 -20 -20 -20 -20 -20 -20 -20 -20 -20 -20 -15 -11 -9 -10 -20 -12 0 3 -8 -20
14 20 6 -20 -20 -20 -20 -20 -20 -20 -20 -20 -20 -20 -20 -20 -20 -20 -20 -20 -20 -20 -20 -20 -20 -20 -20 -20 -20 -20 -20 -20 -20 -20 -20 -18 -20 -20 -20 11 -12 -20 5
7 13 10 6 -6 -20 -20 -20 -20 -20 -20 -20 -20 -20 -20 -20 -20 -20 -20 -20 -20 -20 -20 -20 -20 -20 -20 -20 -20 -20 -19 -20 -20 -20 -19 -19 -18 -16 -18 -11 9 12 11
-14 13 7 0 9 3 -18 -19 -12 -19 -20 -13 -20 -20 -20 -20 -20 -20 -20 -20 -20 -20 -20 -20 -20 -20 -20 -20 -20 -20 -20 -20 -20 -6 5 6 6 10 18 16 14 16 17
11 -2 10 6 2 -8 3 2 -0 -20 -4 3 -14 -20 -20 -20 -20 -20 -20 -20 -20 -20 -20 -20 -20 -20 -20 -20 -20 -20 -20 -20 -17 -10 7 9 5 6 2 -0 -9 4 13
10 11 5 -4 7 9 4 5 -10 -20 -19 -20 -20 -0 4 8 -19 -20 -20 -20 -20 -20 -20 -20 -20 -20 -20 -20 -20 -20 -20 -8 -20 -4 1 4 -1 5 7 11 25 19 -20
13 6 7 10 6 5 6 -13 -20 -20 1 -20 -11 -11 2 -20 -3 -7 -20 -20 -20 -20 -16 -3 -20 -20 -20 -20 -17 -3 -20 -9 -20 -20 -1 0 4 5 7 11 11 21 19
11 9 6 4 2 -3 -14 -10 -20 -20 -13 9 1 8 7 -20 -20 -20 -5 3 2 -2 -20 -19 -3 5 2 3 1 1 -2 -17 -20 -20 -14 1 4 2 2 2 9 7 24
9 4 -4 -2 0 -13 -20 -20 -8 -20 -20 -20 -20 -20 -20 -20 -20 -20 -20 -20 -20 -20 -20 -3 2 8 8 5 4 2 1 -8 -14 -20 -20 -7 0 4 3 3 7 6 9
-20 -9 -5 -20 -20 -17 -20 -20 -12 -9 -20 -20 -20 -20 -20 -20 -20 -20 -20 -20 -20 -20 -5 -1 7 8 8 5 1 -1 0 -9 -20 -4 -20 -6 -2 -2 -16 10 6 7 -1
0 -9 -20 -20 -18 -18 -14 -20 1 12 7 -12 -20 -20 -17 -20 -20 -20 -20 -20 -0 -9 -17 0 3 7 -14 3 2 -2 -3 -14 -0 -19 -15 1 0 -2 0 -0 4 7 4
-20 -20 -20 -17 2 -0 0 11 -10 -8 -8 0 6 -20 -12 -19 -20 -20 -20 -9 4 -1 3 7 11 7 2 2 4 7 4 3 3 -4 -0 1 1 3 -5 -6 -0 -11 -15
-20 -20 -20 -10 1 -18 -8 5 12 16 12 11 -2 -18 5 -20 -3 0 1 5 5 7 5 -5 1 -3 6 -14 -2 9 6 8 9 4 -2 -2 0 1 1 -20 -3 0 -2
-20 -13 -6 -19 -20 -20 -20 -20 -20 16 16 15 11 9 -17 -10 8 11 12 9 -1 -9 -6 -8 -19 7 8 11 -7 4 5 -5 3 1 1 0 -20 -9 1 -0 -16 -20 -16
-14 -1 -17 -20 -2 8 1 14 7 8 10 12 7 7 4 -3 1 -14 -3 -0 1 5 -3 -3 -10 5 5 -11 2 8 7 -15 5 2 -1 -2 -20 -8 2 0 -1 -20 -20
-0 -3 -18 -17 1 -5 13 14 13 11 1 12 14 13 12 24 7 -1 -13 -20 -10 3 3 7 -11 -20 -5 1 -0 -20 -8 3 3 1 -0 -2 -18 -3 2 3 1 -10 -20
-15 11 17 11 2 15 14 8 3 -5 -16 -1 10 4 9 6 24 18 3 -2 -0 -10 -11 16 23 18 -3 -6 -12 -20 -20 -1 -18 -7 -20 -18 -20 -8 -2 2 -0 -18 -20
13 18 25 22 3 2 21 10 4 15 6 12 16 13 12 19 26 15 10 11 8 2 6 5 -4 8 16 12 9 -9 -20 -20 -20 -20 -20 -20 -20 -20 -20 -6 -3 -9 -3
2 9 8 9 21 28 17 -1 5 9 14 13 3 2 -4 -6 3 1 -9 -6 6 -5 7 8 5 -6 -3 -6 13 1 -20 -20 -20 -20 -20 -20 -4 -3 -2 0 -3 -15 -4

GFSGL_prec_radar_012.txt.gz
Reflectivity
-20 -20 -20 -20 -20 -18 -20 -20 -20 -20 -20 -20 -20 -20 -20 -20 -20 -20 -20 -20 -20 -20 5 -17 -9 -18 -12 -20 -20 -20 -20 -20 -20 -20 -20 -20 -20 -20 -20 -20 -20 -20 -20
-20 -20 -20 -20 -18 12 -20 -20 -20 -20 -20 -20 -20 -20 -20 -20 -20 -20 -20 -20 -20 -20 -20 0 -20 -20 -20 -20 -20 -20 -20 -20 -20 -20 -20 -20 -20 -20 -20 -20 -20 -20 -20
-20 -20 -20 -20 -17 9 12 -20 -20 -20 -20 -20 -20 -20 -20 -20 -20 -20 -20 -20 -20 -20 -20 -20 -20 -20 -20 -20 -20 -20 -20 -20 -20 -20 -20 -20 -20 -20 -20 -20 -20 -20 -20
-20 -20 -20 -20 -20 -12 -17 -20 -20 -20 -20 -20 -20 -20 -20 -20 -20 -20 -20 -20 -20 -20 -20 -20 -20 -20 -20 -20 -20 -20 -20 -20 -20 -20 -20 -20 -20 -20 -20 -18 -20 -20 -20
-20 -20 1 3 -19 -12 -6 -20 4 -8 -20 -20 -20 -20 -20 -20 -16 -20 -20 -20 -20 -20 -20 -20 -20 -20 -20 -20 -20 -20 -20 -20 -20 -20 -20 -20 -20 -20 -20 -20 1 -20 -20
-20 -17 1 -9 -10 -20 -19 11 -6 -20 -20 -20 -20 -20 -20 3 -17 -0 -14 -20 -20 -20 -20 -20 -20 -20 -20 -20 -20 -20 -20 -20 -20 -20 -20 -20 -20 -4 9 9 -10 -11 -4
-20 -14 1 -20 -16 16 4 6 9 11 -13 -10 -20 -17 -14 -20 -13 -20 -20 -20 -20 -20 -20 -20 -20 -20 -20 -20 -20 -20 -20 -20 -20 -14 -9 1 6 -16 -20 -20 -20 -20 -20
-20 -5 -20 13 5 18 5 14 -15 -11 -11 -19 -18 -14 -19 -16 -20 -20 -20 -20 -20 -20 -20 -20 -20 -20 -20 -20 -20 -20 -20 -20 -20 -20 -20 -20 -20 -20 -20 -20 -20 -20 -20
-20 -20 -1 23 2 6 3 11 12 -8 -19 -20 -20 -19 -11 -20 -20 -20 -20 -20 -20 -20 -20 -20 -20 -20 -20 -20 -20 -20 -20 -20 -20 -20 -20 -20 -20 -20 -20 -20 -20 -19 -20
14 14 22 5 22 18 27 16 9 -2 -10 -10 -4 -11 -15 -20 -20 -20 -20 -20 -20 -20 -20 -20 -20 -20 -20 -20 -20 -20 -20 -20 -20 -20 -20 -20 -20 -20 10 8 4 -17 -20
13 -4 11 22 26 19 20 16 6 1 5 -8 -20 -20 -20 -20 -20 -20 -20 -20 -20 -20 -20 -20 -20 -20 -20 -20 -20 -20 -20 -20 -20 -20 -17 -20 -20 -7 -20 -20 -4 10 6
-10 18 10 16 27 17 8 5 7 11 -14 -20 -20 -20 -20 -20 -20 -20 -20 -20 -20 -20 -20 -20 -20 -20 -20 -20 -20 -20 -20 -20 -20 -20 -20 -20 -20 -20 -20 -20 -20 -18 17
12 11 15 15 10 4 3 8 8 -16 -20 -20 -20 -20 -20 -20 -20 -20 -20 -20 -20 -20 -20 -20 -20 -20 -20 -20 -20 -20 -20 -20 -20 -20 -20 -20 -16 -20 -20 -20 -20 -20 7
19 17 10 1 2 4 -5 -10 -15 -16 -20 -20 -20 -20 -20 -20 -11 -20 -20 -20 -20 -20 -20 -20 -20 -20 -20 -20 -20 -20 -20 -20 -20 -20 -20 -20 -20 -20 -20 -20 -20 -20 -20
6 2 7 -2 -19 -13 -18 -20 -20 -20 -20 -20 -20 -20 -20 -20 -20 -20 -20 -20 -20 -20 -20 -20 -20 -20 -20 -13 -20 -20 -20 -20 -20 -20 -20 -20 -20 -20 -20 -20 -20 -20 -13
9 -0 -15 -20 -19 -20 -20 -20 -20 -20 -20 -20 -20 -20 -20 -20 -20 -20 -20 -20 -20 -20 -20 -20 -20 -20 -20 -20 -20 -20 -20 -20 -20 -20 -20 -20 -20 -20 -20 -20 -9 -1 -6
-20 -20 -20 -20 -20 -20 -20 -20 -20 -20 -20 -20 -20 -20 -20 -20 -20 -20 -20 -20 -20 -20 -20 -20 -20 -20 -8 -20 -20 -20 -20 -20 -20 -20 -20 -20 -20 -20 -20 -20 -3 -3 -20
-20 -20 -20 -20 -20 -19 -20 -20 -17 -7 -15 -20 -17 -20 -19 -18 -19 -20 -20 -20 -20 -20 -20 -20 -20 -20 -20 -20 -20 -20 -20 -20 -20 -20 -20 -20 -20 -20 -20 -20 -20 -20 -20
-20 -20 -20 -20 -20 -20 -20 -20 -20 -20 -1 -10 -20 -20 -20 -20 -20 -19 -20 -20 -20 -20 -20 -20 -20 -20 -20 -20 -20 -20 -20 -20 -20 -20 -20 -20 -17 -20 -20 -20 -20 -20 -20
-20 -20 -20 -20 -20 -20 -20 -20 -20 -20 -20 -20 4 5 -2 -9 -20 -20 -20 -20 -20 -20 -20 -20 -20 -20 -15 -15 -20 -20 -20 -20 -20 -20 -20 -20 -20 -20 -20 -12 -20 -20 -20
-20 -20 -20 11 4 -0 -19 -20 -17 -20 -20 -20 -20 10 12 14 23 -5 -20 -20 -20 -20 -20 -20 -20 -20 -20 -20 -20 -20 -20 -20 -20 -20 -20 -20 -20 -20 -20 -20 -20 -20 -20
-20 -20 -10 4 9 2 8 6 2 11 -3 5 -20 -20 -20 9 -16 10 26 17 5 -14 -20 -20 -20 -20 -20 -20 -20 -20 -20 -20 -20 -20 -20 -20 -20 -20 -20 -7 -20 -20 -20
-0 8 6 11 -5 -6 14 -7 -0 -20 -15 -13 4 -20 -10 9 12 7 -6 7 24 28 22 16 13 10 -10 -15 -16 -20 -20 -20 -20 -20 -20 -20 -20 -20 -20 -20 -20 -20 -20
-4 -15 3 1 -15 24 23 17 7 29 12 6 3 -6 -20 -20 -17 15 22 30 30 26 21 2 -9 -7 2 9 17 -2 -20 -20 -20 -20 -20 -20 -20 -20 -20 -20 -20 -20 -20
9 10 10 9 5 9 11 10 28 3 -20 -3 5 -12 9 8 -2 5 17 22 17 23 23 11 7 5 7 3 -1 1 -18 -12 -6 -20 -20 -20 -20 -20 -20 -20 -20 -20 -20
-2 -20 -10 4 17 11 10 -4 19 18 15 18 25 16 9 -4 -8 -9 -16 -6 -20 -3 -7 -2 -7 0 3 8 9 9 3 -11 10 -20 -20 -20 -20 -20 -20 -20 -20 -20 -20

GFSGL_prec_radar_018.txt.gz
Reflectivity
3 15 -13 -20 -19 -6 9 9 29 7 -20 -10 -20 -18 -20 -13 -19 -20 -20 -20 -20 -20 -20 -20 -20 -18 -11 -20 -20 -20 -20 -20 -20 -20 -20 -20 -20 -20 -20 -20 -20 -20 -20
-20 -20 -20 -20 -20 -20 -20 -20 -20 -20 -20 -20 -20 -20 -20 -20 -20 -20 -20 -20 -20 -20 -20 -20 -18 -20 -20 -20 -20 -20 -20 -20 -20 -20 -20 -20 -20 -20 -20 -20 -20 -20 -20
-20 -16 -20 -20 -5 -20 -20 -20 -20 -20 -20 -20 -19 -20 -20 -17 -20 -20 -20 -20 -20 -20 -20 -20 -20 -20 -20 -20 -20 -20 -20 -20 -20 -20 -20 -20 -20 -20 -20 -20 -20 -20 -20
-20 -20 -20 -20 -20 -20 -20 -20 -20 -20 -20 -20 -20 -19 2 -6 -6 -20 -20 -20 -20 -20 -20 -20 -20 -20 -20 -20 -20 -20 -20 -20 -20 -20 -20 -20 -20 -20 -20 -20 -15 -20 -20
10 -15 -20 -20 -20 -20 -20 -20 -20 -20 -20 -20 -20 -18 -20 -20 -20 -20 -20 -20 -20 -20 -20 -20 -20 -20 -20 -20 -20 -20 -20 -20 -20 -20 -20 -20 -20 -20 -20 -20 -19 -20 -20
-19 -20 -20 -20 -20 -20 -20 -20 -20 -20 -9 14 -4 -20 -20 -20 -20 -20 -14 -20 -20 -19 -20 -20 -20 -20 -20 -20 -20 -20 -20 -20 -20 -20 -20 -20 -20 -20 -20 -20 -20 -20 -20
-20 -20 -20 -20 -20 -20 -20 -20 -20 -12 23 -1 -3 -3 -8 -20 -16 -12 -20 -20 -20 3 -15 -20 -20 -20 -20 -20 -20 -20 -20 -20 -20 -20 -20 -20 -20 -20 -20 -20 -20 -20 -20
-20 -20 -20 -20 -20 -20 -20 -20 17 29 7 14 -12 -20 -20 -20 -20 -20 -20 -20 -20 -20 -20 -20 -20 -20 -20 -20 -20 -20 -20 -20 -20 -20 -20 -20 -20 -20 -17 1 -6 -19 -20
-20 -20 -20 -20 -11 10 -20 14 32 16 14 -18 -20 -20 -20 -20 -20 -20 -20 -20 -20 -19 -20 -20 -20 -20 -20 -20 -20 -20 -20 -20 -20 -20 -20 -20 -20 -20 -20 -1 -20 -13 -20
-20 -18 -16 17 20 14 33 30 21 12 -14 -20 -20 -20 -20 -20 -20 -20 -20 -20 -20 -20 -20 -20 -20 -20 -20 -20 -20 -20 -20 -20 -20 -20 -20 -20 -20 -20 -20 -20 -20 -20 -20
-3 24 5 26 5 31 17 10 -11 -20 -20 -20 -20 -20 -20 -20 -20 -20 -20 -20 -20 -20 -20 -20 -20 -20 -20 -20 -20 -20 -20 -20 -20 -20 -20 -20 -20 -20 -20 -20 -20 -20 -20
-18 9 24 23 28 28 6 -20 -20 -20 -20 -20 -20 -20 -20 -20 -20 -20 -20 -20 -20 -20 -20 -20 -20 -20 -20 -20 -20 -20 -20 -20 -20 -20 -20 -20 -20 -20 -20 -20 -20 -20 -20
-6 12 22 14 -17 -20 -20 -20 -20 -20 -20 -20 -20 -20 -20 -20 -20 -20 -20 -20 -20 -20 -20 -20 -20 -20 -20 -20 -20 -20 -20 -20 -20 -20 -20 -20 -20 -20 -20 -20 -20 -20 -20
-20 -20 -20 -20 -20 -20 -20 -20 -20 -20 -20 -20 -20 -20 -20 -20 -20 -20 -20 -20 -20 -20 -20 -20 -20 -20 -20 -20 -20 -20 -20 -20 -20 -20 -20 -20 -20 -20 -20 -20 -20 -20 -20
-20 -20 -20 -20 -20 -20 -20 -20 -20 -20 -20 -20 -20 -20 -20 -20 -20 -20 -20 -20 -20 -20 -19 -20 -20 -20 -20 -20 -20 -20 -20 -20 -20 -20 -20 -20 -20 -20 -20 -20 -20 -20 -20
-20 -20 -20 -20 -20 -20 -20 -20 -20 -20 -20 -20 -20 -20 -20 -20 -20 -20 -20 -20 -20 -16 -10 -20 -20 -20 -20 -20 -20 -20 -20 -20 -20 -20 -20 -20 -20 -20 -20 -20 -20 -20 -20
-20 -20 -20 -20 -20 -20 -20 -20 -20 -20 -20 -20 -20 -20 -20 -20 -20 -20 -20 -20 -20 8 8 -20 -20 -20 -20 -20 -20 -20 -20 -20 -20 -20 -20 -20 -20 -20 -20 -20 -20 -20 -20
-20 -20 -20 -20 -20 -20 -20 -20 -20 -20 -20 -20 -20 -20 -20 -17 -19 -20 -20 -20 0 10 -17 -20 -20 -20 -20 -20 -20 -20 -20 -20 -20 -20 -20 -20 -20 -20 -20 -20 -20 -20 -20
-20 -20 -20 -20 -20 -20 -20 -20 -20 -20 -20 -11 3 -20 -20 -1 -3 2 -20 -14 8 2 -20 -20 -20 -20 -20 -20 -20 -20 -20 -20 -20 -20 -20 -20 -20 -20 -20 -20 -20 -20 -20
-20 -20 -20 -20 -20 -20 -19 -10 -14 9 15 23 3 -20 -20 -20 12 15 -19 -20 -20 -20 16 2 -17 -20 -20 -20 -20 -20 -20 -20 -20 -20 -20 -20 -20 -20 -20 -20 -20 -20 -20
-20 -20 -20 -20 -20 1 4 2 3 1 -4 3 -13 12 3 4 0 16 -20 -20 -20 -20 -20 -20 -2 14 8 9 -17 -20 -20 -20 -20 -20 -20 -20 -20 -20 -20 -20 -20 -20 -20
-20 -20 -16 -4 -20 -10 -4 -10 -4 -11 -18 -18 -14 -20 -3 11 23 -8 -5 -19 -9 -20 -20 -20 -20 -20 -20 6 13 -19 -20 -20 -20 -20 -20 -20 -20 -20 -20 -20 -20 -20 -20
-20 -20 -20 -20 -20 -9 -20 -20 -20 -19 -19 -9 9 11 -12 -20 -14 -20 -8 11 -14 -9 -20 -20 -20 -20 -13 -3 17 1 -20 -20 -20 -20 -20 -20 -20 -20 -20 -20 -20 -20 -20
-16 -20 -20 -20 -20 -20 -20 -20 -20 -20 -20 -20 -20 -15 -2 2 13 26 16 11 14 11 -7 17 23 15 19 13 9 -20 -20 -20 -20 -20 -19 9 -19 -20 -20 -20 -20 -20 -20
-20 -20 -20 -20 -20 -20 -20 -20 -20 -20 -20 -20 -14 -13 5 -9 13 17 22 10 -13 -20 -20 -20 4 5 9 23 27 19 10 -2 -20 -20 -20 -17 3 -20 -20 -20 -20 -20 -20
-20 -20 -20 -20 -20 -20 -20 -20 -20 -20 -20 -20 -20 -19 -2 10 14 15 18 12 -0 -17 -20 -20 -20 -20 -20 -18 -7 -19 -20 -20 -4 3 -13 -13 -19 8 -20 -20 -20 -20 -20

GFSGL_prec_radar_021.txt.gz
Reflectivity
24 13 4 -17 -9 -9 -20 -20 -20 -20 -18 -20 -18 -20 -20 -19 -19 -20 -20 -20 -20 -20 -20 -20 -20 -20 -20 -20 -20 -20 -20 -20 -20 -20 -20 -20 -20 -20 -20 -20 -20 -20 -20
19 -19 19 17 15 -2 -20 -3 -14 -18 -20 -20 -20 -20 -20 -10 10 -19 -20 -20 -20 -20 -20 -20 -20 -20 -20 -20 -20 -20 -20 -20 -20 -20 -20 -20 -20 -20 -20 -20 -20 -20 -20
22 22 -4 -20 -20 -20 6 2 -20 -20 -20 -20 -20 -20 -4 15 -16 -20 -20 -20 -20 -20 -20 -20 -20 -20 -20 -20 -20 -20 -20 -20 -20 -20 -20 -20 -20 -20 -20 -20 -20 -20 -20
21 -20 -10 -20 -20 -7 -20 -20 -20 -20 -20 -20 -20 -20 18 -20 -20 -20 -20 -20 -20 -20 -20 -20 -20 -20 -20 -20 -20 -20 -20 -20 -20 -20 -20 -20 -20 -20 -20 -20 -20 -20 -20
-10 -9 -20 -20 -20 -20 -19 -14 -19 -20 -19 -20 -20 19 -16 -20 -20 -20 -20 -20 -20 -20 -20 -20 -20 -20 -20 -20 -20 -20 -20 -20 -20 -20 -20 -20 -20 -20 -20 -20 -20 -20 -20
-20 -20 -20 -20 -20 -20 -16 -19 -17 -18 -15 -3 8 18 -12 -20 -20 -20 -20 -20 -20 -20 -20 -20 -20 -20 -20 -20 -20 -20 -20 -20 -20 -20 -20 -20 -20 -20 -20 -20 -20 -20 -20
-20 -20 -17 4 -14 -20 -20 -20 -20 -17 -6 11 25 20 -3 -20 -20 -20 -20 -20 -20 -20 -20 -20 -20 -20 -20 -20 -20 -20 -20 -20 -20 -20 -20 -20 -20 -20 -20 -20 -20 -19 -14
-20 -20 -6 -1 -20 -20 -20 -20 -20 11 34 13 28 4 -14 -20 -20 -20 -20 -20 -20 -20 -20 -20 -20 -20 -20 -20 -20 -20 -20 -20 -20 -20 -20 -20 -20 -20 -20 -15 10 4 -20
-20 -19 -9 4 -20 -20 4 24 15 35 20 -4 -20 -11 -19 -20 -20 -20 -20 -20 -20 -20 -20 -20 -20 -20 -20 -20 -20 -20 -20 -20 -20 -20 -20 -20 -20 -20 -20 -20 -20 -20 -20
-20 -19 -11 -20 -11 8 28 24 20 20 8 4 -18 -20 -20 -20 -20 -20 -20 -20 -20 -20 -20 -20 -20 -20 -20 -20 -20 -20 -20 -20 -20 -20 -20 -20 -20 -20 -20 -20 -20 -20 -20
-20 -20 -10 7 28 21 20 27 25 6 -20 -20 -20 -20 -20 -20 -20 -20 -20 -20 -20 -20 -20 -20 -20 -20 -20 -20 -20 -20 -20 -20 -20 -20 -20 -20 -20 -20 -20 -20 -20 -20 -20
-20 -20 -17 21 27 18 15 11 -6 -20 -20 -20 -20 -20 -20 -20 -20 -20 -20 -20 -20 -20 -20 -20 -20 -20 -20 -20 -20 -20 -20 -20 -20 -20 -20 -20 -20 -20 -20 -20 -20 -20 -20
-20 -20 -19 -12 -9 -18 -20 -20 -20 -20 -20 -20 -20 -20 -20 -20 -20 -20 -20 -20 -15 -20 -20 -20 -20 -20 -20 -20 -20 -20 -20 -20 -20 -20 -20 -20 -20 -20 -20 -20 -20 -20 -20
-20 -20 -20 -20 -20 -20 -20 -20 -20 -20 -20 -20 -20 -20 -20 -20 -20 -20 -20 -20 -11 -19 -20 -18 -18 -17 -20 -20 -20 -20 -20 -20 -20 -20 -20 -20 -20 -20 -20 -20 -20 -20 -20
-20 -20 -20 -20 -20 -20 -20 -20 -20 -20 -20 -20 -20 -20 -20 -20 -20 -20 -20 -20 -20 -20 -20 -14 11 -11 -20 -20 -20 -20 -20 -20 -20 -20 -20 -20 -20 -20 -20 -20 -20 -20 -20
-20 -20 -20 -20 -20 -20 -20 -20 -20 -20 -20 -20 -20 -20 -20 -20 -20 -20 -20 -20 -20 -20 -19 1 -20 -14 -18 -20 -20 -20 -20 -20 -20 -20 -20 -20 -20 -20 -20 -20 -20 -20 -20
-20 -20 -20 -20 -20 -20 -20 -20 -20 -20 -20 -20 -20 -20 -20 -20 -20 -20 -20 -20 -20 -20 -6 -20 -20 -20 -20 7 4 -20 -20 -20 -20 -20 -20 -20 -20 -20 -20 -20 -20 -20 -20
-20 -20 -20 -20 -20 -20 -20 -20 -11 -17 -16 -16 -20 -13 -15 -20 -20 -9 4 16 23 -13 -19 -20 -20 -20 -20 7 2 -20 -20 -20 -20 -20 -20 -20 -20 -20 -20 -20 -20 -20 -20
-20 -20 -20 -20 -20 -20 -20 -20 -20 -20 -20 -20 -20 -20 -20 -11 16 -2 -20 13 16 8 -20 -20 -20 -9 9 -1 10 -19 -20 -20 -20 -20 -20 -20 -20 -20 -20 -20 -20 -20 -20
-20 -20 -20 -20 -20 -20 -20 -6 -17 -12 -19 2 3 -13 -20 -9 2 -20 -19 6 -8 -13 7 -13 -20 -20 -8 14 17 -2 -20 -20 -20 -20 -20 -20 -20 -20 -20 -20 -20 -20 -20
-20 -20 -20 -18 -20 -20 -20 -20 -5 -20 -19 -20 -20 -20 -20 -5 -4 -17 -20 -19 -19 4 11 -20 -20 -19 -20 -20 -12 3 -5 -20 -20 -20 -20 -20 -20 -20 -20 -20 -20 -20 -20
-20 -20 -20 -20 -20 -20 -20 -10 -20 -6 -20 -20 -20 -20 -20 -20 -20 -19 5 4 18 5 -20 -14 -20 -20 -20 -20 -20 4 -8 -13 -20 -20 -20 -20 -20 -20 -20 -20 -20 -20 -20
-14 -20 -20 -20 -20 -20 -20 -20 -20 -20 -20 -20 -20 -20 -20 -20 -20 -20 -8 1 25 12 18 17 -2 -20 -20 -20 -20 7 18 -13 -20 4 2 -20 -20 -20 -20 -20 -20 -20 -20
-20 -20 -20 -20 -20 -20 -20 -20 -20 -20 -20 -20 -20 -20 -20 -20 -20 -19 -1 13 23 23 21 -1 -20 -19 -14 11 13 11 -5 -17 1 -1 6 1 -20 -19 -13 -20 -20 -20 -20
-20 -20 -20 -20 -20 -20 -20 -20 -20 -20 -20 -20 -20 -20 -20 -20 -20 -20 -8 8 14 8 12 16 -18 -20 -20 6 17 14 9 15 12 -20 -17 -7 -20 -20 -20 -20 -20 -20 -20
-20 -20 -20 -20 -20 -20 -20 -20 -20 -20 -20 -20 -20 -20 -20 -20 -20 -20 -20 -5 8 16 19 13 9 -16 -20 -20 -20 -13 -8 4 -0 -4 -13 -16 -15 -17 -20 -20 -20 -20 -20

GFSGL_prec_radar_024.txt.gz
Reflectivity
-20 29 27 -9 23 22 23 16 -16 -17 6 2 -6 -20 -18 -20 -20 -20 -20 -20 -20 -20 -20 -20 -20 -20 -20 -20 -20 -20 -20 -20 -20 -20 -20 -20 -20 -20 -20 -20 -20 -20 -20
-14 -6 23 21 20 15 7 21 3 -14 -20 -6 -10 -20 -20 -20 -20 -17 -20 -20 -20 -20 -20 -20 -20 -20 -20 -20 -20 -20 -20 -20 -20 -20 -20 -20 -20 -20 -20 -20 -20 -20 -20
-20 22 -20 20 16 16 23 5 -9 -20 -10 -19 -20 -20 -16 -20 0 0 -18 -20 -20 -20 -20 -20 -20 -20 -20 -20 -20 -20 -20 -20 -20 -20 -20 -20 -20 -20 -20 -20 -20 -20 -20
-18 -20 -7 23 13 5 -5 10 -20 -20 -16 -15 -2 -15 -20 -19 21 10 3 -20 -20 -20 -20 -20 -20 -20 -20 -20 -20 -20 -20 -20 -20 -20 -20 -20 -20 -20 -20 -20 -20 -20 -20
-13 -17 -3 -19 1 -2 -20 -20 -20 -20 -20 -12 -20 -20 3 33 21 -11 -20 -20 -20 -20 -20 -20 -20 -20 -20 -20 -20 -20 -20 -20 -20 -20 -20 -20 -20 -20 -20 -20 -20 -20 -20
-20 -20 -20 12 -19 2 -20 -20 -7 -19 -19 -15 -20 1 21 16 -11 -20 -20 -20 -20 -20 -20 -20 -20 -20 -20 -20 -20 -20 -20 -20 -20 -20 -20 -20 -20 -20 -20 -20 -20 -20 -3
-20 -20 -20 -20 -20 5 -20 -20 -11 12 18 16 17 39 26 -19 -16 -20 -20 -20 -20 -20 -20 -20 -20 -20 -20 -20 -20 -20 -20 -20 -20 -20 -20 -20 -20 -20 -20 -20 -20 -20 1
-20 -20 -20 -20 -8 -13 -10 -14 13 4 17 6 21 28 6 -19 4 -20 -20 -20 -20 -20 -20 -20 -20 -20 -20 -20 -20 -20 -20 -20 -20 -20 -20 -20 -20 -20 -20 -20 -20 -20 -20
-20 -20 -20 -20 -2 -9 -2 11 8 26 40 21 21 -9 20 -8 -18 -20 -20 -20 -20 -20 -20 -20 -20 -20 -20 -20 -20 -20 -20 -20 -20 -20 -20 -20 -20 -20 -20 -20 -20 -20 -20
-20 -20 -20 -14 -1 -10 5 28 26 21 20 21 23 18 -19 -20 -20 -20 -20 -20 -20 -20 -20 -20 -20 -20 -20 -20 -20 -20 -20 -20 -20 -20 -20 -20 -20 -20 -20 -20 -20 -20 -20
-20 -20 -20 -20 -20 -20 -7 2 12 19 8 -20 -20 -20 -20 -20 -20 -20 -20 -20 -20 -20 -20 -20 -20 -20 -20 -20 -20 -20 -20 -20 -20 -20 -20 -20 -20 -20 -20 -20 -20 -20 -20
-20 -20 -20 -20 -15 -11 -13 -12 -20 -20 -20 -20 -20 -20 -20 -20 -20 -20 -20 -20 -20 -20 -20 -20 -20 -20 -20 -20 -20 -20 -20 -20 -20 -20 -20 -20 -20 -20 -20 -20 -20 -20 -20
-20 -20 -20 -20 -20 -20 -20 -20 -20 -20 -20 -20 -20 -20 -20 -20 -20 -20 -20 -20 -20 -20 -20 -20 -20 -20 -19 -20 -20 -20 -20 -20 -20 -20 -20 -20 -20 -20 -20 -20 -20 -20 -20
-20 -20 -20 -20 -20 -20 -20 -20 -20 -20 -20 -20 -20 -20 -20 -20 -20 -20 -20 -20 -20 -20 -20 -20 -20 -20 -20 -20 -18 -20 -20 -20 -20 -20 -20 -20 -20 -20 -20 -20 -20 -20 -20
-20 -20 -20 -20 -20 -20 -20 -20 -20 -20 -20 -20 -20 -20 -20 -20 -20 -20 -20 -20 -20 -20 -20 -20 -20 -20 -20 -20 -1 -13 -7 -16 -20 -20 -20 -20 -20 -20 -20 -20 -20 -20 -20
-20 -20 -20 -20 -20 -20 -20 -20 -20 -20 -20 -20 -20 -20 -20 -20 -20 -20 -20 -19 -11 2 10 -12 -20 -20 -20 -20 -19 -20 0 6 1 -20 -20 -20 -20 -20 -20 -20 -20 -20 -20
-20 -20 -20 -20 -20 -20 -20 -20 -20 -20 -20 -20 -20 -20 -20 -20 -20 -20 -19 -17 0 -5 22 28 24 8 -5 -4 -20 -20 -20 7 12 -2 -20 -20 -20 -20 -20 -20 -20 -20 -20
-20 -20 -20 -20 -20 -20 -20 -20 -20 -20 -20 -20 -20 -20 -20 -14 -20 -20 -20 -5 -8 15 15 -1 -17 -0 17 -11 -20 -20 -20 11 10 -19 -20 -20 -20 -20 -20 -20 -20 -20 -20
-20 -20 -20 -20 -20 -20 -20 -20 -20 -20 -20 -20 -20 -20 -20 -20 -20 -20 -20 3 -5 2 4 5 -17 5 12 -6 -20 -19 19 15 -2 -20 -20 -20 -20 -20 -20 -20 -20 -20 -20
-20 -20 -20 -20 -20 -20 -20 -20 -20 -20 -20 -20 -20 -20 -20 -20 -20 -20 -20 -20 -19 4 -0 3 3 -18 -16 -2 -20 -20 -19 7 6 -20 -20 -20 -20 -20 -20 -20 -20 -20 -20
-20 -20 -20 -20 -20 -20 -20 -20 -20 -20 -20 -20 -20 -20 -20 -20 -20 -20 -20 -20 -19 -8 -2 16 -20 -17 1 -13 -20 -20 -20 -20 -20 -20 -20 -20 -20 -20 -20 -20 -20 -20 -20
-20 -20 -20 -20 -20 -20 -20 -20 -20 -20 -20 -20 -20 -20 -20 -20 -20 -20 -20 -20 -20 -18 3 3 24 3 21 -2 -20 -20 -20 -20 -15 -20 -20 -20 -20 -20 -20 -20 -20 -20 -20
-20 -20 -20 -20 -20 -20 -20 -20 -20 -20 -20 -20 -20 -20 -20 -20 -20 -20 -20 -20 -20 -20 -12 2 11 18 25 19 -19 -19 -11 -17 -14 -2 -2 -20 -20 -20 -20 -20 -20 -20 -20
-20 -20 -20 -20 -20 -20 -20 -20 -20 -20 -20 -20 -20 -20 -20 -20 -20 -20 -20 -20 -20 -20 3 16 16 19 13 -1 -2 0 -10 -6 -16 -11 7 1 -20 -20 -20 -20 -20 -20 -20
-20 -20 -20 -20 -20 -20 -20 -20 -20 -20 -20 -20 -20 -20 -20 -20 -20 -20 -20 -20 -20 -20 -11 13 19 18 16 13 4 10 7 -5 15 20 19 14 -17 -20 -20 -20 -20 -20 -20
-20 -20 -20 -20 -20 -20 -20 -20 -20 -20 -20 -20 -20 -20 -20 -20 -20 -20 -20 -20 -20 -20 -20 -8 10 15 17 13 10 -3 6 5 7 18 16 11 -10 -20 -20 -20 -20 -20 -20

GFSGL_prec_radar_027.txt.gz
Reflectivity
-20 -20 -14 26 26 -20 10 16 17 12 29 33 0 22 -20 -20 3 -20 -20 -19 -20 -20 -20 -20 -20 -20 -20 -20 -20 -20 -20 -20 -20 -20 -20 -20 -20 -20 -20 -20 -20 -20 -20
-12 -7 27 26 23 21 26 23 15 31 30 -10 -16 -20 -20 18 -5 12 -19 9 -13 -12 -20 -20 -20 -20 -20 -20 -20 -20 -20 -20 -20 -20 -20 -20 -20 -20 -20 -20 -20 -20 -20
-12 -15 -20 -20 9 12 11 21 20 -20 -20 23 -3 -18 10 -20 -20 -20 14 12 -5 -20 -20 -20 -20 -20 -20 -20 -20 -20 -20 -20 -20 -20 -20 -20 -20 -20 -20 -20 -20 -20 -20
-20 -20 -20 20 23 6 14 -3 -20 3 -11 0 -20 -11 -12 -19 12 3 31 14 -20 -20 -20 -20 -20 -20 -20 -20 -20 -20 -20 -20 -20 -20 -20 -20 -20 -20 -20 -20 -20 -20 -20
-20 -20 -20 -20 -20 -20 -20 -20 1 -4 -3 -1 -7 2 -17 30 26 28 8 -20 -20 -20 -20 -20 -20 -20 -20 -20 -20 -20 -20 -20 -20 -20 -20 -20 -20 -20 -20 -20 -20 -20 -20
-20 -20 -20 -20 -20 -20 -20 -20 -12 19 3 -16 -20 -16 -3 12 13 22 -19 -20 -20 -20 -20 -20 -20 -20 -20 -20 -20 -20 -20 -20 -20 -20 -20 -20 -20 -20 -20 -20 -20 -20 -20
-20 -20 -20 -20 -20 -20 -20 -6 12 18 8 -16 -20 31 12 35 4 6 -15 -5 -20 -20 -20 -20 -20 -20 -20 -20 -20 -20 -20 -20 -20 -20 -20 -20 -20 -20 -20 -20 -20 -10 -20
-20 -20 -20 -20 -20 -20 -20 -20 -11 -15 7 30 10 36 9 -17 17 25 10 -20 -20 -20 -20 -20 -20 -20 -20 -20 -20 -20 -20 -20 -20 -20 -20 -20 -20 -20 -20 -14 1 2 -20
-20 -20 -20 -20 -20 -20 -20 -17 19 -3 2 15 4 -14 14 -2 27 -11 -20 -20 -20 -20 -20 -20 -20 -20 -20 -20 -20 -20 -20 -20 -20 -20 -20 -20 -20 -20 -20 2 3 -1 -20
-20 -20 -20 -20 -20 -20 -20 -20 -20 -20 -12 -7 8 19 26 -11 -20 -20 -20 -20 -20 -20 -20 -20 -20 -20 -20 -20 -20 -20 -20 -20 -20 -20 -20 -20 -20 -20 -20 -20 -4 3 -16
-20 -20 -20 -20 -20 -20 -20 -13 -6 4 -2 -14 -20 -20 -20 -20 -20 -20 -20 -20 -20 -20 -20 -20 -20 -20 -20 -20 -20 -20 -20 -20 -20 -20 -20 -20 -20 -20 -20 -20 -20 -20 -20
-20 -20 -20 -20 -20 -18 -18 -20 -20 -20 -20 -20 -20 -20 -20 -20 -20 -20 -20 -20 -20 -20 -20 -20 -20 -20 -20 -20 -20 -20 -20 -20 -20 -20 -20 -20 -20 -20 -20 -20 -20 -20 -20
-20 -20 -20 -20 -20 -20 -20 -20 -20 -20 -20 -20 -20 -20 -20 -20 -20 -20 -20 -20 -20 -20 -20 -20 -20 -20 -20 -20 -20 -20 -20 -20 -20 -20 -20 -20 -20 -20 -20 -20 -20 -20 -20
-20 -20 -20 -20 -20 -20 -20 -20 -20 -20 -20 -20 -20 -18 -17 1 1 6 12 8 -15 -16 -20 -20 -20 -20 -20 -20 -20 -20 -19 -20 -20 -19 -20 -20 -20 -20 -20 -20 -20 -20 -20
-20 -20 -20 -20 -20 -20 -20 -20 -20 -20 -20 -20 -20 -15 -2 -7 -0 -20 -20 -20 -9 3 15 2 11 9 1 -20 -20 -20 -20 -12 -4 -7 13 -12 -20 -20 -20 -20 -20 -20 -20
-20 -20 -20 -20 -20 -20 -20 -20 -20 -20 -20 -20 -20 -20 -20 -20 -20 -20 -20 -20 -20 -20 -1 -7 13 8 -12 15 18 11 8 -12 -5 11 7 13 -20 -20 -20 -20 -20 -20 -20
-20 -20 -20 -20 -20 -20 -20 -20 -20 -20 -20 -20 -20 -20 -20 -20 -20 -20 -20 -20 -20 -6 14 14 10 18 4 -17 1 18 22 2 -20 0 -1 19 1 -20 -20 -20 -20 -20 -20
-20 -20 -20 -20 -20 -20 -20 -20 -20 -20 -20 -20 -20 -20 -20 -20 -20 -20 -20 -20 -20 -20 -20 1 16 18 22 -1 -14 -7 11 -19 -20 -18 6 9 -19 -20 -20 -20 -20 -20 -20
-20 -20 -20 -20 -20 -20 -20 -20 -20 -20 -20 -20 -20 -20 -20 -20 -20 -20 -20 -11 0 -20 -20 -20 -12 -15 15 18 6 2 15 25 3 -20 -6 -12 -20 -20 -20 -20 -20 -20 -20
-20 -20 -20 -20 -20 -20 -20 -20 -20 -20 -20 -20 -20 -20 -20 -20 -20 -20 -9 -2 0 -19 -4 -4 -14 -20 -19 18 11 4 5 9 -1 -18 -6 -18 -20 -20 -20 -20 -20 -6 -20
-20 -20 -20 -20 -20 -20 -20 -20 -20 -20 -20 -20 -20 -20 -20 -20 -5 -4 -0 -2 0 -0 2 -2 4 -20 -5 10 12 18 2 -11 -20 -20 -19 1 -20 -20 -20 -20 -20 -20 -20
-20 -20 -20 -20 -20 -20 -20 -20 -20 -20 -20 -20 -20 -20 -20 -20 -20 -5 -20 -19 -2 -0 -0 -3 -10 2 10 7 13 23 15 -7 -16 -20 -20 5 -1 -13 -20 -20 -20 -14 -20
-20 -20 -20 -20 -20 -20 -20 -20 -20 -20 -20 -20 -20 -20 -20 -20 -20 -20 -20 -14 -7 -1 -20 -12 -20 -20 -3 12 15 9 24 3 -20 -18 -5 -2 -1 5 -20 -20 -20 -20 -20
-20 -20 -20 -20 -20 -20 -20 -20 -20 -20 -20 -20 -20 -20 -20 -20 -20 -19 -20 -20 -20 -18 -20 -20 -20 -12 -11 10 15 8 1 1 9 -2 -16 -17 5 9 -20 -20 -20 -20 -20
-20 -20 -20 -20 -20 -20 -20 -20 -20 -20 -20 -20 -20 -20 -20 -20 -20 -20 -20 -20 -20 -20 -20 -20 -20 -19 -3 13 18 16 2 5 2 -6 6 2 -13 10 -20 -20 -20 -20 -20
-20 -20 -20 -20 -20 -20 -20 -20 -20 -20 -20 -20 -20 -20 -20 -20 -20 -20 -20 -20 -20 -20 -20 -20 -20 -20 -6 8 15 15 13 9 5 9 10 14 15 8 8 -9 -20 -19 -15

GFSGL_prec_radar_030.txt.gz
Reflectivity
-20 -20 -20 -18 1 10 18 20 22 16 6 -15 15 33 28 25 -8 -20 -20 -20 -20 -18 1 -1 -18 -20 -20 -20 -20 -20 -20 -20 -20 -20 -20 -20 -20 -20 -20 -20 -20 -20 -20
-20 -20 -20 -18 29 -11 -19 -9 -20 19 13 -20 17 -5 -2 7 -20 -20 -20 -20 -4 30 24 -4 -20 -20 -20 -20 -20 -20 -20 -20 -20 -20 -20 -9 -20 -20 -20 -20 -20 -20 -20
-20 -20 -20 -17 -15 -17 -20 21 -20 -20 -20 8 7 -2 13 13 -10 -19 -19 17 30 -3 -20 -20 -20 -20 -20 -20 -20 -20 -20 -20 -20 -20 -20 -14 -20 -20 -20 -20 -20 -20 -20
2 -20 -20 -20 -20 -9 -20 -20 -20 -20 -20 -20 -8 -3 0 2 -20 -12 -14 24 -16 -20 -20 -20 -20 -20 -20 -20 -20 -20 -20 -20 -13 -20 -20 -20 -20 -20 -20 -20 -20 -20 -20
-20 -20 -20 -20 -20 -20 -20 -20 -20 -20 -20 -20 -0 -16 18 3 -20 -1 27 31 -9 -20 -20 -20 -20 -20 -20 -20 -20 -20 -20 -20 -20 -20 -20 -20 -20 -20 -20 -20 -20 -20 -20
-20 -20 -20 -20 -20 -20 -20 -20 -20 -20 -10 -20 -1 -16 24 21 -13 38 5 11 -20 -19 -20 -20 -20 -20 -20 -20 -20 -20 -20 3 -20 -20 -20 -20 -20 -20 -20 -20 -20 -20 -20
-20 -20 -20 -20 -20 -20 -20 -20 -20 -20 -18 -16 4 13 -20 2 13 14 19 8 -0 -10 -17 -20 -20 -20 -20 -20 -20 -20 -20 -20 -20 -20 -20 -20 -20 -20 -20 -20 -20 -20 -20
-20 -20 -20 -20 -20 -20 -20 -20 -20 -20 -20 -20 -20 -20 -20 -15 -2 23 18 10 -2 -20 -20 -20 -20 -20 -20 -20 -20 -20 -20 -20 -20 -20 -20 -20 -20 -20 -20 -20 -20 -20 -20
-20 -20 -20 -20 -20 -20 -20 -20 -20 -20 -20 -20 -20 -20 -20 7 4 19 16 -18 -20 -20 -20 -20 -20 -20 -20 -20 -20 -20 -20 -19 -20 -20 -20 -20 -20 -20 -20 -20 -20 -20 -20
-20 -20 -20 -20 -20 -20 -20 -19 -1 -18 -5 -20 -19 -14 21 9 -20 -20 -20 -20 -20 -20 -20 -20 -20 -20 -20 -20 -20 -20 -0 -3 -20 -20 -20 -20 -20 -20 -20 -20 -20 -13 -20
-20 -20 -20 -20 -20 -20 -16 -20 -20 -20 -18 -18 -20 -20 -20 -20 -20 -20 -20 -20 -20 -20 -20 -20 -20 -20 -20 -20 -20 -20 -19 3 -16 -20 -20 -20 -20 -20 -20 -20 -20 -20 -20
-20 -20 -20 -20 -20 -20 -20 -20 -20 -20 -20 -20 -20 -20 -20 -20 -20 -20 -20 -20 -20 3 2 -4 -4 -20 -20 -20 -20 -20 -19 -20 14 1 -20 -20 -20 -20 -20 -20 -20 -20 -20
-20 -20 -20 -20 -20 -20 -20 -20 -20 -20 -20 -20 -20 -20 -20 -20 -20 -20 -20 -20 -20 -20 -17 5 -13 -20 -20 -20 -20 -20 -17 -11 -9 4 -4 -20 -20 -20 -20 -20 -20 -20 -20
-20 -20 -20 -20 -20 -20 -20 -20 -20 -20 -20 -20 -20 -20 -20 -20 -20 -20 -20 -20 -20 -20 -17 -20 -20 -20 -14 2 23 6 -20 -20 -14 -20 -3 -20 1 14 -19 -20 -20 -6 1
-20 -20 -20 -20 -20 -20 -20 -20 -20 -20 -20 -20 -20 -20 -20 -20 -20 -20 -18 -13 -14 -20 -12 3 -15 -20 -11 6 18 7 34 28 14 -2 4 6 8 6 13 -8 -14 -7 -0
-20 -20 -20 -20 -20 -20 -20 -20 -20 -20 -20 -20 -20 -20 -20 -20 -20 -20 -20 -20 -20 -20 -20 1 16 17 15 10 2 20 21 19 29 19 36 18 8 11 7 7 -12 -2 1
-20 -20 -20 -20 -20 -20 -20 -20 -20 -20 -20 -20 -20 -20 -20 -20 -20 -20 -20 -20 -20 -20 2 3 4 10 9 -5 15 21 19 14 2 34 35 26 9 7 11 8 3 -3 -1
-20 -20 -20 -20 -20 -20 -20 -20 -20 -20 -20 -20 -20 -20 -20 -20 -20 -20 -20 -20 -20 -20 -1 -0 2 -1 -3 2 4 -3 31 16 16 10 32 8 10 11 11 6 -3 -0 0
-20 -20 -20 -20 -20 -20 -20 -20 -20 -20 -20 -20 -20 -20 -20 -20 -20 -20 -20 -1 0 -2 -0 -1 1 0 -8 5 9 5 6 22 16 22 12 14 9 8 10 5 -7 -20 -2
-20 -20 -20 -20 -20 -20 -20 -20 -20 -20 -20 -20 -20 -20 -20 -20 -20 -18 -3 -0 2 0 -0 0 -0 0 -2 4 8 12 -18 17 6 19 14 18 9 9 10 5 0 4 -0
-20 -20 -20 -20 -20 -20 -20 -20 -20 -20 -20 -20 -20 -20 -20 -20 -3 -5 -4 1 1 1 2 2 -9 4 4 4 -2 7 -12 8 30 14 8 5 12 8 10 7 -3 -3 2
-20 -20 -20 -20 -20 -20 -20 -20 -20 -20 -20 -20 -20 -20 -20 -19 -20 -20 -20 -1 2 2 2 -13 3 3 -4 6 5 5 6 13 26 29 15 -5 6 8 12 6 1 5 -3
-20 -20 -20 -20 -20 -20 -20 -20 -20 -20 -20 -20 -20 -20 -20 -11 -4 -6 -2 1 1 -0 1 2 3 1 3 -8 3 9 8 14 6 19 19 13 4 6 10 8 1 8 -5
-20 -20 -20 -20 -20 -20 -20 -20 -20 -20 -20 -20 -4 -2 -2 -3 -1 -1 -1 1 -1 -0 -1 1 0 5 4 2 2 2 9 11 13 8 23 15 9 1 13 14 3 4 4
-20 -20 -20 -20 -20 -18 -18 -20 -20 -3 -4 -3 -1 0 -1 -0 -2 -1 1 -2 -3 -2 -19 1 -0 -12 -18 -20 -12 1 9 12 13 14 18 14 11 6 11 10 4 4 3
-20 -20 -20 -20 -12 -6 -4 -3 -2 -3 -4 -2 -2 0 1 0 -1 0 -2 -10 -20 -20 -10 -3 -6 -20 -20 -20 -3 -4 7 12 9 12 8 9 14 10 12 16 4 7 4

GFSGL_prec_radar_033.txt.gz
Reflectivity
-20 -20 -20 -20 11 -16 -15 -20 -20 -20 -20 -20 -20 -20 -20 -15 13 13 -8 14 -19 -20 -20 13 18 -20 -20 -20 -20 -20 -20 -20 -20 -20 -20 -20 -20 -20 -20 -20 -20 -20 -20
-20 -20 -20 29 -18 -13 30 -14 -12 23 -20 -20 -20 -20 -20 13 7 8 21 19 10 -20 11 12 -20 -20 -20 -20 -20 -20 -20 -20 -20 -20 -20 -20 -20 -20 -20 -20 -20 -20 -20
-20 -20 -17 -18 29 16 2 18 22 -12 -9 24 14 -2 -13 18 21 0 10 -20 6 4 27 -3 -20 -16 -19 -20 -20 -20 -20 -20 -20 -13 -20 -20 -20 -20 -20 -20 -20 -20 -20
-20 -20 -20 -20 1 9 18 -9 -20 -20 -12 11 5 -7 15 13 6 19 16 -9 27 25 7 18 15 -7 -19 -17 -10 3 -18 -3 -2 14 -3 -20 -20 -20 -20 -20 -20 -20 -20
-20 -20 -17 -17 -20 -14 6 1 -20 -20 -20 -20 -20 -20 -8 15 -4 -13 9 19 11 5 -6 -13 -20 -20 -18 -20 -16 -13 13 8 18 5 -20 2 -20 -20 -20 -20 -20 -20 -20
22 -20 -20 -20 -20 -20 -20 -20 -20 -20 -20 -20 -20 -20 -20 -20 15 17 -20 -20 -8 13 -8 -12 -15 -20 -20 -20 -20 -20 -20 -20 11 7 7 -3 -20 -20 -20 -20 -20 -20 -20
-20 -20 -20 -20 -20 -20 -20 -20 -20 -20 -20 -20 -0 -16 -5 -16 -20 -20 -20 -20 -2 7 -8 -17 -18 -20 -20 -20 -20 -20 -20 -20 -20 -20 3 4 -20 -20 -20 -20 -20 -20 -20
-20 -20 -20 -20 -20 -20 -20 -20 -20 -20 -20 -20 -20 -20 -20 -20 -20 -20 -10 -4 -4 -4 -1 -7 -20 -20 -20 -20 -20 -20 -20 -20 -20 -20 -20 -16 -20 -19 -20 -20 -20 -20 -20
-20 -20 -20 -20 -20 -20 -20 -20 -20 -20 -20 -20 -20 -20 -20 -5 -20 -18 12 -12 -0 -18 -20 -20 -20 -20 -20 -20 -20 -20 -20 -20 -20 -20 -20 -20 -20 -20 -20 -20 -20 -20 -20
-20 -20 -20 -20 -20 -20 -20 -20 -18 -19 -20 -20 -20 -20 -8 -20 -20 -20 -20 -20 -20 -20 -20 -20 -20 -20 -20 -20 -20 -20 -20 -20 16 -13 -17 -20 -20 -20 -20 -20 -20 -20 -20
-20 -20 -20 -20 -20 -20 -20 -20 -20 -20 -20 -16 -20 -20 -20 -20 -20 -20 -20 -20 -20 -20 -20 -1 -2 -17 -20 -20 -20 -20 -20 -15 18 20 22 26 -15 -20 -20 -20 -20 -20 -20
-20 -20 -20 -20 -20 -20 -20 -20 -20 -20 -20 -20 -20 -20 -20 -20 -20 -20 -20 -20 -20 -20 -20 -20 -20 -20 -20 -20 -20 -17 3 -11 -14 11 29 24 8 11 -6 -20 -20 -20 -20
-20 -20 -20 -20 -20 -20 -20 -20 -20 -20 -20 -20 -20 -20 -20 -20 -20 -20 -20 -20 -20 -20 -20 -20 -20 -20 -20 -20 -20 -20 -2 5 25 1 6 8 6 -19 -0 -3 -20 -20 -20
-20 -20 -20 -20 -20 -20 -20 -20 -20 -20 -20 -20 -20 -20 -20 -20 -20 -20 -20 -20 -20 -20 -20 -20 -20 -20 -20 -16 -15 -15 8 8 6 25 30 11 12 13 8 -20 -20 -20 -20
-20 -20 -20 -20 -20 -20 -20 -20 -20 -20 -20 -20 -20 -20 -20 -20 -20 -20 -20 -20 -20 -20 -14 -20 -10 3 -5 3 -8 -2 11 16 10 18 -3 34 31 13 4 13 -16 -20 3
-20 -20 -20 -20 -20 -20 -20 -20 -20 -20 -20 -20 -20 -20 -20 -20 -20 -20 -20 -20 -20 -20 -20 -19 0 5 7 5 3 1 2 7 -12 14 20 23 27 36 32 31 11 5 4
-20 -20 -20 -20 -20 -20 -20 -20 -20 -20 -20 -20 -20 -20 -20 -20 -20 -20 -20 -20 -20 -20 -20 -20 -1 -0 8 -19 6 9 7 1 -10 27 20 20 22 33 18 26 15 1 9
-20 -20 -20 -20 -20 -20 -20 -20 -20 -20 -20 -20 -20 -20 -20 -20 -20 -20 -20 -20 -20 -20 -20 -9 -10 -20 -1 0 7 7 7 5 5 -6 38 11 16 9 19 17 10 2 8
-20 -20 -20 -20 -20 -20 -20 -20 -20 -20 -20 -20 -20 -20 -20 -20 -20 -20 -20 -0 -0 -10 -20 -20 -6 -20 -8 2 10 10 9 7 3 6 -6 22 11 14 18 12 6 5 5
-3 -11 -11 -19 -20 -20 -20 -20 -20 -20 -20 -20 -20 -20 -20 -20 -20 -7 -3 -2 1 -0 -1 -3 -1 -11 3 8 10 10 10 6 5 6 -20 16 14 12 13 14 7 8 4
10 5 -11 -20 -20 -20 -20 -20 -20 -20 -20 -20 -20 -20 -20 -20 -20 -4 -4 -3 1 0 1 0 -19 4 5 9 9 10 5 6 7 8 12 30 8 15 10 12 12 2 6
-20 -20 -20 -20 -19 -19 -20 -20 -20 -20 -20 -20 -20 -20 -20 -15 -0 -2 -3 -0 -1 2 1 2 3 4 6 8 10 10 7 5 6 8 12 9 25 12 8 11 13 8 6
-4 -15 -20 -20 -20 -20 -20 -20 -20 -20 -20 -20 -20 -7 -2 1 1 1 2 2 3 -7 -11 0 4 6 5 8 8 9 9 6 7 1 13 1 6 15 14 11 10 10 5
-18 -20 -20 -20 -20 -20 -11 -5 -7 -20 -20 -4 2 2 3 2 3 3 1 4 2 -1 1 2 0 4 10 6 8 6 7 8 -7 -6 13 10 9 16 12 14 10 5 1
-20 -20 -20 -20 -4 -2 -2 -2 -1 1 1 2 3 2 0 2 1 1 3 0 -2 1 2 0 8 3 -0 2 2 3 4 -20 -6 0 3 11 12 20 3 9 11 9 9
-20 -20 -16 -2 -1 1 1 0 1 2 2 3 2 2 2 2 1 2 1 -8 0 -20 -0 -3 2 -2 -2 4 1 4 -7 2 1 -13 9 11 10 16 12 6 14 13 9

GFSGL_prec_radar_036.txt.gz
Reflectivity
-20 -20 -9 15 8 33 -7 -16 25 2 15 23 -20 -20 -20 -20 -20 -20 -20 -19 24 -11 -7 30 2 14 -7 -20 -20 -19 -5 -20 -20 -20 -20 -20 -20 -20 -20 -20 -20 -20 -20
-20 36 13 -4 -2 -19 37 -7 -16 24 -5 -20 -2 -20 -3 -18 -16 -20 -6 -15 5 30 5 -13 4 -4 -20 -20 5 -0 -20 -20 -20 -20 -20 -20 -20 -20 -20 -20 -20 -20 -20
-20 -14 -7 -5 -20 8 -13 -18 -2 26 13 -9 -13 1 4 10 14 -1 -15 14 17 0 27 -0 -11 7 -20 -20 -20 -20 -19 -19 -20 -20 -20 -20 -20 -20 -20 -20 -20 -20 -20
-20 -20 -20 -20 -11 -19 -15 20 4 1 -14 -13 -10 -9 -9 5 16 -6 7 6 28 12 -10 9 -10 -10 -20 -20 -20 -19 -19 -15 -18 -13 -19 -20 -20 -20 -13 -20 -20 -20 -20
-17 -20 -20 -20 -20 -20 2 -20 0 -15 -15 -20 -13 -8 -10 -19 -20 -12 -20 -4 5 -7 -8 -19 -13 0 -15 -20 -20 -20 -20 3 -13 8 3 -7 -15 -20 -18 -20 -20 -20 -20
-20 -20 -20 22 -20 -20 -20 -20 -20 -20 -20 -20 -20 -20 -20 -20 10 -20 -5 -20 -19 -20 -20 -20 8 14 -20 -20 -20 -20 -20 -20 -20 -20 -20 -20 -20 13 5 -9 -20 -20 -20
-20 -20 -20 -20 -20 -20 -20 -20 -20 -20 -20 -20 -20 -20 -20 -20 4 -7 -20 -20 -20 -20 -20 -20 -20 -20 -20 -18 -20 -20 -20 -20 -20 -20 -20 -20 -20 -20 17 18 -20 -20 -19
-20 -20 -20 -20 -20 -20 -20 -20 -20 -20 -20 -20 -20 -20 -20 -20 -20 -20 -20 -20 -19 -11 -18 -20 -20 3 -7 -20 -20 -20 -20 -20 -20 -20 -20 -16 0 12 22 17 8 11 -20
-20 -20 -20 -20 -20 -20 -20 -20 -20 -20 -20 -20 -20 -20 -20 -20 -1 -16 -9 1 -19 -18 -17 -20 -20 -20 -20 -20 -20 -20 -20 -20 -20 -20 -20 -18 3 -20 13 11 -7 9 -0
-20 -20 -20 -20 -20 -20 -20 -20 -20 -20 -20 -20 -20 -20 -20 -20 -1 -16 -20 -20 -20 -20 -20 -20 -20 -20 -20 -20 -20 -20 -20 -20 -20 -20 -14 -20 -20 14 -18 -8 8 0 -20
-20 -20 -20 -20 -20 -20 -20 -20 -20 -20 -20 -20 -20 -20 -7 -20 -20 -20 -20 -20 -20 -20 -20 -20 -20 -20 -20 -20 -20 -20 -20 -20 -20 -20 -18 -7 20 -6 15 -10 -6 -3 -9
-20 -20 -20 -20 -20 -20 -20 -20 -20 -20 -20 -20 -20 -20 -20 -20 -20 -20 -20 -20 -20 -20 -20 -20 -20 -20 -20 -20 -20 -20 -20 -20 -20 -20 -11 6 10 15 6 5 8 -12 -17
-20 -20 -20 -20 -20 -20 -20 -20 -20 -20 -20 -20 -20 -20 -20 -20 -20 -20 -20 -20 -20 -20 -20 -20 -20 -20 -20 -20 -20 -20 -20 6 6 8 -0 -20 4 8 24 17 27 -9 -6
-20 -20 -20 -20 -20 -20 -20 -20 -20 -20 -20 -20 -20 -20 -20 -20 -20 -20 -20 -20 -20 -20 -20 -20 -20 -20 -20 -20 -20 -20 -20 -20 -6 9 6 15 -11 14 27 34 9 22 -2
-20 -20 -20 -20 -20 -20 -20 -20 -20 -20 -20 -20 -20 -20 -20 -20 -20 -20 -20 -20 -20 -20 -20 -20 -20 -13 -20 -20 -20 -20 -20 -20 -15 -3 -20 -20 -20 12 13 10 8 5 15
-20 -20 -20 -20 -20 -20 -20 -20 -20 -20 -20 -20 -20 -20 -20 -20 -20 -20 -20 -20 -20 -20 -20 -20 -18 -20 -20 -20 -20 -20 -20 -20 -7 2 -20 -20 -20 -20 12 32 29 5 11
-20 -20 -20 -20 -20 -20 -20 -20 -20 -20 -20 -20 -20 -20 -20 -20 -20 -20 -20 -20 -20 -20 -20 -20 -20 -20 -20 -20 -16 -20 -10 -8 3 3 -19 -11 17 25 -15 12 4 9 10
-20 -20 -20 -20 -20 -18 -9 1 -20 -20 -20 -20 -20 -20 -20 -20 -20 -20 -20 -20 -20 -20 -20 -20 -20 -20 -18 -10 -13 -9 -6 -15 4 -18 -20 -7 3 9 16 10 16 -12 12
-8 -2 -19 -11 -10 6 4 -16 -9 -19 -20 -20 -20 -20 -20 -20 -20 -20 -20 -20 -20 -4 -20 -20 -20 -20 -20 -10 -19 -6 -2 0 -7 -19 -19 -20 -20 -19 19 17 7 5 7
3 13 18 14 11 9 3 -3 -2 -2 -5 -20 -20 -20 -20 -20 -20 -20 -18 -20 -20 -20 -20 -20 -20 -20 -9 -6 -8 -5 -7 0 -17 -15 -18 -20 -20 -20 -4 6 15 -1 -20
21 17 13 12 9 6 -4 -4 -7 -14 -20 -20 -20 -20 -20 -20 -20 -8 -18 -20 -20 -20 -20 1 -20 -20 -20 -3 -5 -6 1 -20 -9 -20 -3 -19 -13 -5 13 20 15 -14 -18
17 15 11 7 1 -17 -18 -20 -20 -20 -20 -20 -20 -20 -20 -20 0 -20 -20 -20 -20 -20 -4 -20 -19 -5 1 -20 -16 1 -20 -6 -20 -15 -20 -20 7 9 -5 23 18 13 -7
14 11 6 -5 -20 -20 -20 -20 -20 -16 -20 -20 -20 -10 -20 -3 -20 -20 -20 -20 -20 -20 -20 -20 -2 -18 -20 -18 -2 -3 -5 -20 -7 -20 -20 -20 -1 5 -1 -16 17 13 -13
3 -3 -19 -20 -20 -20 -20 -20 -20 -14 -20 -5 -18 -20 -2 -18 -20 -20 -20 -20 -20 -20 -20 -20 -20 -20 1 -15 -19 -20 -20 1 -18 -20 -20 -16 -20 -2 6 -14 17 8 9
-15 -20 -20 -20 -20 -2 -18 -12 -9 -7 -6 -19 -17 -20 -20 -19 -15 -20 -20 -20 -20 -20 -20 -20 -18 -6 -20 -20 -20 -20 -17 -20 -20 -19 -19 -18 -19 3 12 14 15 9 6
-20 -20 -20 -4 -1 -3 -10 -13 -20 -14 -20 -20 -20 -20 -0 -9 -20 -20 -19 -20 -13 -20 -20 -14 -20 -20 -20 -13 -20 9 -20 -20 -20 -20 -8 -19 -19 -9 3 -14 14 9 8

GFSGL_prec_radar_039.txt.gz
Reflectivity
16 -1 2 -19 -20 -8 24 33 31 33 28 -2 31 12 -9 -20 -10 -20 3 13 -6 -17 11 13 -4 21 19 14 -20 -17 -3 -9 -20 -20 -20 -20 -20 -20 -20 -20 -20 -20 -20
30 -8 -19 21 32 49 33 42 46 25 12 -15 -18 4 18 -6 -3 7 -13 -1 2 -3 3 -2 -2 20 20 -18 -20 -14 -4 -10 -20 -20 -20 -20 -20 -20 -20 -20 -20 -20 -20
2 25 31 33 28 28 12 34 -7 5 -20 -20 -20 -14 -1 -20 -20 -16 -4 -20 8 -7 -14 4 29 16 -20 -20 -2 -3 -20 -18 3 -13 -20 -20 -20 -20 -6 -18 -20 -20 -12
-3 17 4 -10 -20 -20 -20 -17 -14 -7 -14 11 6 -20 -1 -20 -9 -14 -20 -6 -20 19 9 11 3 -9 -12 -16 -20 -20 -20 -20 -20 -20 -16 -20 -20 -20 -19 9 15 6 -1
-20 -20 -20 -20 -20 -20 -4 15 -20 2 25 4 -20 -8 -2 8 7 14 -12 -18 -18 -18 -20 -8 -10 -14 -20 -9 -18 -20 -20 -16 -2 6 -12 -17 -20 -20 -18 -20 15 11 -20
-20 -20 -20 -20 -20 -2 -20 -20 11 -20 -20 -20 -13 8 13 3 20 6 -8 -20 -20 -14 -11 -20 -20 -20 -3 -20 -20 -20 -20 6 6 1 -19 -20 -20 -20 -20 4 13 19 17
-20 -20 -20 -20 -20 -20 -20 -20 -20 -20 -20 -20 -20 -20 -20 -20 -20 -1 -5 -16 -20 -20 -20 -20 -20 -20 -20 -20 -20 -20 -20 -20 -20 -20 -20 -20 -20 -20 -20 -13 2 16 20
-20 -20 -20 -20 -20 -20 -20 -20 -20 -20 -20 -20 -20 -20 -20 -20 -20 -20 -20 -20 -20 -20 -20 -3 -9 -20 -20 -20 -20 -20 -20 -20 -20 -20 -20 -20 -20 -20 -20 -10 -4 11 7
-20 -20 -20 -20 -20 -20 -20 -20 -20 -20 -20 -20 -20 -20 -20 -20 -20 -20 -20 -20 -20 -20 -19 -20 -20 -20 -20 -20 -20 -20 -20 -20 -20 -20 -20 -20 -20 -20 -20 -2 13 11 14
-20 -20 -20 -20 -20 -20 -20 -20 -20 -20 -20 -20 -20 -20 -9 -20 -17 -20 6 -20 -20 -20 -20 -20 -20 -20 -20 -20 -20 -20 -20 -20 -20 -20 -20 -20 -20 -20 -20 -20 -20 17 14
-20 -20 -20 -20 -20 -20 -20 -20 -20 -20 -20 -20 -20 -20 -20 -20 -20 -20 -20 -20 -20 -20 -20 -20 -20 -20 -20 -20 -20 -20 -20 -20 -20 -20 -20 -20 -20 -20 -20 -20 -3 9 19
-20 -20 -20 -20 -20 -20 -20 -20 -20 -20 -20 -20 -20 -20 -20 -20 -20 -20 -20 -20 -20 -20 -20 -20 -20 -20 -20 -20 -20 -20 -20 -20 -20 -20 -15 -12 2 -20 -20 -15 4 10 -2
-20 -20 -20 -20 -20 -20 -20 -20 -20 -20 -20 -20 -20 -20 -20 -20 -20 -20 -20 -20 -20 -20 -20 -20 -20 -20 -20 -20 -20 -20 -20 -20 -20 -20 -5 1 -19 -20 -20 -9 4 -12 -20
-20 -20 -20 -20 -20 -20 -20 -20 -20 -20 -20 -20 -20 -20 -20 -20 -20 -20 -20 -20 -20 -20 -20 -20 -20 -20 -20 -20 -20 -20 -20 -20 -20 -20 -6 -20 -20 -20 -20 -18 -3 -9 8
-20 -20 -20 -20 -20 -20 -20 -20 -20 -20 -20 -20 -20 -20 -20 -20 -20 -20 -20 -20 -20 -20 -20 -20 -20 -20 -20 -20 -20 -20 -20 -20 -20 -17 -12 -20 -20 -20 -20 -20 -20 14 9
-20 -20 -20 -20 -20 -20 -20 -20 -20 -14 -18 -20 -20 -20 -10 -11 -12 -20 -20 -20 -20 -20 -20 -20 -20 -20 -20 -20 -20 -20 -20 -20 -20 -20 4 -20 -20 -20 -1 -20 -20 0 16
-20 -20 -20 -20 -20 -20 -18 -8 -2 8 13 2 -9 -6 -18 -15 -9 -20 -20 -20 -20 -20 -20 -20 -20 -20 -20 -20 -20 -20 -20 -20 -10 -0 -20 -20 -20 -20 -18 6 6 16 -19
-20 -20 -20 -20 -12 -4 -5 -1 0 6 14 14 10 3 1 8 10 4 -15 -20 -20 -20 -20 -20 -20 -20 -20 -20 -20 -20 -20 -20 -20 -20 -20 -20 -20 -20 -14 -2 -18 0 -13
-20 -19 -18 -19 3 10 13 18 14 9 8 3 -4 -13 -14 1 4 -8 -20 -20 -20 -20 -20 -20 -20 -20 -20 -20 -20 -20 -20 -20 -11 -20 -20 -20 -20 -20 -19 -19 -19 -10 -8
-13 -8 6 22 20 17 16 13 8 7 7 5 1 -2 -7 -20 -20 -20 -20 -20 -20 -20 -20 -20 -20 -20 -20 -20 -14 -20 -20 -9 -20 -20 -20 -20 -20 -20 -20 -20 -20 -20 19
24 23 20 20 17 15 13 5 3 7 6 -0 -7 -15 -20 -20 -20 -20 -20 -20 -20 -20 -20 -20 -20 -20 -20 -20 -20 -20 -18 -20 -20 -20 -20 -20 -20 -20 -20 -19 -16 -11 13
21 18 16 15 13 11 10 9 5 -0 -4 -14 -20 -20 -20 -20 -20 -20 -20 -20 -20 -20 -20 -20 -20 -20 -20 -20 -20 -5 -20 -20 -20 -20 -15 -20 -20 -20 -8 -9 7 14 21
17 16 14 13 13 10 3 -6 -14 -18 -19 -17 -20 -20 -20 -20 -20 -20 -20 -20 -20 -20 -20 -20 -20 -20 -20 -20 -10 -20 -20 -20 -20 -10 -20 -20 -20 -19 -1 8 6 3 5
11 10 6 2 -2 -10 -20 -15 -16 -20 -20 -20 -20 -20 -20 -20 -20 -20 -20 -20 -20 -20 -20 -20 -20 -20 -20 -20 -20 -20 -20 -20 -5 -17 -20 -20 -20 -20 -11 4 8 6 -17
-6 -19 -20 -20 -20 -20 -20 -20 -20 -20 -20 -20 -20 -20 -20 -20 -20 -20 -20 -20 -20 -20 -20 -20 -20 -20 -20 -20 -20 -20 -20 -12 -20 -20 -20 -20 -20 -20 -20 -17 1 7 2
-20 -20 -20 -20 -20 -20 -20 -20 -20 -20 -20 -20 -20 -20 -20 -20 -20 -20 -20 -20 -20 -20 -20 -20 -20 -20 -20 -20 -20 -7 -20 -20 -20 -20 -20 -20 -20 -20 -20 -16 6 12 11

GFSGL_prec_radar_042.txt.gz
Reflectivity
3 18 13 24 25 2 -20 14 26 18 29 40 21 15 22 4 -1 -13 -20 -20 -5 17 25 20 -9 -7 -5 -20 -19 12 15 -5 -20 -20 -20 -20 -20 -20 -20 -20 -20 -20 -20
-17 27 23 26 30 27 29 38 30 42 39 39 18 23 24 4 -16 14 19 5 2 18 0 6 -3 10 -20 5 22 14 -19 -20 -8 -20 -20 -20 -20 -20 -20 -20 -20 -20 -20
-16 -11 28 30 40 19 30 29 5 18 42 17 14 10 13 16 14 12 14 17 14 -10 -20 -20 -6 8 5 15 5 0 -13 -19 -20 -20 -20 -20 -20 -20 -20 -20 -20 -16 9
-20 -3 -7 6 2 2 -4 9 22 -15 -3 30 2 23 -2 11 12 1 -10 -18 -18 -20 -15 -12 -4 8 -5 -3 -20 -13 -20 -20 -20 -20 -20 -20 -20 -20 -20 -20 -20 -20 -20
-20 -20 -20 -20 18 -19 -17 -17 -20 -20 -1 15 21 24 11 -9 1 -19 -8 7 14 -18 -6 -19 -4 -14 14 10 -14 -20 -20 -20 -20 -20 -20 -20 -20 -20 -20 -20 -3 -3 -20
-20 11 -20 -20 -20 -20 -20 -20 6 17 14 15 15 2 -13 10 19 16 3 -20 -17 -1 -20 4 -5 7 3 1 -20 -20 -20 -20 -20 -20 -20 -20 -20 -20 -20 -12 -20 -1 -8
-20 -20 -1 -20 -20 -20 28 -17 -7 6 -2 -7 -5 11 12 12 13 -12 -11 -16 -12 -20 -20 -7 -14 -20 -20 -20 -20 -20 -20 -20 -20 -20 -20 -20 -20 -20 -19 -20 -20 7 4
-18 -4 6 -20 5 4 -20 -20 -20 -20 -20 -20 -20 -20 -14 -15 1 -20 -20 -20 -20 -20 -20 -20 -20 -20 -20 -20 -20 -20 -20 -20 -20 -20 -20 -20 -20 -20 -20 -20 -20 -20 -20
19 21 19 20 -12 27 -20 -20 -20 -20 -20 -20 -20 -20 -20 -20 -20 -20 -20 -20 -20 -20 -20 -20 -20 -20 -20 -20 -20 -20 -20 -20 -20 -20 -20 -20 -20 -20 -20 -20 -20 -20 -20
-20 -20 -5 -14 -20 -20 -20 -20 -20 -20 -20 -20 -20 -20 -20 -20 -20 -20 -18 -20 -20 -20 -20 -20 -20 -20 -20 -20 -20 -20 -20 -20 -20 -20 -20 -20 -20 -20 -20 -20 -18 -2 -9
-20 -20 -20 -20 -20 -20 -20 -20 -20 -20 -20 -20 -20 -20 -20 -14 -20 -10 5 -18 -20 -20 -20 -20 -20 -20 -20 -20 -20 -20 -20 -20 -20 -20 -20 -20 -20 -20 -20 -20 -12 -2 -1
-20 -20 -20 -20 -20 -20 -20 -20 -20 -20 -20 -20 -20 -20 -20 -20 -20 2 -19 -20 -20 -20 -20 -20 -20 -20 -20 -20 -20 -20 -20 -20 -20 -20 -20 -20 -20 -20 -20 -20 -20 -20 -18
-20 -20 -20 -20 -20 -20 -20 -20 -20 -20 -20 -20 -20 -20 -20 -20 -20 -20 -20 -20 -20 -20 -20 -20 -20 -20 -20 -20 -20 -20 -20 -20 -20 -20 -20 -20 -20 -20 -20 -20 -20 -20 -20
-20 -20 -20 -20 -20 -20 -20 -20 -20 -20 -20 -20 -20 -20 -20 -20 -20 -20 -20 -20 -20 -20 -20 -20 -20 -20 -20 -20 -20 -20 -20 -20 -20 -20 -20 -20 -8 -20 -20 -20 -20 -2 -20
-20 -20 -20 -20 -20 -20 -20 -20 -20 -20 -20 -20 -20 -20 -20 -20 -20 -20 -20 -11 -20 -20 -20 -20 -20 -20 -20 -20 -20 -20 -20 -20 -20 -20 -20 -12 -20 -20 -20 -20 -20 -20 -20
-20 -20 -20 -20 -20 -20 -20 -20 -20 -20 -20 -20 -20 -20 -20 -20 -18 -2 -15 -20 -20 -20 -20 -20 -20 -20 -20 -20 -20 -20 -20 -20 -20 -19 -7 -20 -20 -20 -20 -20 -20 -20 0
-20 -20 -20 -20 -20 -20 -20 -20 -20 -20 -20 -17 -20 -13 9 6 -9 -19 -20 -20 -20 -20 -20 -20 -20 -20 -20 -20 -20 -20 -20 -20 -11 -20 -20 -20 -20 -20 -20 -20 -20 -20 -20
-20 3 -17 -20 -19 -16 -17 -19 -11 -5 9 18 14 8 12 8 0 -11 -18 -19 -18 -6 -0 -4 -17 -20 -20 -20 -20 -20 -20 -20 -20 -20 -20 -20 -20 -20 -20 -20 -20 -10 -16
-20 -15 2 9 14 13 9 15 22 18 15 13 5 2 6 7 8 9 8 5 2 -10 -18 -17 -19 -20 -20 -20 -20 -20 -20 -20 -20 -20 -20 -20 -20 -20 -20 -20 -20 -20 2
23 21 20 21 21 23 20 18 15 10 10 12 10 6 -0 -18 -12 -1 -3 -12 -20 -20 -20 -20 -20 -20 -20 -20 -20 -20 -20 -20 -20 -20 -20 -20 -20 -20 -20 -20 -20 -20 -16
16 18 19 20 20 16 15 15 14 14 13 7 -2 -6 -7 -12 -20 -20 -20 -20 -20 -20 -20 -20 -20 -20 -20 -20 -20 -20 -20 -20 -20 -20 -20 -20 -20 -20 -20 -20 -20 -20 -20
12 15 18 19 18 15 12 11 7 2 -2 -2 -11 -16 -17 -20 -20 -20 -20 -20 -20 -20 -20 -20 -20 -20 -20 -20 -20 -20 -20 -20 -20 -20 -20 -20 -20 -20 -20 -20 -20 -20 -18
4 7 9 10 7 1 -4 -7 -4 -3 -3 -8 -19 -20 -20 -20 -20 -20 -20 -20 -20 -20 -20 -20 -20 -20 -20 -20 -20 -20 -20 -20 -20 -20 -4 -20 -20 -20 -20 -20 -18 -15 -12
4 3 -1 -5 -6 -4 -8 -14 -19 -20 -20 -20 -20 -20 -20 -20 -20 -20 -20 -20 -20 -20 -20 -20 -20 -20 -20 -20 -20 -20 -20 -20 -11 -20 -20 -20 -20 -20 -20 -20 -12 -1 3
-6 -11 -19 -20 -20 -20 -20 -20 -20 -20 -20 -20 -20 -20 -20 -20 -20 -20 -20 -20 -20 -20 -20 -20 -20 -20 -20 -20 -20 -20 -20 -20 -20 -20 -20 -20 -20 -20 -20 -20 -20 -1 10
-20 -20 -20 -20 -20 -20 -20 -20 -20 -20 -20 -20 -20 -20 -20 -20 -20 -20 -20 -20 -20 -20 -20 -20 -20 -20 -20 -20 -20 -6 -20 -20 -20 -20 -20 -20 -20 -20 -20 -20 -20 -5 8

GFSGL_prec_radar_045.txt.gz
Reflectivity
-13 11 5 -2 9 -1 -7 12 -1 -20 -20 25 23 28 16 35 31 22 9 8 -12 -20 -20 15 22 7 23 23 13 -9 -20 -19 12 6 2 -20 -20 -20 -20 -20 -20 -20 -20
23 -12 -2 18 28 29 38 28 21 35 38 36 31 44 31 20 16 -0 2 -12 -19 -20 -8 22 4 28 7 1 -9 6 -0 9 11 4 -16 -20 -20 -20 -20 -20 -20 -20 -20
-20 -20 19 21 22 10 10 11 14 -5 4 -15 1 20 18 8 6 -2 15 -17 -16 12 11 26 22 8 -2 -20 -18 1 -5 -3 -6 -9 -20 -20 -20 -20 -20 -20 -20 -20 -20
-20 -20 2 -17 -2 18 30 -18 -20 4 -19 -20 -17 -12 -12 -20 -19 21 13 14 14 19 20 8 -4 -20 -20 -8 3 4 -2 -17 -20 -20 -20 -20 -20 -20 -20 -20 -20 -20 -20
-20 -20 -20 -20 -20 -16 -7 -19 -20 6 10 -16 -20 -20 -20 3 15 24 13 9 14 7 -17 3 -10 -2 14 8 -4 -17 -20 -20 -20 -20 -20 -20 -20 -20 -20 -20 -20 -20 -20
-20 -20 -20 -20 -20 -20 -20 -20 -20 -20 -13 27 -15 16 24 20 27 16 10 -8 -20 -12 1 -20 -14 20 7 -3 10 1 -20 -20 -20 -20 -20 -20 -20 -20 -20 -20 -20 -20 -20
-20 -20 -20 -20 21 -20 -20 -18 -20 3 7 7 2 -2 15 12 18 8 10 -20 3 -4 -17 -6 4 -7 4 5 2 -18 -20 -20 -20 -20 -20 -20 -20 -20 -20 -20 -20 -20 -20
-20 -20 -20 -18 -20 -20 -20 -18 -1 26 -5 -15 6 8 9 5 -3 -10 13 -14 -20 -20 -18 -14 -19 -18 -8 -14 -20 -20 -20 -20 -20 -20 -20 -20 -20 -20 -20 -20 -20 -20 -20
-20 -20 -20 12 19 5 -16 -18 16 -20 -20 -19 -20 -20 -11 -6 14 11 10 -20 -20 -20 -20 -20 -20 -20 -8 -20 -20 -20 -20 -20 -20 -20 -20 -20 -20 -20 -20 -20 -19 -3 -10
-20 -20 -20 -20 -20 -20 -20 -20 11 -20 -20 -20 -20 -20 7 -16 15 10 1 -20 -20 -20 -20 -20 -6 -19 -20 -20 -20 -20 -20 -20 -20 -20 -20 -20 -20 -20 -20 -20 -20 -20 -20
-18 9 -20 -20 -20 -20 -20 -20 -20 -20 -20 -20 -20 -20 -20 -20 -20 -20 -20 -20 -18 -15 -20 -20 -20 -20 -20 -20 -20 -20 -20 -20 -20 -20 -20 -20 -20 -20 -20 -20 -20 -20 -18
-19 -20 -20 -20 -20 -20 -20 -20 -20 -20 -20 -20 -20 -20 -20 -20 -19 -0 11 12 14 -8 -19 -20 -20 -20 -20 -20 -20 -20 -20 -20 -20 -20 -20 -20 -20 -20 -20 -20 -20 -20 -20
-20 -20 -20 -20 -20 -20 -20 -20 -20 -20 -20 -20 -20 -20 -20 -20 -3 13 13 12 0 -20 -20 -20 -20 -20 -20 -20 -20 -20 -20 -20 -20 -20 -20 -20 -20 -20 -20 -20 -20 -20 -20
-20 -20 -20 -20 -20 -20 -20 -20 -20 -20 -20 -20 -20 -20 -20 -20 -14 -20 -20 -20 -20 -20 -17 -2 -2 -3 -11 -20 -20 -20 -20 -20 -20 -20 -20 -20 -20 -20 -20 -20 -20 -20 -20
-20 -20 -20 -20 -20 -20 -20 -20 -20 -20 -15 -20 -20 -20 -20 -20 -20 -20 -20 -20 -16 10 7 0 -19 -20 -20 -20 -20 -20 -20 -20 -20 -20 -20 -20 -20 -20 -20 -20 -20 -20 -20
-20 -20 -20 -20 -20 -20 -20 -19 -1 -20 -20 -20 -20 -20 -20 -20 -20 -16 -1 4 -13 -20 -20 -20 -20 -20 -20 -20 -20 -20 -20 -20 -20 -20 -20 -20 -20 -20 -20 -20 -20 -20 -20
-20 -20 -20 -20 -20 -20 -20 -20 -20 -20 -19 -17 -13 -18 -5 12 9 -5 1 -9 -20 -20 -20 -20 -20 -20 -20 -20 -20 -20 -20 -20 -20 -20 -20 -20 -20 -20 -20 -20 -20 -20 -20
-20 -20 -20 -20 -20 -19 -17 -4 10 12 10 14 16 13 4 -2 -5 -9 1 2 -2 -20 -20 -20 -20 -18 -20 -20 -20 -20 -20 -20 -20 -20 -20 -20 -20 -20 -20 -20 -20 -20 -20
5 4 4 9 12 12 7 3 3 5 6 8 13 10 14 14 11 11 10 10 9 7 4 2 -5 -13 -19 -20 -20 -20 -20 -20 -20 -20 -20 -20 -20 -20 -20 -20 -20 -20 -20
21 19 15 10 8 11 15 16 15 14 14 17 17 16 15 14 11 10 7 -3 -13 -18 -20 -20 -20 -20 -20 -20 -20 -20 -20 -20 -20 -20 -20 -20 -20 -20 -20 -20 -20 -20 -20
8 10 10 11 11 8 8 4 -9 -3 -3 -0 1 1 -1 -12 -20 -20 -20 -20 -20 -20 -20 -20 -20 -20 -20 -20 -20 -20 -20 -20 -20 -20 -20 -20 -20 -20 -20 -20 -20 -20 -20
12 13 10 2 -10 -20 -20 -20 -17 -18 -20 -20 -20 -18 -20 -20 -20 -20 -20 -20 -20 -20 -20 -20 -20 -20 -20 -20 -20 -20 -20 -20 -20 -20 -20 -20 -20 -20 -20 -20 -20 -20 -20
-11 -20 -20 -20 -20 -17 -19 -20 -20 -20 -20 -20 -20 -20 -20 -20 -20 -20 -20 -20 -20 -20 -20 -20 -20 -20 -20 -20 -20 -20 -20 -20 -20 -20 -19 -20 -20 -20 -20 -20 -20 -20 -20
-20 -20 -20 -20 -20 -20 -20 -20 -20 -20 -20 -20 -20 -20 -20 -20 -20 -20 -20 -20 -20 -20 -20 -20 -20 -20 -20 -20 -20 -20 -20 -20 -20 -20 -20 -20 -20 -20 -20 -20 -20 -20 -20
-20 -20 -20 -20 -20 -20 -20 -20 -20 -20 -20 -20 -20 -20 -20 -20 -20 -20 -20 -20 -20 -20 -20 -20 -20 -20 -20 -20 -20 -20 -20 -20 -20 -20 -20 -20 -20 -20 -20 -20 -20 -20 -19
-20 -20 -20 -20 -20 -20 -20 -20 -20 -20 -20 -20 -20 -20 -20 -20 -20 -20 -20 -20 -20 -20 -20 -20 -20 -20 -20 -20 -20 -10 -20 -20 -20 -20 -20 -20 -20 -20 -20 -20 -20 -20 -20

GFSGL_prec_radar_048.txt.gz
Reflectivity
-20 -20 -20 -20 -20 -20 -6 2 22 15 -19 -20 -20 -20 -14 -5 31 36 42 23 34 27 24 23 11 1 18 5 -3 17 9 16 -17 -13 -19 -18 -20 -20 -20 -20 -15 -20 -20
-20 -20 1 12 5 -4 -18 -19 18 -11 -19 3 16 16 31 22 21 24 34 8 18 28 23 0 -20 -20 -18 22 15 -11 19 9 -20 -20 -20 -16 -19 -20 -20 -20 -20 -20 -20
-20 -20 -20 -20 -12 -14 -18 -20 -16 -12 -12 30 14 26 13 -20 -20 -11 -11 -10 -11 -20 13 18 -19 4 19 3 19 5 -2 -20 -20 -12 3 -20 -20 -20 -20 -20 -20 -20 -20
-20 -20 -20 -20 -20 -20 -7 -19 -20 -12 -20 -2 14 23 22 13 -15 -20 -20 -19 -20 7 -3 -1 13 8 2 -3 -7 -11 -20 -20 -20 -20 -19 -20 -20 -20 -20 -20 -20 -20 -20
-20 -20 -20 -20 -20 -20 -20 17 -5 -6 -5 27 -8 -8 -19 -20 -1 -20 -20 -19 6 6 -10 11 22 18 17 11 -5 -20 -20 -8 -9 -20 -20 -20 -20 -20 -20 -20 -20 -20 -20
-20 -20 -20 -20 -20 -20 -20 16 -20 22 -20 25 31 -20 -20 26 -3 18 -5 20 1 17 18 11 -0 10 -19 6 6 13 17 7 -20 -20 -20 -20 -20 -20 -20 -20 -20 -20 -20
-20 -20 -20 -20 -20 -20 -20 -20 -19 -20 25 -20 6 8 6 28 28 -0 23 10 20 17 -5 -15 -20 4 17 -0 17 21 1 -20 -4 -18 -20 -20 -20 -20 -20 -20 -20 -20 -20
-20 -20 -20 -20 -20 -20 -20 -20 -20 -14 23 -15 -16 -7 25 16 21 22 19 3 -7 -2 -15 -8 8 -0 7 19 8 -6 -20 -13 -20 -20 -20 -20 -20 -20 -20 -20 -12 -20 -20
-20 -20 -20 -20 -20 -14 4 -2 -18 -18 14 24 15 21 14 17 20 13 11 -19 -15 7 3 10 7 11 16 14 -5 -16 -19 -20 -20 -20 -20 -20 -20 -20 -20 -20 -20 -8 -20
-20 -20 -20 -20 -20 -3 10 15 15 13 18 22 13 19 21 13 21 13 6 -20 -15 -7 5 15 20 9 11 6 -5 -20 -20 -20 -6 -12 -18 -9 -6 -10 -14 -20 -20 -20 -20
-20 -20 -7 -0 12 -20 -20 -16 -5 4 6 13 13 3 -17 -7 1 10 12 -7 -7 4 17 11 1 11 -5 -20 -20 -20 -20 -4 -6 -18 -19 -19 -15 -5 -13 -8 -15 -20 -20
-20 8 -8 -20 -20 -14 -2 10 19 19 9 -16 -20 -20 -10 3 12 13 14 14 13 -12 -20 -13 2 3 -20 -20 -20 -20 -7 -18 -20 -20 -20 -20 -20 -20 -20 -20 -20 -20 -20
-17 -20 -20 -2 11 14 6 20 17 4 -12 -20 -20 -20 -20 -20 -20 6 6 9 11 -2 -20 4 -7 -20 -5 -13 -20 -20 -20 -20 -20 -20 -20 -20 -20 -20 -20 -20 -20 -20 -20
-20 18 -20 -20 -18 -19 2 -13 -20 -20 -20 -20 -20 -20 -20 -20 -20 -20 -10 -4 5 -2 -20 -20 -20 -20 -20 -20 -20 -20 -20 -20 -20 -20 -20 -20 -20 -20 -20 -20 -20 -20 -20
-20 -20 -20 -20 -20 -20 -20 -20 -20 -20 -20 -20 -20 -20 -20 -20 -13 10 5 -11 -14 -6 -2 -8 -20 -7 -16 -3 -11 -20 -20 -20 -20 -20 -20 -20 -20 -20 -20 -20 -20 -20 -20
-20 -20 -20 -20 -20 -20 -20 -20 -17 1 7 6 8 -3 -6 3 5 4 9 8 -4 -14 -1 -0 -5 -2 -19 -20 -20 -19 -9 -9 -14 -20 -20 -20 -20 -20 -20 -20 -20 -20 -20
-20 -20 -20 -20 -20 -20 -20 -20 -20 3 12 17 17 15 13 9 6 -3 -14 1 -5 -4 -5 -2 -3 0 -2 -0 -7 -19 -20 -20 -20 -20 -20 -20 -20 -20 -20 -20 -20 -20 -20
-20 -8 -19 -16 -14 -15 -6 -1 2 6 1 3 1 -1 4 6 0 -1 4 6 1 -5 -4 -11 -20 -20 -20 -20 -20 -20 -20 -20 -20 -20 -20 -20 -20 -20 -20 -20 -20 -20 -20
24 23 24 24 22 17 12 7 5 7 12 13 15 16 17 17 15 11 7 5 5 1 1 1 -1 1 -1 -9 -17 -20 -20 -20 -20 -20 -20 -20 -20 -20 -20 -20 -20 -20 -20
22 17 14 13 -1 -3 2 8 12 13 13 11 8 7 5 5 5 5 5 4 4 5 4 2 -6 -19 -20 -20 -20 -20 -20 -20 -20 -20 -20 -20 -20 -20 -20 -20 -20 -20 -20
21 20 19 13 12 11 10 9 7 7 9 9 5 1 -1 -5 -19 -20 -20 -20 -20 -20 -20 -20 -20 -20 -20 -20 -20 -20 -20 -20 -20 -20 -20 -20 -20 -20 -20 -20 -20 -20 -20
6 9 9 7 4 1 -4 -13 -18 -20 -20 -20 -20 -20 -20 -20 -20 -20 -20 -20 -20 -20 -20 -20 -20 -20 -20 -20 -20 -20 -20 -20 -20 -20 -20 -20 -20 -20 -20 -20 -20 -20 -20
-20 -20 -20 -20 -20 -20 -20 -20 -20 -20 -20 -20 -20 -20 -20 -20 -20 -20 -20 -20 -20 -20 -20 -20 -20 -20 -20 -20 -20 -20 -20 -20 -20 -20 -20 -20 -20 -20 -20 -20 -20 -20 -20
-20 -20 -20 -20 -20 -20 -20 -20 -20 -20 -20 -20 -20 -20 -20 -20 -20 -20 -20 -20 -20 -20 -20 -20 -20 -20 -20 -20 -20 -20 -20 -20 -20 -20 -20 -20 -20 -20 -20 -20 -20 -20 -20
-20 -20 -20 -20 -20 -20 -20 -20 -20 -20 -20 -20 -20 -20 -20 -20 -20 -20 -20 -20 -20 -20 -20 -20 -20 -20 -20 -20 -20 -20 -20 -20 -20 -20 -20 -20 -20 -20 -20 -20 -20 -20 -20
-20 -20 -20 -20 -20 -20 -20 -20 -20 -20 -20 -20 -20 -20 -20 -20 -20 -20 -20 -20 -20 -20 -20 -20 -20 -20 -20 -20 -20 -20 -20 -20 -20 -20 -20 -20 -20 -20 -20 -20 -20 -20 -20

GFSGL_prec_radar_051.txt.gz
Reflectivity
-20 -20 -20 -20 -20 -20 -20 -20 -20 -16 -16 0 1 -20 -20 -20 -20 -20 -20 -20 -20 1 32 34 35 27 25 27 23 10 -12 21 -11 23 -19 -12 11 -16 -20 -20 -20 -20 -20
-20 -20 -20 -20 -20 -20 -20 -20 -20 -20 -20 13 3 -17 8 -20 -20 -20 -5 2 7 36 32 32 28 26 22 16 8 17 12 14 -3 5 26 1 -20 -20 -18 -20 -20 -20 -20
-20 -20 -20 -11 -20 -14 -20 -20 -20 -20 -20 -20 -20 -20 -18 -16 -5 11 -17 -20 -3 36 17 1 -4 12 22 13 -10 5 -11 17 8 22 -4 -1 -20 -20 -20 -20 -20 -20 -20
-20 -20 -20 -20 -20 -20 -13 -20 -20 -20 -20 -20 -20 -20 -20 -20 -7 -2 -19 -17 23 -20 -19 -20 -10 11 22 -2 11 19 23 16 3 10 7 -20 -19 -20 -20 -20 -20 -20 -20
-20 -20 -20 -20 -20 -20 -20 -20 -20 -20 -20 -20 -20 -8 -20 -20 -16 -18 -20 -20 -20 -20 -20 -16 7 17 19 12 13 -1 8 12 7 -15 -20 -13 -9 -20 -20 -20 -20 -20 -20
-20 -20 -20 -20 -20 -20 -20 -20 -20 -20 -20 -20 9 -20 10 3 -3 -20 -13 8 -2 -20 -20 -20 18 15 15 14 9 6 -16 -20 -20 -20 -20 -20 -20 -20 -20 -20 -20 -20 -20
-20 -20 -20 -20 -20 -20 -20 -20 -20 -20 -18 4 3 -20 15 8 4 -1 18 10 3 25 17 12 13 10 18 -15 2 8 2 8 7 1 -16 -20 -20 -20 -20 -20 -20 -20 -20
-20 -20 -20 -20 -20 -20 -20 -20 -10 1 -10 -3 -16 -12 -20 -11 15 15 14 9 8 8 17 14 11 11 5 -14 -6 11 -3 3 0 -10 -19 -20 -20 -20 -20 -20 -20 -20 -20
-20 -20 -20 -20 -20 -20 -20 -20 -20 -20 -20 -10 12 14 20 12 21 14 11 -6 -6 13 15 15 7 -18 9 10 5 -5 -6 -11 6 -19 -20 -20 -20 -20 -20 -20 -20 -20 -20
-20 -20 -20 -20 -20 -20 -20 -19 -20 -18 3 4 6 20 23 16 23 20 14 -3 6 10 -4 -5 16 11 15 12 0 -7 -15 -16 -19 -20 -20 -20 -20 -20 -20 -20 -20 -20 -20
-20 -20 -20 -20 -20 -20 -19 -0 -2 -4 5 7 18 21 5 13 16 18 20 5 -14 -17 -20 -11 2 15 12 8 6 -7 -10 -12 -20 -20 -20 -20 -15 -11 -20 -20 -20 -20 -20
-20 -20 -20 8 29 22 -20 -20 -20 -20 -6 14 6 3 6 17 28 18 8 9 14 4 -4 3 6 13 9 10 6 1 -4 -12 -19 -3 -18 -19 -20 -20 -20 -20 -20 -20 -20
-20 -20 -9 28 22 -20 -15 -20 -17 -8 12 20 18 21 24 23 -6 12 8 8 8 -3 -11 7 9 8 -2 -16 -10 -19 -14 3 -5 -15 -20 -19 -20 -20 -20 -20 -20 -20 -20
-12 -14 -13 -19 -5 12 11 0 10 17 17 18 22 18 -20 -20 -17 -10 2 3 6 -1 -1 -15 -15 1 -8 -19 -7 -9 -20 -20 -20 -20 -20 -20 -20 -20 -20 -20 -20 -20 -20
-20 -20 -20 -16 1 -19 -13 2 6 14 18 10 -15 -20 -20 -20 -19 -5 -11 -18 -9 4 11 2 -8 3 2 -9 -8 -20 -20 -20 -20 -20 -20 -20 -20 -20 -20 -20 -20 -20 -20
-20 -20 -15 7 -1 -18 -19 -13 5 -3 -18 -20 -10 -10 -7 4 12 15 12 8 5 8 7 2 -10 -16 -18 -20 -20 -20 -20 -20 -14 -20 -20 -20 -20 -20 -20 -20 -20 -20 -20
-19 -4 6 -10 -20 -20 -20 -20 -16 13 14 15 11 5 2 5 7 8 10 6 -6 -6 -10 -20 -19 -8 1 0 -13 -20 -20 -20 -20 -20 -20 -20 -20 -20 -20 -20 -20 -20 -20
11 27 36 25 19 20 18 12 13 15 10 3 3 1 3 4 2 4 -13 -10 0 -2 -5 -15 -20 -20 -14 -17 -20 -20 -20 -20 -20 -20 -20 -20 -8 -3 -4 -17 -20 -5 -6
35 28 28 27 25 20 12 6 6 3 -9 -8 -1 -2 3 7 9 6 -2 -15 -5 -4 -4 -4 -12 -20 -20 -20 -8 -20 -20 -20 -20 -20 -20 -16 -2 1 -2 -4 -3 -2 -2
25 21 21 16 11 12 14 13 12 7 1 -4 -17 -20 -20 -20 -20 -20 -20 -20 -20 -11 -3 -2 -3 -20 -7 -20 -20 -6 -6 -20 -13 -14 -14 -1 3 3 3 2 2 4 2
16 9 9 8 7 5 9 9 6 1 -3 -20 -20 -12 -20 -20 -2 -3 -3 -2 -1 -2 -2 -2 -1 -0 -1 -0 -3 0 -19 -8 -20 -20 -2 1 3 3 2 4 4 4 3
-16 -9 -1 3 1 -8 -19 -20 -20 -20 -20 -20 -20 -20 -20 -20 -20 -20 -20 -3 -1 -6 -8 -20 -20 -20 -8 -20 -20 -10 -20 -20 -17 -3 1 1 3 3 3 4 4 4 4
-20 -20 -20 -20 -20 -20 -20 -20 -20 -20 -20 -20 -20 -20 -20 -20 -20 -20 -20 -20 -20 -20 -20 -20 -20 -20 -20 -20 -20 -20 -11 -11 -1 1 2 2 2 3 3 3 3 3 2
-20 -20 -20 -20 -20 -20 -20 -20 -20 -20 -20 -20 -20 -20 -20 -20 -20 -20 -20 -20 -20 -20 -20 -20 -20 -20 -20 -20 -20 -20 -20 -3 0 2 1 2 -0 -2 1 1 0 -1 2
-20 -20 -20 -20 -20 -20 -20 -20 -20 -20 -20 -20 -20 -2 -4 -20 -20 -20 -20 -20 -20 -20 -20 -20 -20 -20 -20 -20 -20 -20 -20 -19 -3 -20 -20 -2 -1 -3 -1 -1 -2 2 0
-20 -20 -20 -20 -20 -20 -20 -20 -20 -20 -20 -20 -20 -20 -20 -20 -20 -20 -20 -20 -20 -20 -20 -20 -20 -20 -20 -20 -20 -20 -20 -20 -20 -20 -20 -3 -3 -3 -2 -2 -4 0 -1

GFSGL_prec_radar_054.txt.gz
Reflectivity
-20 -20 -20 -20 -20 -20 -20 -20 -20 -20 -20 -20 -20 -20 -20 -20 -20 -20 -20 -20 -20 -20 -0 -2 -20 -1 10 -19 12 32 31 32 32 24 11 22 -6 8 -10 12 26 -20 -20
-20 -20 -20 -20 -20 -20 -20 -20 -20 -20 -20 -20 -20 -20 -20 -20 -20 -20 -20 -20 -20 -20 -12 3 -20 -16 27 29 34 27 16 22 17 14 21 -4 -18 1 8 16 -20 -20 -20
-20 -20 -20 -20 -20 -20 -20 -20 -20 -20 -20 -20 -20 -20 -20 -20 -20 -20 -20 2 7 -20 -3 -10 -20 26 5 17 19 19 19 22 14 15 -5 -7 -19 15 -18 7 3 -20 -20
-20 -20 -20 -20 -20 -20 7 -20 -20 -20 -20 -20 -20 -20 -20 -20 -20 -20 -20 -20 2 -20 -20 -16 16 -20 -20 -9 -11 16 14 6 -2 5 13 21 -2 -2 -1 -1 -20 -20 -20
-20 -20 -20 -20 -20 -20 -20 16 -20 -20 -20 -20 -20 -20 -20 -20 -20 -20 -20 -20 -12 -20 5 -20 -20 -19 -20 -7 -14 3 5 9 -6 20 8 -5 -8 -20 -20 -20 -20 -20 -20
-20 -20 -20 -20 -20 -20 -20 -20 -20 -20 -20 -20 -20 -20 -20 -20 -20 -20 -7 14 -1 -20 -14 -20 11 18 -20 -19 14 11 20 3 1 -20 -20 -20 -19 -20 -20 -20 -20 -20 -20
-20 -20 -20 -20 -20 -20 -20 -20 -20 -20 -20 -20 -20 -20 -14 -17 5 11 15 -1 -11 14 2 -8 8 5 3 15 11 24 19 14 5 -20 -20 -20 -20 -15 -18 -17 -20 -20 -20
-20 -20 -20 -20 -20 -20 -20 -20 -20 -20 -20 -20 -18 -8 -8 9 16 21 17 5 -14 -11 12 4 6 5 21 14 19 15 7 -3 -14 -10 -14 -20 -15 -17 -17 -20 -20 -20 -20
-20 -20 -20 -20 -20 -20 -20 -20 -20 -20 -20 -20 -20 -20 -20 22 22 18 17 -9 9 4 6 -4 15 19 26 27 35 -0 -9 -14 9 5 1 0 -6 -17 -20 -20 -20 -20 -19
-20 -20 -20 -20 -20 -20 -20 -20 -20 -20 -20 -20 -19 -9 19 4 23 17 16 -2 -1 4 4 19 28 19 29 20 7 0 2 -8 -13 -15 -12 -3 -17 -20 -20 -20 -8 -5 -20
-20 -20 -20 -20 -19 -20 -20 -20 -20 -16 -20 -11 -6 9 4 8 13 16 18 11 7 20 22 18 18 28 26 9 8 -7 -3 -8 -5 -18 -19 -20 -20 -20 -14 -11 -20 -20 -20
-9 -19 -20 -20 -20 -20 -20 -20 -11 19 10 -8 -8 -14 -14 -7 18 17 18 26 32 22 22 21 18 20 11 9 8 7 1 -4 -17 -13 -19 -19 5 -12 -20 -20 -20 -20 -20
-20 -20 -20 -20 -20 -20 -19 26 -12 9 16 -18 -7 -1 -3 0 10 22 24 27 26 30 31 19 16 10 7 3 -3 4 8 7 5 11 8 -12 -19 -14 -20 -20 -20 -20 -20
-20 -20 -20 -15 -4 21 20 15 -11 -18 -11 7 11 2 11 12 12 19 27 28 19 -0 9 1 -7 -6 -2 1 10 12 9 1 -9 -7 -8 -4 -12 -20 -20 -20 -20 -20 -20
14 14 14 23 8 13 11 1 -4 1 18 10 11 5 11 13 15 17 14 8 -14 -0 3 2 7 6 -7 -18 -4 -6 -15 -10 -15 -13 -2 -3 -20 -20 -20 -20 -20 -20 -20
27 25 19 5 -1 -10 -19 -0 14 21 26 26 17 9 5 8 6 10 10 5 6 6 9 4 0 -8 -4 -8 1 2 -6 -8 -4 -5 -2 -3 -11 -20 -20 -20 -20 -20 -20
23 21 12 11 -4 14 25 30 25 16 9 4 8 10 11 12 14 12 9 9 7 2 3 5 4 4 2 -18 -4 -3 -1 0 -14 -1 -2 -2 -2 -5 -9 -20 -20 -20 -20
35 31 23 25 25 24 22 25 26 26 22 17 17 15 16 16 16 16 9 -1 -2 -16 -3 0 2 1 -2 -3 -5 -4 -1 0 1 -0 -1 1 2 1 2 -6 -20 -15 -20
32 32 27 28 28 27 26 25 23 18 12 13 13 15 14 11 7 -1 -12 -1 -1 -4 -12 -2 -1 -2 -1 -2 3 3 3 3 2 4 3 -8 -8 -8 4 -14 -17 -14 -10
18 21 22 23 23 22 21 20 17 15 15 12 10 9 7 6 -0 0 1 1 0 -1 -0 -2 -2 -1 1 1 2 3 2 1 1 -0 0 1 -16 -15 -11 -8 -10 -14 2
17 18 20 19 15 9 2 -3 -1 -17 -20 -4 1 -4 -20 -5 -1 -1 1 -0 0 -1 1 -1 -0 -0 -0 0 -2 2 -0 2 1 1 -1 3 3 -20 3 -20 -20 -20 -20
-13 -2 2 0 -6 -15 -9 -5 -4 -4 -3 -1 -2 -20 -20 -0 -3 -2 -1 2 2 -2 -9 -4 -1 0 -3 -1 -1 1 1 1 2 2 4 2 -1 3 4 1 -20 -19 -20
-20 -14 -20 -12 -12 -3 -2 -1 1 0 0 1 -2 -2 -3 1 -1 -1 1 3 0 1 -0 -18 -7 -6 -4 -2 -0 1 2 1 2 3 3 4 3 3 -10 4 -10 -5 -12
-20 -20 -20 -20 -20 -19 -3 -1 -20 -19 -17 -0 2 1 1 1 2 0 1 1 -4 -0 -1 -0 -3 -5 -18 -5 0 -0 -2 -1 -0 -1 1 3 2 2 4 4 -0 0 2
-20 -20 -20 -20 -20 -20 -20 -20 -17 -4 -3 -1 1 1 -1 0 -1 1 1 -1 -5 -3 -2 -5 -1 -3 -4 -20 -20 -10 -7 -20 -6 -20 -4 -0 1 1 2 3 4 5 -2
-20 -20 -20 -20 -20 -20 -20 -20 -20 -15 -4 -1 0 1 1 -2 -2 -2 -3 -5 -10 -20 -10 -3 -3 -20 -20 -20 -20 -20 -20 -20 -17 -20 -4 -1 1 2 3 3 0 2 -0

GFSGL_prec_radar_057.txt.gz
Reflectivity
-20 -20 -14 1 -2 -16 2 -4 -20 -20 -20 -20 -20 -20 -20 -20 -20 -20 -20 -20 -20 -20 -20 -18 -11 12 11 -8 -13 -20 -20 -20 2 2 -19 -17 -3 -2 25 31 21 -5 -13
-20 -20 -20 -20 -19 -19 -20 -5 -17 -20 -20 -20 -20 -20 -20 -20 -20 -20 -20 -20 -20 -20 -20 11 -20 -20 18 -10 2 -20 -19 29 21 14 -2 6 7 0 34 -19 7 -19 -20
-20 -20 -20 -20 -20 -20 -20 -20 -18 -20 -20 -20 -20 -20 -20 -20 -20 -20 -20 -11 -4 -16 -20 -3 11 -14 4 -7 -20 -15 -6 -18 9 13 27 11 24 -16 13 4 2 -3 -14
-20 -20 -20 -20 -20 -20 -20 -20 -20 -20 -20 -20 -20 -20 -20 -20 -20 -20 -20 -20 -20 -16 -3 -20 -20 25 12 -18 -14 17 -20 -20 -20 7 17 10 5 7 -3 3 -17 -1 1
-20 -20 -20 -20 -20 -20 -20 -20 -20 -20 -20 -20 -20 -20 -20 -20 -20 -20 -20 -20 -20 -20 -20 13 -11 21 -20 12 17 17 -20 -20 -20 12 2 26 -2 16 22 -10 6 -3 -19
-20 -20 -20 -20 -20 -20 -20 -20 -20 -20 -20 -20 -20 -20 -20 -20 -20 -20 -20 -20 -20 -20 -8 8 6 3 4 20 22 12 0 -20 -20 -16 -9 27 21 19 -20 -20 -20 -20 -20
-20 -20 -20 -20 -20 -20 -20 -20 -20 -20 -20 -20 -20 -20 -20 -20 -20 -20 -14 -14 1 9 -1 -5 11 -3 15 22 25 13 19 18 16 14 33 28 8 -2 -20 -20 -19 -18 -20
-20 -20 -20 -20 -20 -20 -20 -20 -20 -20 -20 -20 -20 -20 -20 -20 -20 -20 4 -2 2 -9 -10 3 8 3 14 24 24 30 32 11 13 33 26 40 29 -11 -20 -17 -15 -13 -18
-20 -20 -20 -20 -20 -20 -20 -20 -20 -20 -20 -20 -20 -2 -20 -20 9 7 4 -9 9 14 9 17 21 19 27 11 12 31 22 28 35 26 17 18 14 8 4 -15 -11 -1 -20
-20 -20 -20 -20 -20 -20 -20 -20 -20 -20 -20 -20 -20 -20 -10 -16 18 15 19 7 23 24 23 26 29 23 29 20 1 19 4 9 20 27 20 6 6 2 3 -3 -7 -18 -12
-20 -20 -20 -20 -20 -20 -20 -20 -20 -20 -20 -20 -20 -20 -20 -1 16 20 14 11 14 17 20 21 22 29 28 26 26 10 15 18 18 13 19 18 -4 -8 -17 -5 6 -1 7
-20 -20 -20 -20 -20 -20 -20 -20 15 17 -9 -6 15 12 10 6 9 20 22 19 25 20 18 21 23 25 21 26 22 21 14 19 21 2 3 5 8 -6 -18 -20 -18 -20 -20
-20 -20 -20 -20 -20 -20 -20 -20 -20 -20 -20 12 15 5 13 25 26 19 22 18 15 15 2 16 19 20 21 27 28 26 20 -5 -3 -2 -16 -7 -7 -6 -17 -20 -20 -20 -20
-20 -10 -0 4 1 -4 -15 -6 -2 12 21 20 19 30 12 17 -1 2 15 24 23 14 11 15 22 26 26 25 17 11 6 -3 -2 7 8 6 5 1 -4 -20 -20 -20 -20
21 14 10 11 11 17 14 21 23 21 26 24 25 14 20 31 21 13 16 17 17 20 15 20 21 19 14 -2 -9 4 11 9 8 8 5 -2 -11 -15 -9 -20 -20 -20 -18
24 25 23 18 26 26 19 12 23 26 21 28 27 23 22 24 26 25 27 27 26 21 18 14 11 3 3 3 5 4 0 -2 -12 -20 -7 -5 -3 -1 -1 -4 -18 -3 4
28 29 16 24 31 27 25 22 19 22 20 20 21 24 27 28 27 21 21 20 19 17 14 14 13 11 8 2 -5 -6 -2 0 -20 -1 -2 0 1 -0 -3 -1 -1 1 -13
31 23 23 23 22 34 37 24 24 24 24 27 27 26 24 19 14 14 14 11 11 13 12 6 4 -9 -14 -20 -20 -20 -7 -5 2 -7 -5 2 2 4 3 4 1 7 5
32 29 28 28 30 36 35 28 26 25 25 24 21 17 11 11 11 7 10 12 11 8 3 0 -5 -15 -13 -4 2 4 1 2 -1 2 1 3 3 3 4 3 4 -7 2
26 27 26 25 26 25 22 18 17 17 9 10 10 11 8 -0 1 1 -1 -1 3 -0 -3 -19 -9 -3 -2 -2 -1 -2 0 -2 -3 -2 -1 1 5 5 4 4 5 -14 5
22 22 18 13 8 5 5 1 -2 -3 1 2 4 2 -3 -5 -1 -2 -3 -8 -5 -5 -1 -5 -2 -2 -3 -3 -5 -0 -1 1 1 1 1 1 2 3 3 6 5 3 -2
12 12 12 9 3 -2 0 -1 -1 -0 -0 -2 -9 -10 -8 -9 -20 -14 -3 0 1 -2 -5 -2 -1 -2 -2 -0 0 2 0 0 0 0 0 -1 -2 0 3 3 4 5 5
-6 -5 -5 -3 -5 -15 -11 -2 -4 -4 -3 -7 -20 -11 -6 -2 -3 -1 -0 1 0 1 0 0 0 -2 -1 -1 -0 -1 -1 -1 -1 -1 -1 -1 -1 1 1 2 3 7 7
-20 -20 -20 -20 -20 -19 -5 -5 -20 -20 -18 -2 -0 -1 1 1 2 1 2 1 0 1 1 -1 -2 -5 -20 -7 -2 -3 -6 -6 -4 -4 -3 1 -1 -2 1 1 2 2 7
-20 -20 -20 -5 -4 -2 -2 -3 -2 -2 -0 1 2 1 1 1 1 2 2 -1 -4 -3 -4 -4 -1 -4 -5 -20 -20 -8 -4 -20 -20 -20 -17 -3 -1 -1 -1 2 3 5 8
-20 -20 -6 -3 -2 -1 -0 -0 0 -0 0 2 2 2 0 -2 0 -0 -2 -3 -20 -20 -6 -3 -5 -7 -20 -13 -6 -20 -20 -20 -20 -20 -6 -3 -2 -1 1 4 0 0 5

GFSGL_prec_radar_060.txt.gz
Reflectivity
-20 -20 -15 -8 -17 -12 -20 -20 -20 -20 -20 -20 -20 -20 -20 -8 -9 -20 -20 -20 -20 -20 -20 -5 -20 14 -20 -8 -14 9 1 -8 -20 -20 -20 -20 -20 -20 -20 -19 -15 -7 16
-20 -20 -20 -6 10 -20 -20 -20 -20 -20 -20 -20 -20 -20 -20 -20 -20 -20 -20 -20 -20 -20 -20 -19 -20 -8 -20 -19 16 12 10 8 -20 -20 -20 -20 -20 -14 19 -20 9 8 -20
-20 -20 -20 -20 -20 -20 -20 -20 -20 -20 -20 -20 -20 -20 -20 -20 -20 -20 -20 -20 -20 -20 -20 -20 -20 -20 -20 -20 -20 23 18 23 22 -20 -20 -20 -20 -20 6 -20 22 4 -20
-20 -20 -20 -20 -20 -20 -20 -20 -20 -20 -20 -20 -20 -20 -20 -20 -20 -20 -20 -20 -20 -20 -20 -20 -20 -20 -20 -20 -13 5 11 17 6 -19 1 -6 -20 -20 -20 -17 13 16 3
30 -20 -20 -20 -20 -20 -20 -20 -20 -20 -20 -20 -20 -20 -20 -20 -20 -20 -20 -20 -20 -20 -20 -20 -20 -20 -20 -20 12 14 -18 2 13 30 23 12 -20 -20 -19 -14 15 8 32
-20 -20 -20 -20 -20 -20 -20 -20 -20 -20 -20 -20 -20 -20 -20 -20 -20 -20 -20 -20 -20 -20 -20 -20 -20 -20 -20 -20 -20 -20 4 32 14 12 40 -0 -20 -20 -19 13 20 34 23
-20 -20 -20 -20 -20 -20 -20 -20 -20 -20 -20 -20 -20 -20 -20 -19 -20 -20 -20 -20 -20 -20 -20 -20 -20 -20 -8 -20 9 15 18 21 23 9 7 21 30 28 16 35 31 24 28
-20 -20 -20 -20 -20 -20 -20 -20 -20 -20 -20 -20 -20 -20 -7 -20 -20 -13 -7 -13 -20 -20 -6 6 9 -20 -20 -20 -16 -18 -0 23 21 16 23 26 28 30 19 30 18 17 13
-20 -20 -20 -20 -20 -20 -20 -20 -20 -20 -20 -20 -20 -20 -20 -20 5 -20 -10 -20 -11 -3 -16 -15 -1 11 20 21 20 15 14 27 36 39 33 25 27 27 16 8 13 7 6
-20 -20 -20 -20 -20 -20 -20 -20 -20 -20 -20 -20 -20 -20 6 -18 2 13 9 -20 -5 -20 -18 -5 23 18 26 15 16 9 15 20 17 26 28 17 17 16 17 18 9 10 14
-20 -20 -20 -20 -20 -20 -20 -20 -20 -20 -20 -20 -20 14 18 15 18 21 23 13 10 7 20 21 17 32 28 28 33 27 32 20 26 28 26 25 26 27 24 21 10 1 -4
-20 -20 -20 -20 -20 -20 -20 -20 0 -20 -20 -1 -20 -10 0 9 19 19 19 25 30 14 8 16 25 20 14 19 22 18 23 26 22 23 22 20 21 21 20 20 12 11 3
-20 -20 -20 -20 -20 -20 -20 -17 -20 -20 -9 8 10 5 3 3 16 26 17 29 26 22 24 37 34 35 26 21 19 19 20 22 23 23 24 23 19 18 15 12 8 -2 -20
-17 17 18 12 -2 -20 -9 21 19 -3 7 16 23 27 27 16 24 18 19 24 20 30 41 24 21 21 21 20 19 19 16 18 19 19 19 15 13 7 -2 0 -9 -20 -20
-7 14 16 17 14 16 18 16 11 20 19 22 25 35 24 21 27 32 29 32 29 28 22 21 23 25 25 24 20 16 20 20 18 16 14 13 8 3 -6 -18 -20 -20 -20
6 11 17 11 18 20 21 16 27 26 27 24 27 31 26 29 34 28 24 31 35 34 23 20 24 23 21 19 17 13 13 11 9 3 -8 -19 -20 -20 -20 -20 -20 -0 2
13 18 17 16 21 28 23 20 21 22 29 28 30 25 25 24 24 24 24 25 25 23 19 18 18 19 18 15 4 -3 -3 -20 -20 -20 -20 -20 -20 -20 -20 -20 -20 -20 -20
20 23 24 20 21 25 26 28 28 26 28 33 32 30 29 31 34 33 30 27 23 14 12 11 9 -5 -1 -19 -20 -20 -20 -20 -20 -20 -20 -20 -20 -20 -20 -17 -20 -20 -20
16 22 24 28 29 34 33 30 28 31 33 32 33 33 31 28 21 19 19 13 4 -5 -8 -9 -14 -20 -20 -20 -20 -20 -20 -20 -20 -20 -20 -20 -20 -20 -20 -20 -20 -20 -20
10 12 18 21 22 21 21 19 20 21 21 21 21 20 22 21 20 17 7 -3 -12 -17 -9 -20 -20 -20 -20 -20 -20 -20 -20 -20 -20 -20 -20 -20 -20 -20 -20 -20 -20 -6 -18
8 13 18 20 21 22 21 20 20 19 15 10 2 -2 -7 0 10 4 -20 -20 -20 -20 -20 -20 -20 -20 -20 -20 -20 -20 -20 -20 -20 -20 -20 -20 -20 -20 -20 -20 -20 -20 -9
5 0 -12 -20 -20 -19 -4 3 13 15 14 12 4 1 -11 -16 -20 -20 -17 -20 -20 -20 -20 -20 -20 -20 -20 -20 -20 -20 -20 -20 -20 -20 -20 -20 -20 -20 -2 -20 -20 -20 -19
-17 -20 -13 -7 -20 -20 -20 -20 -4 -16 -16 -12 -2 -1 -13 -20 -15 -18 -20 -20 -13 -20 -20 -20 -20 -20 -20 -20 -20 -20 -20 -20 -20 -20 -20 -20 -20 -16 -20 -20 -4 -19 -20
-20 -14 -20 -20 -20 -18 -13 -18 -20 -20 -18 -7 -10 -20 -8 -3 3 -20 -20 -20 -20 -12 -20 -20 -7 -20 -20 -20 -20 -20 -20 -20 -20 -20 -20 -20 -20 -20 -20 -19 -20 -20 -20
-20 -20 -19 -4 -6 -4 -13 -19 -20 -19 -20 -20 -20 -20 -20 -12 -20 -19 -20 -20 -20 -20 -20 -20 -20 -20 -20 -20 -20 -20 -20 -20 -20 -20 -20 -20 -20 -20 -20 -20 -20 -6 -20
-20 -20 -17 -20 -20 -18 -9 -16 -17 -20 -20 -13 -20 -20 -20 -20 -20 -17 -20 -20 -20 -20 -20 -20 -20 -20 -20 -20 -20 -20 -20 -20 -20 -20 -20 -20 -20 -20 -15 -12 -20 -20 -20

GFSGL_prec_radar_063.txt.gz
Reflectivity
-20 -20 -6 -20 -5 3 -19 -20 -20 -20 -20 -20 -20 -20 -20 -20 -20 -20 -20 -20 -20 -20 -20 -20 -20 -20 -20 -20 -20 -20 -20 -20 -20 -20 -20 -4 -18 -20 -20 -20 -20 -20 -14
-20 -20 -20 -6 -8 -20 -20 -20 -20 -20 -20 -20 -20 -20 -20 -20 -20 -20 -20 -20 -20 -20 -20 -20 -20 -20 -20 -20 -20 -20 -20 -20 -20 -20 -0 9 22 23 6 -12 -19 -20 -20
-20 -20 -20 -20 -20 -20 -20 -20 -20 -20 -20 -20 -20 -20 -20 -20 -20 -20 -20 -20 -20 -20 -20 -20 -20 -20 -20 -20 -20 -20 -20 -20 -20 16 -10 -20 1 6 23 -19 8 -20 -20
-20 -20 -20 -20 -20 -20 -20 5 0 -20 -20 -20 -20 -20 -20 -20 -20 -20 -20 -20 -20 -20 -20 -20 -20 -20 -20 -20 -20 -20 -20 -20 -20 13 23 -13 3 -8 14 16 -15 10 -20
-18 -20 -20 -20 -20 -20 -20 -20 -5 -15 -20 -20 -20 -20 -20 -20 -20 -20 -20 -20 -20 -20 -20 -20 -20 -20 -20 -20 -20 -20 -20 -20 -7 -7 -3 -2 17 23 0 7 26 -7 -20
-17 26 30 -20 -20 -20 -20 -20 -20 -20 -20 -20 -20 -20 -20 -20 -20 -20 -20 -20 -20 -20 -20 -20 -20 -20 -20 -20 -19 7 -6 -9 -7 14 5 -4 -14 14 -1 -15 26 19 27
-20 -17 -6 -20 -20 -20 -20 -20 -20 -20 -20 -20 -20 -20 -20 -20 -7 -4 -20 -20 -20 -20 -20 -20 -20 -20 -20 -13 10 10 22 20 2 17 5 16 -10 5 6 27 26 26 19
-20 -20 -20 -20 -20 -20 -20 -20 -20 -20 -20 -20 -20 -20 -17 -20 5 9 -5 -20 -20 -20 -17 -12 -8 -2 8 17 9 -1 -14 -19 -1 -6 24 34 35 22 24 24 26 30 29
-20 -20 -20 -20 -20 -20 -20 10 -20 -20 -20 -20 -20 -12 -4 -20 -20 -20 -19 -17 24 18 22 14 7 13 21 22 6 -20 -6 -3 27 27 31 26 27 27 30 26 20 27 36
-20 -20 -20 -20 -20 -20 -20 -20 17 -20 -20 22 -20 -20 10 -4 22 24 15 2 -10 -9 12 15 20 12 21 19 17 6 20 22 24 27 22 31 34 31 31 19 23 24 21
-20 -20 -20 -20 -20 -20 -20 -20 -20 -20 -20 -3 -19 8 17 14 20 20 23 11 20 20 15 5 15 27 20 21 20 17 29 29 27 35 34 13 9 10 15 18 14 10 12
-20 -20 -20 -20 -20 -20 -20 -20 -20 -20 -15 -20 24 8 -10 1 15 17 18 21 28 21 4 7 26 29 30 31 25 22 24 33 36 23 17 20 20 17 16 17 10 12 15
-20 -20 -20 -20 -20 -20 -17 -20 -20 20 13 -20 -6 11 -8 3 20 28 13 32 28 21 22 26 26 26 27 25 26 31 27 26 23 22 20 23 23 20 17 3 4 6 8
-20 -20 -20 -20 -20 -20 -15 -4 5 -2 -14 21 25 -12 19 17 15 10 12 9 20 28 29 31 28 22 27 28 30 30 26 27 27 26 22 16 2 -2 -4 -3 -3 -18 -20
-20 -20 -20 -18 -15 -9 5 8 7 16 20 22 26 25 33 28 33 24 25 27 30 34 38 37 37 39 31 34 35 34 33 21 20 20 18 13 5 -4 -11 -11 -18 -20 -20
-20 -20 -20 -18 -16 -2 3 13 20 17 18 19 22 21 32 37 33 30 34 34 29 34 33 28 31 37 35 30 24 25 24 21 15 13 9 2 4 7 -14 -20 -20 -20 -20
-20 -20 -20 -20 -20 -6 16 20 17 20 22 15 19 24 28 32 31 29 22 25 30 31 30 25 24 24 24 23 16 12 7 4 5 8 5 -9 -20 -20 -20 -20 -20 -20 -20
-20 -20 -19 -13 -11 -0 12 18 23 23 22 24 22 23 31 34 33 25 26 26 26 25 24 23 21 21 20 19 17 17 17 1 -9 -20 -20 -20 -20 -20 -20 -20 -20 -20 -20
-20 -17 -3 10 8 6 11 15 17 19 19 21 24 27 30 27 24 22 21 21 22 21 21 21 21 17 11 8 4 -4 -4 -13 -20 -20 -20 -20 -20 -20 -20 -20 -20 -20 -20
-19 -1 7 11 16 15 12 13 15 16 14 12 14 18 19 19 19 18 13 6 4 9 10 10 9 9 12 9 2 -13 -20 -20 -20 -20 -20 -20 -20 -20 -20 -20 -20 -20 -20
-13 -6 -4 5 9 8 2 -4 -4 1 9 12 10 9 6 9 10 5 -9 -20 -16 -15 -17 -20 -20 -20 -20 -20 -20 -20 -20 -20 -20 -20 -20 -20 -20 -20 -20 -20 -20 -20 -20
-20 -20 -20 -20 -20 -12 -12 -11 -9 -8 -18 -20 -19 -9 -1 -0 -2 -9 -16 -18 -18 -20 -20 -20 -20 -20 -20 -20 -20 -20 -20 -20 -20 -20 -20 -20 -20 -20 -20 -20 -20 -20 -20
-20 -20 -20 -20 -20 -20 -20 -20 -20 -20 -20 -20 -20 -20 -20 -20 -20 -20 -20 -19 -20 -20 -20 -20 -20 -20 -20 -20 -20 -20 -20 -20 -20 -20 -20 -20 -20 -20 -20 -20 -20 -20 -20
-20 -20 -20 -20 -20 -20 -20 -20 -20 -20 -20 -20 -20 -20 -20 -20 -20 -20 -20 -20 -20 -20 -20 -20 -20 -20 -20 -20 -20 -20 -20 -20 -20 -20 -20 -20 -20 -20 -20 -20 -20 -20 -20
-20 -20 -20 -20 -20 -20 -20 -20 -20 -20 -20 -20 -20 -20 -20 -20 -20 -20 -20 -20 -20 -20 -20 -20 -20 -20 -20 -20 -20 -20 -20 -20 -20 -20 -20 -20 -20 -20 -20 -20 -20 -20 -20
-20 -20 -20 -20 -20 -20 -20 -20 -20 -20 -20 -20 -20 -20 -20 -20 -20 -20 -20 -20 -20 -20 -20 -20 -20 -20 -20 -20 -20 -20 -20 -20 -20 -20 -20 -20 -20 -20 -20 -20 -20 -20 -20

GFSGL_prec_radar_066.txt.gz
Reflectivity
-20 -20 -20 -20 -20 -20 -20 -20 -20 -20 -20 -20 -20 -20 -20 -20 -20 -20 -20 -20 -20 -20 -20 -20 -20 2 8 -13 -16 -2 -12 -20 -20 -20 -20 -20 -20 -20 -20 -20 -6 18 8
21 -20 -20 -20 -20 -20 -20 8 -20 -20 -20 -20 -20 -20 -20 -20 -20 -20 -20 -20 -20 -19 -20 -20 -20 -20 -20 -20 -20 -20 -20 -20 -20 -20 -20 -20 -20 -20 -20 -20 -20 -20 8
-20 -20 -20 -20 -20 -20 -20 -20 -20 1 -19 -20 -20 -20 -20 -20 -20 -20 -20 -20 -20 -20 -20 -20 -20 -20 -20 -20 -20 -20 -20 -20 -20 -20 -20 -20 -20 -20 -20 -20 -20 -20 10
2 -20 -20 -20 -20 -13 -20 -20 -20 -20 -20 -20 -20 -20 -20 -20 -20 -20 -20 -20 -20 -20 -20 -20 -20 -20 -20 -20 -20 -20 -20 -20 -20 -20 -20 -19 -20 -20 -20 -20 -20 -11 -10
-19 -19 -13 21 -20 -20 7 -11 -20 -20 -20 -20 -8 3 -19 -20 -20 -20 -20 -20 -20 -20 -20 -20 -20 -20 -20 -20 -20 -20 -20 -20 -20 -20 -20 -15 -20 -20 -19 -12 -20 19 -0
-20 -20 -20 -20 26 -20 -15 26 -20 -20 -20 -20 -20 -9 3 -14 -20 -20 -20 -20 -20 -20 -20 -20 -20 -20 -20 -20 -20 -20 -20 -20 -20 -1 -20 -20 -11 -20 -20 -20 -20 -10 7
-20 -20 -20 -20 -20 -20 -13 13 -17 -7 -17 -20 -20 27 -13 -19 -5 -20 -20 -20 -20 -20 -20 -20 -20 -20 -20 -20 -20 -20 -16 9 -4 -17 -5 -13 -19 9 20 3 0 -20 3
-20 -20 -20 -20 -20 -20 -20 1 13 -8 -0 -0 -20 -20 -2 -20 -20 -20 -20 -0 -20 -20 -20 -20 -20 -20 -20 -20 -20 -17 -6 -16 -16 -20 -20 11 21 7 12 25 28 27 33
-20 -20 -20 -20 -20 -20 -20 -20 -20 -15 20 8 -20 20 -6 -20 19 -12 -15 6 28 -15 -20 -20 -20 -20 20 -11 3 -7 -4 8 20 24 21 20 21 21 14 5 17 20 22
-20 -20 -20 -20 -20 -20 -20 -20 -20 -20 -20 -17 12 -13 14 -6 23 26 -20 -19 -2 16 21 10 6 1 22 23 17 -8 4 8 19 -2 8 13 21 11 16 23 29 29 27
-20 -20 -20 -20 -20 -20 -20 -20 -20 -20 -20 -20 -20 -20 -20 5 -3 24 25 -2 -16 3 18 25 25 30 24 20 22 12 16 25 25 21 13 16 22 23 26 28 28 24 26
-20 -20 -20 -20 -20 -20 -20 -20 -20 -20 -20 -20 -20 4 19 17 32 26 25 16 26 25 22 24 34 34 34 37 30 28 29 27 16 18 21 23 24 25 25 27 27 25 19
-20 -20 -20 -20 -20 -20 -20 -20 -20 -1 11 8 13 10 19 19 22 29 29 28 19 25 37 33 34 21 25 22 27 30 30 26 23 23 23 29 31 28 27 27 26 24 21
-20 -20 -20 -20 -20 -20 -20 -20 -20 -20 1 4 11 4 5 23 22 22 26 17 25 21 28 36 35 42 28 26 26 33 38 39 27 25 26 26 26 27 28 27 26 24 15
-20 -20 -20 -20 -20 -20 -18 4 0 8 -3 1 8 12 14 15 21 23 27 30 33 28 30 32 33 29 34 34 27 31 30 30 35 35 31 24 24 23 21 18 17 10 -16
-20 -20 -20 -20 -20 -20 -20 -20 -17 3 7 9 13 12 20 21 22 27 30 31 28 31 25 25 26 28 28 27 26 24 22 22 22 22 21 18 17 15 11 10 7 2 3
-20 -20 -20 -20 -20 -20 -20 -20 -20 -9 -8 3 14 18 20 24 25 26 25 24 24 26 25 24 20 22 22 21 17 17 19 18 18 18 12 3 2 4 6 4 3 2 -4
-20 -20 -20 -20 -20 -20 -20 -20 -19 -3 5 7 14 20 22 23 22 18 17 14 16 16 15 14 16 16 16 16 15 13 9 9 8 7 1 4 8 9 8 5 2 -5 -20
-20 -20 -20 -20 -20 -20 -16 -2 3 5 9 6 8 12 15 17 18 18 19 20 20 19 17 15 10 7 5 8 8 8 8 7 3 -0 -6 -11 -15 -18 -20 -18 -20 -20 -20
-20 -20 -20 -20 -20 -20 -20 -15 1 6 6 7 7 9 9 9 8 10 11 13 14 12 6 4 4 2 1 -2 -4 -7 -16 -16 -18 -18 -20 -20 -20 -20 -20 -20 -20 -20 -20
-20 -20 -20 -20 -20 -20 -20 -20 -20 -20 -20 -20 -16 -6 -1 -1 -1 -2 2 5 4 -1 1 -1 -0 -4 -8 -12 -20 -20 -20 -20 -20 -20 -20 -20 -20 -20 -20 -20 -20 -20 -20
-20 -20 -20 -20 -20 -20 -20 -20 -20 -20 -20 -20 -20 -20 -20 -20 -20 -20 -20 -20 -20 -20 -20 -20 -20 -20 -20 -20 -20 -20 -20 -20 -20 -20 -20 -20 -20 -20 -20 -20 -20 -20 -20
-20 -20 -20 -20 -20 -20 -20 -20 -20 -20 -20 -20 -20 -20 -20 -20 -20 -20 -20 -20 -20 -20 -20 -20 -20 -20 -20 -20 -20 -20 -20 -20 -20 -20 -20 -20 -20 -20 -20 -20 -20 -20 -20
-20 -20 -20 -20 -20 -20 -20 -20 -20 -20 -20 -20 -20 -20 -20 -20 -20 -20 -20 -20 -20 -20 -20 -20 -20 -20 -20 -20 -20 -20 -20 -20 -20 -20 -20 -20 -20 -20 -20 -20 -20 -20 -20
-20 -20 -20 -20 -20 -20 -20 -20 -20 -20 -20 -20 -20 -20 -20 -20 -20 -20 -20 -20 -20 -20 -20 -20 -20 -20 -20 -20 -20 -20 -20 -20 -20 -20 -20 -20 -20 -20 -20 -20 -20 -20 -20
-20 -20 -20 -20 -20 -20 -20 -20 -20 -20 -20 -20 -20 -20 -20 -20 -20 -20 -20 -20 -20 -20 -20 -20 -20 -20 -20 -20 -20 -20 -20 -20 -20 -20 -20 -20 -20 -20 -20 -20 -20 -20 -20

GFSGL_prec_radar_069.txt.gz
Reflectivity
-20 -20 -20 -20 -20 -20 -20 -20 -20 -20 -20 -20 -20 -20 -20 -19 -20 -17 -14 -16 -20 -20 2 -4 -20 -20 -20 -20 -20 -20 -20 12 15 -20 -20 -20 -20 -20 -20 -20 -20 -20 -20
-20 -20 -20 -20 -20 -20 -20 -20 -20 -20 -20 -20 -20 -20 -20 -19 -3 -16 -20 -20 -20 -20 -20 -20 -20 -20 -20 -20 -9 6 12 6 12 6 -20 -20 -20 -20 -20 -20 -20 -20 -20
-8 -20 -20 -20 -20 -20 -20 -20 -20 -20 -20 -20 -20 -20 -20 -20 -20 -20 -20 -20 -12 -20 -20 -20 -20 -20 -20 -20 -20 -20 -7 -15 -1 -1 -20 -20 -20 -20 -20 -20 -20 -20 -20
-8 -5 -12 -17 -20 -16 -20 -20 -20 -20 -20 -20 -20 -20 -20 -20 -20 -20 -20 -20 -20 -20 -20 -20 -20 -20 -20 -20 -20 -20 -20 -10 -12 -20 -17 -19 -20 -20 -20 -20 -20 -20 -20
-20 -20 -20 -20 -19 15 25 -20 -20 -20 -20 -20 -20 -20 -20 -20 -20 -20 -20 -20 -20 -20 -20 -20 -20 -20 -20 -20 -20 -20 -20 -20 -20 -20 -20 -20 -20 -20 -20 -20 -18 -18 -18
-20 -20 -20 -20 -8 10 12 -14 -6 11 27 28 -19 -20 -20 -20 2 6 -20 -20 -20 -20 -20 -20 -20 -20 -20 -20 -20 -20 -20 -20 -20 -20 -20 -20 -20 -20 -20 -20 -20 -20 -20
-20 -20 -20 -20 -7 -4 11 8 15 19 1 2 -3 -5 -20 -19 -20 -20 10 -7 -6 -20 -20 -20 -20 -20 -20 -20 -20 -20 -20 -20 -20 -15 -20 -20 -13 -20 -20 -17 -20 -20 -18
-20 -20 -20 -20 -20 -20 -20 -20 13 11 12 17 15 11 16 -6 2 -7 24 26 18 13 -20 -20 -20 -20 -20 -20 -20 -20 -20 -20 -20 -5 -11 -20 -20 -20 -20 -20 -14 6 17
-20 -20 -20 -20 -20 -20 -20 -20 -20 -20 -15 1 2 7 21 22 21 17 22 -2 -7 -11 23 20 17 -3 -20 2 -19 -20 -20 -20 -6 1 8 11 14 17 16 10 2 32 21
-20 -20 -20 -20 -20 -20 -20 -20 -20 -19 -20 -20 -20 -20 12 -2 20 11 7 -9 -7 2 3 23 27 18 12 11 7 9 7 -19 -19 -4 -4 17 24 24 22 20 22 31 6
-20 -20 -20 -20 -20 -20 -20 -20 -20 -20 -20 -20 -20 -8 10 23 11 16 13 -2 9 26 25 14 12 24 15 17 25 28 24 20 24 25 18 27 20 16 18 20 18 17 20
-20 -20 -20 -20 -20 -20 -20 -20 -20 -20 -20 -20 -20 -20 -11 3 24 21 18 13 16 19 35 31 33 31 8 12 26 35 35 35 33 28 32 29 28 26 28 30 32 25 22
-20 -20 -20 -20 -20 -20 -20 -20 -20 -20 -20 -20 -20 -20 -5 -10 11 19 12 11 15 19 19 26 27 28 22 22 29 23 29 36 42 38 27 28 27 27 32 34 31 28 27
-20 -20 -20 -20 -20 -20 -20 -20 -20 -20 -20 -20 -20 -20 -16 -4 3 -3 -2 9 20 10 22 24 24 30 28 32 33 25 15 23 30 33 30 26 34 36 32 28 28 25 25
-20 -20 -20 -20 -20 -20 -19 -19 -18 -20 -20 -20 -20 -20 -20 -12 12 9 5 7 12 16 17 23 24 22 17 21 30 33 28 20 21 22 22 21 23 23 23 22 21 19 7
-20 -20 -20 -20 -20 -20 -20 -20 -12 -20 -20 -20 -20 -20 -20 -10 -1 10 14 13 15 20 20 23 25 24 24 22 22 12 16 20 21 20 20 16 18 18 17 12 5 3 0
-20 -20 -20 -20 -20 -20 -20 -20 -20 -20 -20 -6 -1 -0 -7 -7 -17 -3 5 11 12 14 13 14 14 17 19 19 19 17 12 10 5 5 10 11 11 10 4 -3 -7 -15 -20
-20 -20 -20 -20 -20 -20 -20 -20 -20 -20 -20 -20 -15 -3 -1 -16 -19 -20 -14 -4 4 8 10 11 12 9 -1 -2 -7 -9 -9 -5 1 -1 0 4 3 1 -3 -20 -20 -20 -20
-20 -20 -20 -20 -20 -20 -20 -20 -20 -20 -20 -20 -20 -20 -18 -5 -2 3 1 -2 -2 -0 2 4 5 7 3 -5 -7 -8 -13 -13 -8 -9 -9 -10 -12 -14 -20 -20 -20 -20 -20
-20 -20 -20 -20 -20 -20 -20 -20 -20 -20 -20 -20 -20 -20 -20 -20 -20 -20 -18 -20 -7 -1 -3 -6 -8 -5 -2 -2 -6 -9 -9 -16 -18 -18 -18 -18 -19 -19 -20 -20 -20 -20 -20
-20 -20 -20 -20 -20 -20 -20 -20 -20 -20 -20 -20 -20 -20 -20 -20 -20 -20 -20 -19 -20 -20 -20 -14 -11 -11 -18 -20 -12 -20 -20 -20 -20 -20 -20 -20 -20 -20 -20 -20 -20 -20 -20
-20 -20 -20 -20 -20 -20 -20 -20 -20 -20 -20 -20 -20 -20 -20 -20 -20 -20 -20 -20 -20 -20 -20 -20 -20 -20 -20 -20 -20 -20 -20 -20 -20 -20 -20 -20 -20 -20 -20 -20 -20 -20 -20
-20 -20 -20 -20 -20 -20 -20 -20 -20 -20 -20 -20 -20 -20 -20 -20 -20 -20 -20 -20 -20 -20 -20 -20 -20 -20 -20 -20 -20 -20 -20 -20 -20 -20 -20 -20 -20 -20 -20 -20 -20 -20 -20
-20 -20 -20 -20 -20 -20 -20 -20 -20 -20 -20 -20 -20 -20 -20 -20 -20 -20 -20 -20 -20 -20 -20 -20 -20 -20 -20 -20 -20 -20 -20 -20 -20 -20 -20 -20 -20 -20 -20 -20 -20 -20 -20
-20 -20 -20 -20 -20 -20 -20 -20 -20 -20 -20 -20 -20 -20 -20 -20 -20 -20 -20 -20 -20 -20 -20 -20 -20 -20 -20 -20 -20 -20 -20 -20 -20 -20 -20 -20 -20 -20 -20 -20 -20 -20 -20
-20 -20 -20 -20 -20 -20 -20 -20 -20 -20 -20 -20 -20 -20 -20 -20 -20 -20 -20 -20 -20 -20 -20 -20 -20 -20 -20 -20 -20 -20 -20 -20 -20 -20 -20 -20 -20 -20 -20 -20 -20 -20 -20

GFSGL_prec_radar_072.txt.gz
Reflectivity
-20 -20 -20 -20 -20 -20 -20 -20 -10 11 -7 -20 -20 -20 -20 -20 -15 20 25 17 13 18 -2 22 19 16 31 20 5 -20 -20 -20 -14 -20 -20 -12 -20 -20 -20 -20 -20 -20 -20
-20 2 -20 -20 -20 -20 -20 -20 -20 -20 -20 -20 -20 -20 -20 -20 -20 -20 -20 16 -9 -2 9 -4 -19 -18 -20 -20 -20 -20 -20 -20 4 -20 -20 -20 -20 -20 -20 -20 -20 -20 -20
-20 3 8 -8 -18 -20 -20 -20 -20 -20 -20 -20 -20 -20 -20 -20 -20 -20 -20 -20 -20 -20 -20 -20 -20 -20 -20 -20 -7 -16 -20 -20 -3 5 -16 -20 -20 -20 -20 -20 -20 -20 -20
5 -20 -20 -20 -20 -17 -4 -19 -20 -20 -20 -20 -20 -20 -20 -20 -20 -20 -20 -20 -20 -20 -10 -10 -0 -20 -20 -20 -20 -20 -20 -20 -20 -20 -20 -20 -20 -20 -20 -20 -20 -20 -20
-10 -20 -9 1 -17 -20 -20 -15 5 -10 -0 2 -9 -20 -20 -20 -20 -20 -20 -20 -20 -20 -20 -20 -20 -20 -20 -20 -20 -20 -20 -20 -20 -20 -20 -20 -20 -20 -20 -20 -20 -20 -20
-0 -2 0 7 11 15 -2 -1 1 -3 8 14 26 8 18 7 11 -14 -20 -20 -20 -20 -20 -20 -20 -20 -20 -20 -20 -20 -20 -20 -20 -20 -20 -20 -20 -20 -20 -20 -15 -20 -20
-20 -20 -20 -20 -17 1 12 12 9 17 17 12 16 20 18 15 25 19 20 14 18 7 -9 -20 -20 -20 -17 -20 -20 -20 -20 -20 -20 -20 -20 -20 -20 -20 -20 -20 -20 -12 -18
-20 -20 -20 -20 -20 -20 -20 -20 -20 -20 -13 4 16 13 18 23 20 14 15 10 -2 -15 -0 17 11 14 7 12 -20 -20 -20 -20 -19 -20 -20 -20 8 15 18 17 20 24 7
-20 -20 -20 -20 -20 -20 -20 -20 -20 -20 -20 -17 -20 -20 -20 -19 11 0 3 -18 -15 -13 -17 20 20 20 16 17 18 22 17 19 27 23 24 29 22 7 0 -1 7 27 26
-20 -20 -20 -20 -20 -20 -20 -20 -20 -20 -10 -20 -20 -20 11 -20 14 7 0 -20 -20 1 26 27 29 19 13 0 15 18 22 30 25 25 10 23 23 16 18 19 14 15 34
-10 -9 -16 -20 -20 -20 -20 -20 -20 -20 -20 -20 -20 -20 -20 -20 -18 -0 6 -20 -20 -18 7 20 24 30 13 13 24 18 24 31 30 22 21 31 24 30 34 41 30 31 32
-16 -20 -20 -20 -20 -20 -20 -20 -20 -20 -20 -20 -20 -20 -20 -20 -14 -13 -20 -20 0 -18 -13 0 12 20 13 18 21 20 28 32 36 28 34 22 25 34 37 23 23 25 26
-8 -20 -20 -20 -20 -20 -20 -20 -20 -20 -20 -20 -20 -20 -20 -20 -20 -20 -7 -20 -17 -18 -11 9 9 6 11 14 9 16 19 20 26 31 28 32 34 28 26 27 27 23 17
-20 -20 -20 -20 -20 -20 -20 -20 -20 -20 -20 -20 -20 -20 -20 -20 -20 -20 -20 -20 -20 -20 -20 -5 2 -1 1 4 6 7 17 24 26 27 19 20 21 21 22 21 18 12 0
-20 -20 -20 -20 -20 -20 -18 -18 -19 -12 -11 -20 -20 -15 -20 -20 -2 -14 -14 -20 -20 -20 -20 -20 -20 -17 -3 5 6 5 5 8 12 17 17 16 15 15 13 15 14 0 -1
-20 -20 -20 -20 -20 -20 -20 -19 1 0 4 5 -6 -20 -15 -5 -15 -5 -7 -20 -20 -18 -20 -20 -20 -16 -14 -4 7 13 12 12 16 17 19 17 8 2 5 4 2 2 1
-20 -20 -20 -20 -20 -20 -20 -20 -20 -20 -19 -6 0 -2 -10 3 -20 -11 -18 -20 -20 -20 -20 -20 -20 -20 -20 -15 -12 -8 -3 1 4 -1 -10 -14 -9 -16 -20 -18 -11 -12 -20
-20 -20 -20 -20 -20 -20 -20 -20 -20 -20 -20 -20 -17 -4 -1 -2 -4 -20 -20 -20 -20 -20 -20 -20 -20 -20 -20 -20 -20 -20 -18 -9 0 4 4 2 -4 -15 -18 -18 -18 -20 -20
-20 -20 -20 -20 -20 -20 -20 -20 -20 -20 -20 -20 -20 -20 -20 -20 -20 -20 -20 -20 -20 -20 -20 -20 -20 -20 -20 -20 -20 -20 -20 -20 -16 -11 -12 -12 -17 -20 -20 -17 -16 -16 -18
-20 -20 -20 -20 -20 -20 -20 -20 -20 -20 -20 -20 -20 -20 -20 -20 -20 -20 -20 -20 -20 -20 -20 -20 -20 -20 -20 -20 -20 -20 -20 -20 -20 -20 -20 -20 -20 -20 -20 -20 -20 -20 -20
-20 -20 -20 -20 -20 -20 -20 -20 -20 -20 -20 -20 -20 -20 -20 -20 -20 -20 -20 -20 -20 -20 -20 -20 -20 -20 -20 -20 -20 -20 -20 -20 -20 -20 -20 -20 -20 -20 -20 -20 -20 -20 -20
-20 -20 -20 -20 -20 -20 -20 -20 -20 -20 -20 -20 -20 -20 -20 -20 -20 -20 -20 -20 -20 -20 -20 -20 -20 -20 -20 -20 -20 -20 -20 -20 -20 -20 -20 -20 -20 -20 -20 -20 -20 -20 -20
-20 -20 -20 -20 -20 -20 -20 -20 -20 -20 -20 -20 -20 -20 -20 -20 -20 -20 -20 -20 -20 -20 -20 -20 -20 -20 -20 -20 -20 -20 -20 -20 -20 -20 -20 -20 -20 -20 -20 -20 -20 -20 -20
-20 -20 -20 -20 -20 -20 -20 -20 -20 -20 -20 -20 -20 -20 -20 -20 -20 -20 -20 -20 -20 -20 -20 -20 -20 -20 -20 -20 -20 -20 -20 -20 -20 -20 -20 -20 -20 -20 -20 -20 -20 -20 -20
-20 -20 -20 -20 -20 -20 -20 -20 -20 -20 -20 -20 -20 -20 -20 -20 -20 -20 -20 -20 -20 -20 -20 -20 -20 -20 -20 -20 -20 -20 -20 -20 -20 -20 -20 -20 -20 -20 -20 -20 -20 -20 -20
-20 -20 -20 -20 -20 -20 -20 -20 -20 -20 -20 -20 -20 -20 -20 -20 -20 -20 -20 -20 -20 -20 -20 -20 -20 -20 -20 -20 -20 -20 -20 -20 -20 -20 -20 -20 -20 -20 -20 -20 -20 -20 -20

GFSGL_prec_radar_075.txt.gz
Reflectivity
-20 -18 -7 -18 -20 -20 -20 -19 -20 -20 -8 -2 -20 -1 -7 12 -3 -15 23 22 7 8 11 15 8 3 23 12 21 24 7 23 23 9 3 -20 -20 -20 -20 -19 -19 -8 -17
-20 -20 -20 -19 -20 -20 -20 -20 -20 -20 -20 -20 -20 8 9 6 -0 -1 -20 -20 -5 16 17 13 12 28 13 23 22 21 29 21 13 14 -20 -20 -20 -20 -20 -20 -20 -15 -9
-8 -20 -14 -6 -20 -20 -20 -20 -20 -20 -20 -20 -20 -20 -20 -20 -20 -20 -20 -20 -20 4 15 15 10 5 2 -5 8 -10 -11 -20 -20 -20 -20 -20 -20 -20 -20 -20 -20 -20 -20
-8 -13 8 -20 -18 -19 -20 -20 -20 -20 -20 -20 -20 -20 -20 -20 -20 -20 -20 -20 -20 -20 -20 -20 -20 -20 -20 -20 -20 -20 -20 -20 -20 -4 -19 -20 -20 -20 -20 -20 -20 -20 -20
8 -7 17 1 6 9 1 -6 -15 -20 -20 -20 -20 -20 -20 -20 -20 -20 -20 -20 -7 -17 -20 -20 -20 -20 -20 -20 -20 -20 -20 -20 -1 13 17 12 -20 -20 -12 -20 -9 -20 -20
-9 8 -13 10 13 11 12 4 -2 -2 4 6 12 5 14 23 20 2 14 -13 -18 -20 -20 -20 -20 -20 -20 -20 -20 -20 -20 -12 5 8 7 6 -13 -20 -20 -20 -20 -20 3
21 24 -15 -20 -18 -11 -9 2 -3 3 11 18 13 19 22 16 22 12 14 8 1 14 10 5 -6 -6 15 -11 -18 -15 -8 -9 -3 -14 -20 -20 -20 -4 7 14 1 -10 -14
31 6 -11 -20 -20 -20 -20 -20 -20 -20 -11 -1 3 6 6 5 12 3 -7 -18 -20 -2 7 12 20 20 22 23 16 18 16 15 24 21 26 24 19 17 12 11 14 11 -8
-19 -16 -10 -20 -20 -20 -20 -20 -20 -12 -20 -20 -20 -20 -18 -17 11 11 7 -18 3 14 19 16 10 -1 18 11 7 -2 -11 23 36 24 16 22 21 19 16 2 18 24 35
4 8 5 -20 -20 -20 -20 -20 -20 -20 -20 -20 -20 -20 -13 -20 -20 -20 -20 -20 -20 -20 -20 -19 17 12 16 12 4 -13 2 24 30 26 24 29 29 24 31 20 9 15 29
-8 -20 -20 -20 -20 -20 -20 -20 -20 -20 -20 -20 -20 -20 -20 -20 -13 -20 -17 -20 -20 -20 -20 -20 -15 7 9 6 7 -3 2 13 22 20 18 19 18 24 29 36 24 18 24
-12 -5 -6 -14 -13 -12 -20 -20 -20 -20 -20 -20 -20 -12 -12 -5 -8 -9 -20 0 3 -20 -20 -7 1 7 -0 -12 -14 9 2 2 3 8 13 18 15 10 11 7 14 20 21
1 3 -0 -7 -20 -20 -20 -20 -20 -20 -20 -20 -20 -20 -20 -20 -20 -19 -20 -20 -20 -14 1 -4 -20 -20 -20 -20 -20 -20 -20 -19 -15 -6 10 14 14 5 3 3 2 3 -1
-20 -6 -1 -9 -20 -20 -20 -18 -20 -20 -20 -20 -20 -13 -20 -5 -4 -20 -20 -20 -20 -20 -20 -20 -20 -20 -20 -20 -20 -20 -20 -20 -20 -20 -14 -2 5 3 -9 -5 -0 -1 1
-19 -20 -20 -20 -20 -16 1 -0 1 6 -0 -1 -3 -2 -2 -2 6 -4 -9 -20 -20 -20 -20 -20 -20 -20 -20 -20 -20 -20 -20 -20 -20 -15 -13 -11 -13 -15 -16 -7 -3 -5 -8
-20 -20 -20 -20 -20 -20 -20 -20 -6 -2 -1 -3 -1 -0 3 4 -6 -4 -20 -20 -20 -20 -20 -20 -20 -20 -20 -20 -20 -20 -20 -20 -20 -20 -20 -20 -20 -20 -14 -4 0 3 2
-20 -20 -20 -20 -20 -20 -20 -20 -20 -13 -19 -4 -0 1 -1 -16 -8 -14 -20 -20 -20 -20 -20 -20 -20 -20 -20 -20 -20 -20 -20 -20 -20 -20 -20 -20 -20 -20 -20 -20 -20 -19 -13
-20 -20 -20 -20 -20 -20 -20 -20 -20 -20 -20 -20 -20 -9 -2 -4 -7 -20 -20 -20 -20 -20 -20 -20 -20 -20 -20 -20 -20 -20 -20 -20 -20 -20 -20 -20 -20 -20 -20 -20 -20 -20 -20
-20 -20 -20 -20 -20 -20 -20 -20 -20 -20 -20 -20 -20 -20 -20 -20 -20 -20 -20 -20 -20 -20 -20 -20 -20 -20 -20 -20 -20 -20 -20 -20 -20 -20 -20 -20 -20 -20 -20 -20 -20 -20 -20
-20 -20 -20 -20 -20 -20 -20 -20 -20 -20 -20 -20 -20 -20 -20 -20 -20 -20 -20 -20 -20 -20 -20 -20 -20 -20 -20 -20 -20 -20 -20 -20 -20 -20 -20 -20 -20 -20 -20 -20 -20 -20 -20
-20 -20 -20 -20 -20 -20 -20 -20 -20 -20 -20 -20 -20 -20 -20 -20 -20 -20 -20 -20 -20 -20 -20 -20 -20 -20 -20 -20 -20 -20 -20 -20 -20 -20 -20 -20 -20 -20 -20 -20 -20 -20 -20
-20 -20 -20 -20 -20 -20 -20 -20 -20 -20 -20 -20 -20 -20 -20 -20 -20 -20 -20 -20 -20 -20 -20 -20 -20 -20 -20 -20 -20 -20 -20 -20 -20 -20 -20 -20 -20 -20 -20 -20 -20 -20 -20
-20 -20 -20 -20 -20 -20 -20 -20 -20 -20 -20 -20 -20 -20 -20 -20 -20 -20 -20 -20 -20 -20 -20 -20 -20 -20 -20 -20 -20 -20 -20 -20 -20 -20 -20 -20 -20 -20 -20 -20 -20 -20 -20
-20 -20 -20 -20 -20 -20 -20 -20 -20 -20 -20 -20 -20 -20 -20 -20 -20 -20 -20 -20 -20 -20 -20 -20 -20 -20 -20 -20 -20 -20 -20 -20 -20 -20 -20 -20 -20 -20 -20 -20 -20 -20 -20
-20 -20 -20 -20 -20 -20 -20 -20 -20 -20 -20 -20 -20 -20 -20 -20 -20 -20 -20 -20 -20 -20 -20 -20 -20 -20 -20 -20 -20 -20 -20 -20 -20 -20 -20 -20 -20 -20 -20 -20 -20 -20 -20
-20 -20 -20 -20 -20 -20 -20 -20 -20 -20 -20 -20 -20 -20 -20 -20 -20 -20 -20 -20 -20 -20 -20 -20 -20 -20 -20 -14 -14 -12 -20 -20 -20 -20 -20 -20 -20 -20 -20 -20 -20 -20 -20

GFSGL_prec_radar_078.txt.gz
Reflectivity
-20 -20 -16 -19 -3 -20 -13 -20 -20 -14 10 -20 11 13 11 16 15 5 17 -0 21 19 21 17 24 22 15 10 -11 -20 -15 3 14 -12 9 7 -5 -12 -20 -20 -20 -20 -20
1 -20 -19 -16 9 12 -4 -14 -20 7 13 14 12 9 2 -20 10 19 4 9 16 11 10 4 -16 1 -5 -3 10 21 17 15 14 -14 -0 -6 -10 1 -6 16 -20 -20 -20
13 -11 -1 -2 -18 -13 6 11 14 10 -13 2 10 8 9 9 8 6 2 6 8 1 -10 -20 -7 8 7 -1 -2 9 8 2 13 14 1 16 -3 12 -8 -8 -20 -15 -20
16 -14 -20 -9 0 4 -8 11 8 10 13 2 -20 -20 -13 -5 -4 9 14 16 8 -9 6 6 18 5 7 17 22 10 -2 5 8 11 -20 -16 3 -20 14 12 10 7 7
11 5 -14 -20 -14 -2 15 19 8 0 14 13 13 14 3 -20 -17 -20 -9 8 1 -15 -20 -20 14 15 8 -9 22 20 19 20 23 23 12 -20 -12 11 9 4 18 4 -17
2 -3 15 20 -16 4 -5 7 2 -3 12 15 20 19 4 -20 14 -9 -20 -20 -20 4 4 5 7 19 1 0 4 8 7 -1 14 19 18 11 -14 -20 -20 -20 4 17 -8
-5 -14 -18 14 13 -9 13 14 14 18 2 -1 0 4 8 6 18 6 3 -0 0 4 21 23 17 19 26 12 25 18 11 15 20 22 19 23 26 26 25 13 4 6 -10
-2 0 -20 6 25 7 -20 -17 -14 -12 1 11 3 1 9 5 11 3 -2 -7 -8 4 0 2 3 3 10 15 5 14 17 24 24 16 26 29 22 16 15 22 23 23 16
-8 -16 -20 26 25 11 -14 -20 -18 -20 -20 -20 -20 -20 -20 -20 -1 1 1 -20 -20 -20 -19 -20 -20 -19 14 9 4 -8 21 21 33 24 15 19 25 28 33 25 24 32 31
-10 3 14 17 29 2 1 -16 -20 -20 -20 -20 -20 -20 -20 -20 -20 -20 -20 -20 -20 -20 -20 -20 2 -11 -20 -20 -20 -20 -20 -5 4 13 12 21 23 17 23 12 3 11 16
27 13 19 28 20 -11 3 5 -2 -20 -20 -20 -20 -20 -20 -20 -20 -20 -20 -20 -20 -20 -20 -20 -2 -6 -20 -20 -20 -20 -18 -15 3 -3 -6 -6 -1 2 5 6 4 3 -1
7 1 -14 -2 5 6 22 17 -20 -14 -20 -20 -20 -8 -13 -12 -20 -15 -20 -20 -20 -13 -3 0 1 -12 -20 -20 -13 -20 -20 -20 -20 -20 -20 -20 -16 -11 -4 -10 -8 -14 -13
20 20 17 16 6 8 4 1 -5 -15 -20 -20 -20 -5 -1 -17 -20 -20 -20 -20 -20 1 -7 1 -20 -20 -20 -20 -20 -20 -4 1 -2 -3 -1 -1 1 -0 -3 0 -19 -20 -20
-20 -20 -13 -16 -20 -17 -14 -4 -10 -20 -20 -18 -6 -4 -2 -3 1 0 -20 -5 -17 -12 -17 -7 -20 -10 -20 -15 -10 -0 -1 -2 -2 1 0 -1 -4 -20 -20 -20 -20 -20 -20
-20 -20 -20 -20 -20 -8 -3 -1 -3 1 -2 -2 1 -0 1 1 2 -4 -13 -2 -4 -10 -20 -2 -4 -5 -4 -4 -5 -7 -20 -7 -4 -11 -13 -20 -20 -20 -20 -20 -20 -20 -20
-20 -20 -20 -20 -20 -20 -20 -3 -1 -0 -2 -20 -20 -4 -0 -13 -3 -17 -20 -20 -20 -20 -8 -2 -2 -15 -20 -20 -20 -20 -20 -20 -20 -20 -20 -20 -20 -20 -20 -20 -20 -20 -20
-2 -20 -20 -20 -20 -20 -20 -0 -1 -2 -8 -5 -0 0 -1 -1 -20 -20 -20 -20 -20 -20 -20 -20 -19 -20 -20 -20 -20 -20 -20 -20 -20 -20 -20 -20 -20 -20 -20 -20 -20 -20 -20
-20 -20 -1 -1 1 1 2 2 0 2 3 2 -20 -20 -10 -20 -20 -20 -20 -20 -20 -20 -20 -20 -20 -20 -20 -20 -20 -20 -20 -20 -20 -20 -20 -20 -20 -20 -20 -20 -20 -20 -20
-2 -1 -1 -3 -20 -12 -20 -20 -20 -20 -20 -20 -20 -20 -20 -20 -20 -20 -20 -20 -20 -20 -20 -20 -20 -20 -20 -20 -20 -20 -20 -20 -20 -20 -20 -20 -20 -20 -20 -20 -20 -20 -20
-8 -20 -7 -1 -2 -20 -20 -20 -20 -20 -20 -20 -20 -20 -20 -20 -20 -20 -20 -20 -20 -20 -20 -20 -20 -20 -20 -20 -20 -20 -20 -20 -20 -20 -20 -20 -8 -20 -20 -20 -20 -20 -20
-1 -20 -20 -20 -20 -20 -20 -20 -20 -20 -20 -20 -20 -20 -20 -20 -20 -20 -20 -20 -20 -20 -20 -20 -20 -20 -20 -20 -20 -20 -20 -20 -20 -20 -20 -20 -20 -20 -20 -20 -20 -20 -20
-9 -20 -20 -20 -20 -20 -20 -20 -20 -20 -20 -20 -20 -20 -20 -20 -20 -20 -20 -14 -3 -20 -20 -9 -15 -20 -20 -14 -16 -2 -20 -20 -20 -20 -20 -20 -20 -20 -20 -20 -20 -5 -16
-20 -14 -20 -20 -20 -20 -20 -20 -20 -20 -20 -20 -20 -20 -20 -11 -14 -15 -5 -0 -3 -1 -4 -2 -2 -5 -4 -1 -1 -3 -7 -11 -7 -20 -20 -17 -20 -14 0 0 -5 -4 -4
-19 -3 -20 -6 -20 -20 -2 -0 -20 -20 -20 -3 -0 -2 -3 -3 -1 -3 -2 1 -1 1 -0 -1 -4 -20 -18 -3 1 -2 -17 -18 -14 -20 -20 -20 -20 -8 -3 -5 -2 -3 -1
-1 -1 -2 -2 -0 0 -1 -2 -1 -1 -1 -1 -1 -1 -4 -3 -5 -1 -1 -3 -20 -3 -4 -17 -3 -3 -4 -18 -19 -8 -20 -20 -20 -20 -3 -3 -4 -20 -9 -4 -4 -0 -1
-20 -20 -6 -4 -3 -3 -2 -2 -1 -2 -4 -1 -1 -1 -1 -2 -4 -1 -4 -14 -20 -9 -20 -3 -2 -20 -20 -2 -3 -11 -20 -20 -20 -20 -19 -1 -3 -2 -1 -0 -3 -2 0

GFSGL_prec_radar_081.txt.gz
Reflectivity
-18 -20 -11 -1 -1 4 7 11 -16 14 -1 11 18 7 16 9 18 25 16 -13 22 22 23 14 17 18 12 16 17 21 13 19 15 -0 -1 -5 6 -16 -20 -18 -15 -20 -20
-9 -10 -13 -8 -18 7 5 8 9 2 3 14 17 10 1 14 14 14 31 19 7 -15 -19 19 22 19 10 -20 -8 -8 -13 -20 -6 -10 -20 -20 -20 -20 -20 -11 -1 -20 -20
20 -2 1 -6 7 -8 -20 -20 -20 -20 -20 1 17 19 15 9 4 -14 -5 3 -14 -7 22 12 -0 2 -6 -3 -2 -17 -3 4 -14 7 -13 -20 -20 -20 -20 -20 -20 -20 -20
5 -8 10 -7 6 -2 9 9 -7 -8 -20 9 11 -5 -1 -6 0 2 0 10 17 14 7 -11 -20 -20 -20 -20 -16 -3 -17 -20 -10 -3 -15 -15 -9 -20 -16 -13 -5 14 -20
14 -0 6 -20 -20 -20 -20 -20 -16 -7 -3 -6 7 -8 5 -2 12 13 18 14 17 18 24 20 20 24 23 15 8 2 8 20 18 21 20 21 19 19 17 -20 13 -4 9
16 14 11 16 4 -0 5 3 -10 -20 -20 17 23 -5 -5 11 17 5 -20 -3 17 -20 -20 -20 -14 11 -6 -12 -11 -20 -19 -6 11 5 13 11 15 22 23 19 17 18 8
18 20 24 10 12 18 8 10 13 8 -2 -6 5 -8 -8 -14 14 7 7 -20 -20 -20 -20 -20 -17 -7 16 -6 -1 14 17 18 18 14 8 15 22 25 22 23 24 20 15
18 27 23 23 15 5 16 24 23 21 5 14 19 15 7 8 14 13 18 8 1 5 12 14 7 12 18 16 11 19 22 17 18 15 15 22 22 20 21 21 19 21 24
24 29 -11 -11 20 23 -16 22 15 19 15 8 17 11 8 4 15 14 7 -17 -17 -18 -18 -17 -18 -19 -13 -16 -18 -20 -20 -18 16 7 10 12 13 13 9 -9 -4 -13 -9
14 31 21 15 -20 -20 -14 26 18 11 7 -6 -20 -20 -20 -20 -3 -17 -17 -20 -20 -20 -20 -20 -12 -20 -20 -20 -20 -20 -20 -20 -20 -20 -15 11 13 12 10 -2 -11 -4 -20
4 6 -14 -6 -10 5 15 24 23 0 -10 -10 -20 -20 -20 -20 -18 -20 -9 -20 -20 -20 -20 -5 1 3 -12 -20 -20 -20 -13 -15 -12 -19 -20 -20 -20 -20 -12 -13 -13 -16 -15
14 8 12 14 17 13 8 12 29 29 18 -3 -20 -6 -2 -16 -20 -15 -20 -20 -20 -5 2 1 0 1 -13 -14 -11 -9 -14 9 -16 -4 -7 0 -6 -13 0 -7 -20 -20 -20
9 25 35 32 29 23 26 28 26 19 15 9 7 8 9 2 -1 -19 -20 -20 -20 1 -0 -0 -20 -18 -14 -20 -15 -20 -20 -4 2 2 2 2 -11 -17 -7 -10 -16 -20 -20
-8 -20 -20 -20 -20 -15 -3 9 11 14 15 12 12 11 11 9 -1 -2 -7 2 7 0 5 -7 -10 -18 -18 -16 -10 -4 1 -4 -2 -0 2 -4 -20 -20 -20 -20 -20 -20 -20
-20 -20 -20 -20 -20 -20 -19 -4 -12 -2 -18 -0 -2 -5 -3 -3 -2 -10 -13 -10 -11 -17 3 -1 -3 -9 -20 -20 -20 -20 -20 -20 -20 -20 -20 -20 -20 -20 -20 -20 -20 -20 -20
-20 -20 -20 -20 -20 -20 -20 -20 -20 -11 -20 -20 -20 -5 -1 -14 -20 -20 -20 -20 -20 -20 -20 -20 -10 -20 -20 -20 -20 -20 -20 -20 -20 -20 -20 -20 -20 -20 -20 -20 -20 -20 -20
-3 -6 -20 -20 -20 -19 1 -19 -17 -12 -20 -20 -7 -6 -6 -19 -20 -20 -20 -20 -20 -20 -20 -7 -6 -20 -20 -20 -20 -20 -20 -20 -20 -20 -20 -20 -20 -20 -20 -20 -20 -20 -20
-20 -11 1 1 1 -6 2 0 -15 7 4 -8 -20 -20 -20 -20 -20 -20 -20 -20 -20 -20 -20 -20 -20 -20 -20 -20 -20 -20 -20 -20 -20 -20 -20 -20 -20 -20 -20 -20 -20 -20 -20
-20 -20 -20 -10 -11 -11 -6 -3 -3 -11 -12 -10 -17 -20 -20 -20 -20 -20 -20 -20 -20 -20 -20 -20 -20 -20 -20 -20 -3 -1 -5 -20 -20 -13 -4 -20 -3 -20 -20 -20 -20 -20 -20
-8 -20 -8 -1 -2 -4 -17 -20 -20 -20 -20 -20 -20 -20 -20 -20 -20 -20 -20 -20 -20 -20 -20 -20 -20 -20 -8 -20 -3 -3 -20 -20 -20 -20 -20 -4 -4 -4 -20 -20 -20 -20 -20
-2 -11 -20 -20 -20 -20 -20 -20 -20 -20 -20 -20 -20 -20 -20 -20 -20 -20 -20 -20 -20 -20 -5 -20 -20 -20 -20 -20 -12 -1 -18 -4 -14 -20 -5 -20 -20 -3 -20 -3 -20 -20 -20
-20 -20 -20 -20 -20 -20 -20 -20 -20 -20 -20 -20 -20 -20 -20 -20 -20 -20 -20 -1 0 -17 -20 -1 -9 -20 -20 -3 -4 -0 -3 -3 -3 -4 -20 -20 -20 -2 -3 -2 -4 -6 -5
-19 -11 -20 -20 -20 -20 -10 -20 -3 -11 -18 -11 -20 -11 -20 -2 -4 -6 0 1 -2 0 -3 -3 -1 -4 -8 -0 0 -1 -3 -2 -2 -5 -20 -17 -20 -3 -5 0 -3 -2 -6
-8 -2 -20 -17 -18 -6 1 2 -11 -20 -20 -2 2 0 -0 -0 0 -1 -0 -1 -2 0 -0 0 -4 -20 -20 -18 1 -2 -20 -20 -20 -18 -20 -4 -7 -9 -16 -6 -2 -7 -1
-1 -1 -2 -1 1 2 1 0 0 1 1 1 2 2 -2 0 -1 1 1 -1 -20 -3 -5 -17 -2 -15 -4 -20 -20 -19 -20 -20 -20 -20 -20 -8 -1 -19 -1 -5 -1 -5 -3
-20 -15 -2 -1 -0 -0 1 1 1 1 -1 1 1 1 0 -0 -1 -0 -1 -4 -11 -7 -11 -1 -2 -20 -20 -18 -20 -20 -20 -20 -20 -20 -20 -18 -0 -1 -2 -8 -7 -1 -3

GFSGL_prec_radar_084.txt.gz
Reflectivity
9 3 -20 -20 -18 9 -13 -19 -20 -15 9 -20 -17 -20 11 8 14 23 30 28 28 25 13 -0 9 21 21 25 20 25 24 25 -1 -9 1 -10 -6 -12 -20 -11 -15 -19 -20
9 17 -20 10 10 3 5 10 10 -17 -19 -20 7 -11 2 -7 15 26 19 -6 28 26 33 31 29 28 28 28 18 12 18 13 16 -6 -20 -11 -12 -20 -20 -20 -20 -14 -19
-4 6 3 -11 6 15 13 11 14 -15 -5 -20 -10 -10 3 2 6 18 25 22 32 -2 13 1 24 18 25 19 26 20 -15 15 -3 14 -4 4 -20 -20 -20 -20 -20 -20 -20
18 -17 -20 -14 -12 -12 9 2 16 11 -1 -14 -17 20 21 -9 16 12 11 4 19 29 18 1 16 19 -20 14 -2 2 -20 9 -13 -8 -20 -20 -20 -20 -12 -19 -20 -20 -20
25 22 21 4 13 8 7 8 3 9 6 -10 2 6 16 6 -11 1 13 10 27 14 24 18 17 20 14 -15 -16 -8 2 6 3 -1 8 4 8 2 20 28 29 29 31
-16 -8 12 2 -12 -20 6 10 11 14 4 7 10 12 11 9 18 14 17 12 13 19 7 26 30 13 12 18 19 5 -8 1 7 13 13 12 14 20 -1 -4 10 1 12
9 13 4 -3 1 -20 -20 -20 -20 -20 6 2 3 16 7 7 14 11 11 -20 -5 -13 14 10 -19 7 12 -19 22 13 21 19 16 7 2 1 11 14 15 15 17 16 19
16 14 14 11 17 18 4 10 6 -8 -2 -11 -20 -13 -14 1 10 7 12 -8 -13 -20 -20 -20 -19 1 8 16 21 26 26 21 18 23 21 17 15 7 7 -1 -7 -2 1
28 27 25 14 15 22 23 24 23 21 17 28 23 13 10 14 21 19 19 3 12 18 20 21 15 18 16 5 -11 -18 -20 -18 5 -0 7 2 6 -10 -20 -20 -20 -20 -20
37 34 24 27 30 23 25 27 16 18 8 28 28 23 28 15 16 6 -6 -20 -20 -20 -20 -20 7 -12 -20 -20 -20 -20 -20 -20 -20 -20 -20 -20 -20 -9 -16 -15 -20 -20 -20
28 31 37 26 35 34 25 17 -15 -7 -17 10 26 12 6 -1 -2 6 -2 -20 -20 -20 -20 -20 -15 11 7 -15 -20 -20 -16 -18 -9 -15 -13 -20 -20 -20 -20 -20 -20 -20 -20
32 36 36 30 30 42 36 28 15 12 13 9 14 14 7 4 -0 -7 -2 -2 -2 -12 -20 -14 -11 5 -20 -16 -20 -11 -4 -10 -20 -20 -20 -20 -20 -20 -20 -20 -20 -20 -20
38 32 29 29 34 19 18 18 14 10 -2 -5 -2 2 8 3 5 -1 -17 -11 -7 -7 -19 -20 -20 -2 -18 -20 -20 -20 -20 -20 -20 -20 -20 -13 -17 -20 -20 -20 -20 -20 -20
14 21 22 21 11 18 19 17 13 17 18 22 19 21 21 20 19 19 19 11 3 9 9 2 -8 -17 -18 -20 -20 -20 -20 -20 -19 -20 -20 -20 -20 -20 -20 -20 -20 -20 -20
-14 6 9 11 11 9 -6 2 5 10 6 3 5 1 -10 -3 4 9 7 -9 -20 -20 -20 -20 -20 -20 -20 -20 -20 -20 -20 -20 -20 -20 -20 -20 -20 -20 -20 -20 -20 -20 -20
-20 -18 -3 -6 -9 -15 -16 -20 -7 -20 -19 -19 -19 -20 -19 -17 -20 -20 -20 -20 -20 -20 -20 -20 -20 -20 -20 -20 -20 -20 -20 -20 -20 -20 -20 -20 -20 -20 -20 -20 -20 -20 -20
-18 -20 -11 -15 -19 -9 -20 -20 -20 -20 -20 -20 -20 -20 -20 -20 -20 -20 -20 -20 -20 -20 -20 -20 -20 -20 -20 -20 -20 -20 -20 -20 -20 -20 -20 -20 -20 -20 -20 -20 -20 -20 -20
-20 -20 -15 -5 -20 -20 -20 1 -4 3 -20 -20 -20 -20 -20 -20 -20 -20 -20 -20 -20 -20 -20 -20 -20 -20 -20 -20 -20 -20 -20 -20 -20 -20 -20 -20 -20 -20 -20 -20 -20 -20 -20
-2 -2 -20 -20 -20 -20 -9 -4 -7 -20 -6 -20 -14 -20 -20 -20 -20 -20 -20 -20 -20 -20 -20 -20 -20 -20 -20 -20 -20 -20 -20 -20 -20 -20 -20 -20 -20 -20 -20 -20 -20 -20 -20
-20 -20 0 2 0 -20 -18 -20 -20 -20 -20 -20 -20 -20 -20 -20 -20 -20 -20 -20 -20 -20 -20 -20 -20 -20 -20 -20 -14 -20 -20 -20 -20 -20 -20 -20 -20 -20 -20 -20 -20 -20 -20
0 -20 -20 -20 -20 -20 -20 -20 -20 -20 -20 -20 -20 -20 -20 -20 -20 -20 -20 -20 -20 -20 -20 -20 -20 -20 -20 -20 -20 -20 -20 -20 -20 -20 -20 -20 -20 -20 -20 -20 -20 -20 -20
-20 -20 -20 -20 -20 -20 -20 -20 -20 -20 -20 -20 -20 -20 -20 -20 -20 -20 -20 -20 -20 -20 -20 -20 -20 -20 -20 -20 -20 -20 -20 -20 -20 -20 -20 -20 -20 -20 -20 -20 -20 -20 -20
-20 -20 -20 -20 -20 -16 -20 -20 -19 -9 -14 -20 -20 -20 -20 -20 -20 -20 -20 -20 -13 -20 -20 -20 -20 -20 -20 -20 -20 -20 -20 -20 -20 -20 -20 -20 -20 -20 -20 -20 -20 -20 -20
-20 -3 -20 -20 -20 -20 -12 -19 -20 -20 -20 -11 -20 -20 -20 -20 -20 -19 -20 -20 -20 -20 -20 -20 -13 -20 -20 -20 -20 -20 -20 -20 -20 -20 -20 -20 -20 -19 -20 -20 -20 -20 -20
-20 -5 -20 -20 -4 3 3 -20 -19 -20 -18 -20 -20 -12 -20 -12 -20 -20 -20 -20 -20 -20 -20 -20 -20 -20 -20 -20 -20 -20 -20 -20 -20 -20 -20 -20 -20 -20 -20 -20 -20 -20 -20
-20 -20 -8 -19 -5 -8 -7 -9 -1 -17 -13 -20 -12 -9 -18 -20 -15 -20 -20 -20 -20 -20 -20 -20 -20 -20 -20 -20 -20 -20 -20 -20 -20 -20 -20 -20 -20 -20 -20 -20 -20 -20 -20

GFSGL_prec_radar_087.txt.gz
Reflectivity
-6 11 -15 -1 -20 8 6 16 7 -20 -20 -20 -20 -20 -20 13 24 25 29 26 26 27 26 26 28 23 16 5 -15 -18 -20 -13 -17 20 25 26 26 12 -11 2 3 -0 -10
-4 7 6 10 9 6 20 18 13 14 2 -20 -20 -10 -20 -5 25 27 29 30 26 27 27 26 26 17 2 6 13 7 6 16 11 13 14 23 13 -10 -20 -12 3 8 -15
27 14 12 27 11 12 13 13 14 5 10 3 -20 2 -1 -20 10 28 29 28 22 25 27 28 26 28 21 17 22 23 20 22 20 0 -9 -15 -19 -8 -8 -10 -20 -20 -19
-8 16 13 27 15 10 6 15 15 9 -13 -20 -14 -12 12 -16 3 24 16 28 26 28 11 26 28 31 25 17 14 10 11 5 1 -19 -18 -18 -17 -20 -20 -20 -20 -6 27
22 23 17 24 20 16 9 15 12 11 -3 -20 -17 13 20 -19 5 7 19 18 25 28 32 24 12 16 11 20 2 -17 -18 -13 -19 -20 -20 -20 -20 -15 11 8 -2 2 13
16 21 19 14 16 13 5 17 17 5 11 12 10 -1 15 12 15 14 14 13 17 -7 19 2 10 16 12 10 13 16 21 25 1 -4 -2 -3 2 8 20 10 16 -20 1
15 8 23 20 11 11 14 23 10 12 -4 13 12 -0 11 1 15 12 17 15 -5 6 -8 21 1 2 26 5 -13 10 12 12 13 -9 -2 5 20 15 16 17 18 25 23
16 25 20 11 19 -0 3 18 24 16 7 18 12 13 7 14 19 20 17 -9 6 8 21 4 8 23 15 12 -17 7 0 -0 18 31 21 27 14 8 3 0 -12 -13 -20
27 35 28 26 23 12 14 -6 5 6 -17 -19 -20 -20 -18 -5 12 19 20 16 16 7 -1 -11 -4 -20 -7 -14 -18 -0 16 13 20 1 -8 3 -15 -17 -20 -20 -20 -20 -20
32 34 31 29 32 31 29 28 27 30 21 21 26 23 22 14 28 26 24 10 4 -6 -3 1 16 11 14 1 -17 -20 -20 -20 -20 -20 -20 -19 -20 -20 -20 -20 -20 -20 -20
27 31 33 35 35 37 29 28 31 28 28 24 31 23 7 30 27 27 22 23 23 19 -5 -20 -16 -14 0 -14 -20 -20 -20 -20 -20 -20 -20 -20 -20 -20 -20 -20 -20 -20 -20
31 25 24 28 26 36 34 27 32 30 25 18 12 14 13 5 28 31 25 17 -10 -8 -20 -20 -12 -20 -20 -20 -20 -20 -20 -20 -20 -20 -20 -20 -20 -20 -20 -20 -20 -20 -20
23 24 23 22 26 28 29 29 30 30 29 24 22 16 19 14 2 -8 3 2 -19 -20 -20 -20 -20 -20 -20 -10 -5 0 1 -17 -20 -20 -20 -20 -20 -20 -20 -20 -20 -20 -20
11 17 19 23 22 21 20 20 23 25 25 28 31 26 24 17 15 14 11 13 14 13 8 12 17 14 11 10 -10 -20 -20 -19 -20 -20 -20 -20 -20 -20 -20 -20 -20 -20 -20
14 14 16 16 16 17 16 14 16 19 21 20 12 11 16 11 12 3 -9 -0 7 12 12 11 9 8 8 2 -20 -20 -20 -20 -20 -20 -20 -20 -20 -20 -20 -20 -20 -20 -20
-10 0 8 11 8 7 7 -8 -6 7 9 10 -3 4 -0 -11 -13 -19 -20 -19 -19 -20 -20 -20 -20 -20 -20 -20 -20 -20 -20 -20 -20 -20 -20 -20 -20 -20 -20 -20 -20 -20 -20
-20 -8 -11 -2 2 1 -6 -20 -20 -16 -8 -10 -15 -20 -20 -20 -20 -20 -20 -20 -20 -20 -20 -20 -20 -20 -20 -20 -20 -20 -20 -20 -20 -20 -20 -20 -20 -20 -20 -20 -20 -20 -20
-20 -20 -20 -20 -20 -20 -16 -20 -20 -20 -20 -20 -20 -20 -20 -20 -20 -20 -20 -20 -20 -20 -20 -20 -20 -20 -20 -20 -20 -20 -20 -20 -20 -20 -20 -20 -20 -20 -20 -20 -20 -20 -20
-20 -20 -20 -20 -20 -20 -20 -20 -20 -20 -20 -20 -20 -20 -20 -20 -20 -20 -20 -20 -20 -20 -20 -20 -20 -20 -20 -20 -20 -20 -20 -20 -20 -20 -20 -20 -20 -20 -20 -20 -20 -20 -20
-20 -20 -20 -20 -20 -20 -20 -20 -20 -20 -20 -20 -20 -20 -20 -20 -20 -20 -20 -20 -20 -20 -20 -20 -20 -20 -20 -20 -20 -20 -20 -20 -20 -20 -20 -20 -20 -20 -20 -20 -20 -20 -20
-20 -20 -20 -20 -20 -20 -20 -20 -20 -20 -20 -20 -20 -20 -20 -20 -20 -20 -20 -20 -20 -20 -20 -20 -20 -20 -20 -20 -20 -20 -20 -20 -20 -20 -20 -20 -20 -20 -20 -20 -20 -20 -20
-20 -20 -20 -20 -20 -20 -20 -20 -20 -20 -20 -20 -20 -20 -20 -20 -20 -20 -20 -20 -20 -20 -20 -20 -20 -20 -20 -20 -20 -20 -20 -20 -20 -20 -20 -20 -20 -20 -20 -20 -20 -20 -20
-20 -20 -20 -20 -20 -20 -20 -20 -20 -20 -20 -20 -20 -20 -20 -20 -20 -20 -20 -20 -20 -20 -20 -20 -20 -20 -20 -20 -20 -20 -20 -20 -20 -20 -20 -20 -20 -20 -20 -20 -20 -20 -20
-20 -20 -20 -20 -20 -20 -20 -20 -20 -20 -20 -20 -20 -20 -20 -20 -20 -20 -20 -20 -20 -20 -20 -20 -20 -20 -20 -20 -20 -20 -20 -20 -20 -20 -20 -20 -20 -20 -20 -20 -20 -20 -20
-20 -20 -20 -20 -20 -20 -20 -20 -20 -20 -20 -20 -20 -20 -20 -20 -20 -20 -20 -20 -20 -20 -20 -20 -20 -20 -20 -20 -20 -20 -20 -20 -20 -20 -20 -20 -20 -20 -20 -20 -20 -20 -20
-20 -20 -20 -20 -20 -20 -20 -20 -20 -20 -20 -20 -20 -20 -20 -20 -20 -20 -20 -20 -20 -20 -20 -20 -20 -20 -20 -20 -20 -20 -20 -20 -20 -20 -20 -20 -20 -20 -20 -20 -20 -20 -20

GFSGL_prec_radar_093.txt.gz
Reflectivity
18 28 29 7 -0 8 -20 -20 -20 -20 -20 -20 -20 -18 -17 -20 -20 -20 18 24 28 37 33 28 26 28 33 23 26 21 29 14 2 30 25 17 6 -20 -3 -19 -20 1 -6
29 32 31 28 -8 -20 -18 -20 -20 -20 -20 -20 -20 -20 -20 -20 -20 -20 16 28 30 23 24 20 30 28 23 24 23 27 31 2 26 25 24 19 -19 -20 -20 15 5 17 24
26 36 31 29 30 -16 -8 -16 -20 -20 -20 -20 -20 -20 -20 -5 -18 1 -1 32 34 29 27 31 28 28 25 23 20 26 24 29 29 25 17 21 21 16 -20 -20 -2 9 7
18 21 27 36 29 -8 -2 -20 -20 -20 -20 -20 -20 -13 -19 -18 12 -7 4 20 31 30 31 30 36 28 31 28 27 26 24 24 23 21 12 24 22 7 7 20 5 1 1
19 28 41 37 27 -13 11 4 -20 -20 -20 -20 -20 -20 -20 -11 2 -1 21 21 28 30 28 27 30 28 33 29 26 27 26 22 25 19 25 17 20 27 20 15 -1 -8 15
23 33 34 47 24 3 3 6 -20 -20 -20 -20 -20 -20 -15 -20 17 11 11 15 13 26 22 29 34 30 25 25 27 27 29 29 27 18 10 20 15 -15 -19 -14 -7 25 2
8 40 29 29 39 10 11 -10 -20 -20 -20 -20 -20 -20 -20 5 12 -3 22 14 0 5 22 30 29 26 32 30 31 32 31 15 13 15 -3 -17 11 1 -20 -20 -20 -1 -14
14 37 14 36 45 38 18 8 -13 3 12 -10 -20 -12 7 3 13 13 17 12 21 23 -18 2 16 18 22 24 30 11 3 4 -10 -4 -13 0 -19 -16 -6 11 27 21 20
25 27 36 38 39 37 25 13 31 24 -14 -20 -20 -18 -13 12 10 11 24 -2 0 9 23 22 18 2 16 17 -6 -7 -5 -19 15 3 19 17 16 19 12 10 21 -11 7
15 -0 18 32 38 30 24 26 26 12 6 -0 -9 -19 15 -0 15 14 16 7 9 14 -4 0 18 16 22 10 -11 0 4 20 29 32 21 15 5 24 8 -20 -20 -20 -20
-12 11 11 9 24 22 23 33 24 25 20 21 21 15 9 15 11 16 15 11 21 18 15 5 18 17 8 16 21 18 22 10 24 4 -12 -5 -11 -20 -20 -20 -20 -20 -20
-1 -15 -6 -9 -2 10 15 18 26 25 29 26 20 22 24 18 26 23 20 26 20 26 23 25 22 30 25 24 19 16 14 13 -3 3 9 -14 -20 -20 -20 -20 -20 -20 -20
-20 -19 -6 5 11 9 -1 8 14 15 20 24 25 20 23 22 19 21 23 24 22 19 20 22 22 17 -0 -10 7 16 12 5 -16 -14 -20 -20 -20 -20 -20 -20 -10 -3 -8
-20 -20 -17 -12 -13 -2 4 11 13 16 17 16 17 16 20 20 22 24 24 22 24 25 25 23 10 5 1 4 4 -6 -6 8 -0 -19 -20 -19 -18 -3 -10 -20 -20 -16 -13
-20 -20 -18 -15 -12 -16 -5 2 3 4 0 6 9 10 16 21 23 21 18 18 17 18 17 18 20 20 20 20 22 21 20 20 19 18 11 8 7 7 -11 -20 -20 -20 -20
-20 -20 -12 -9 -14 -10 -19 -15 3 7 8 5 -2 0 9 14 14 13 15 15 14 13 9 11 15 17 19 19 19 19 18 16 10 -3 -17 -15 -3 -18 -20 -20 -20 -20 -20
-20 -10 -20 -20 -20 -0 -15 -20 -10 -8 -20 -10 -6 1 0 1 -1 -3 3 6 8 7 9 10 9 6 7 6 9 13 14 10 10 6 2 -7 -20 -20 -20 -20 -20 -20 -20
-20 -20 -20 -20 -20 -20 -20 -14 -8 -18 -18 -7 -7 -17 -19 -20 -19 -19 -20 -20 -19 -14 -14 -9 -6 -12 -20 -19 -12 -10 -10 -8 -14 -11 -14 -19 -20 -20 -20 -20 -20 -20 -20
-20 -20 -20 -20 -20 -20 -20 -20 -20 -20 -20 -20 -20 -20 -20 -20 -20 -18 -20 -16 -19 -20 -20 -20 -20 -20 -20 -20 -20 -20 -20 -20 -20 -20 -20 -20 -20 -20 -20 -20 -20 -20 -20
-20 -20 -20 -20 -20 -20 -20 -20 -20 -20 -20 -20 -20 -20 -20 -20 -20 -20 -20 -20 -20 -20 -20 -20 -20 -20 -20 -20 -20 -20 -20 -20 -20 -20 -20 -20 -20 -20 -20 -20 -20 -20 -20
-20 -20 -20 -20 -20 -20 -20 -20 -20 -20 -20 -20 -20 -20 -20 -20 -20 -20 -20 -20 -20 -20 -20 -20 -20 -20 -20 -20 -20 -20 -20 -20 -20 -20 -20 -20 -20 -20 -20 -20 -20 -20 -20
-20 -20 -20 -20 -20 -20 -20 -20 -20 -20 -20 -20 -20 -20 -20 -20 -20 -20 -20 -20 -20 -20 -20 -20 -20 -20 -20 -20 -20 -20 -20 -20 -20 -20 -20 -20 -20 -20 -20 -20 -20 -20 -20
-20 -20 -20 -20 -20 -20 -20 -20 -20 -20 -20 -20 -20 -20 -20 -20 -20 -20 -20 -20 -20 -20 -20 -20 -20 -20 -20 -20 -20 -20 -20 -20 -20 -20 -20 -20 -20 -20 -20 -20 -20 -20 -20
-20 -20 -20 -20 -20 -20 -20 -20 -20 -20 -20 -20 -20 -20 -20 -20 -20 -20 -20 -20 -20 -20 -20 -20 -20 -20 -20 -20 -20 -20 -20 -20 -20 -20 -20 -20 -20 -20 -20 -20 -20 -20 -20
-20 -20 -20 -20 -20 -20 -20 -20 -20 -20 -20 -20 -20 -20 -20 -20 -20 -20 -20 -20 -20 -20 -20 -20 -20 -20 -20 -20 -20 -20 -20 -20 -20 -20 -20 -20 -20 -20 -20 -20 -20 -20 -20
-20 -20 -20 -20 -20 -20 -20 -20 -20 -20 -20 -20 -20 -20 -20 -20 -20 -20 -20 -20 -20 -20 -20 -20 -20 -20 -20 -20 -20 -20 -20 -20 -20 -20 -20 -20 -20 -20 -20 -20 -20 -20 -20

GFSGL_prec_radar_096.txt.gz
Reflectivity
13 22 7 -18 -20 -14 33 6 12 -7 -20 -20 -16 1 15 13 -6 1 9 14 11 12 12 15 24 17 23 -3 30 27 25 25 20 10 6 -7 5 4 -3 -20 2 -20 -19
1 -12 -9 3 -9 35 28 27 25 -20 -20 -20 8 12 -0 -20 -19 -20 -20 -20 -4 -19 24 19 26 30 11 22 35 33 27 23 -18 18 11 7 13 -14 10 23 14 -20 -20
19 19 16 19 23 21 27 7 -18 -20 -20 -20 -20 -20 -15 -20 -20 3 -20 -20 -20 8 29 23 32 23 12 30 22 30 23 19 21 27 29 21 -1 -6 13 10 1 14 17
27 26 25 28 33 27 26 -12 -20 -20 -20 -20 -5 11 8 -17 -20 -20 -20 -17 -2 13 25 22 22 28 23 29 18 25 27 24 25 27 27 24 25 27 24 26 20 -2 -9
10 10 15 18 33 38 25 22 -9 -20 -15 -14 -17 -16 -20 -20 -20 -20 -20 0 -8 10 19 23 21 32 30 31 28 30 25 24 28 26 25 27 25 27 27 29 27 10 -2
16 9 18 22 33 37 37 17 12 13 12 -20 -20 -20 -20 -20 3 -9 -20 13 25 19 22 28 29 27 35 33 32 35 27 22 21 21 28 26 23 24 28 30 27 25 22
23 15 31 29 31 30 39 40 15 21 13 -13 -15 -20 -20 -20 -19 2 7 -20 -3 20 3 16 23 31 35 32 32 32 30 30 28 28 25 24 22 24 21 22 17 20 -12
9 35 14 25 34 40 42 32 27 19 8 1 10 -20 -20 -20 -20 5 7 6 5 18 11 10 23 24 34 30 30 34 32 29 29 30 20 27 26 1 -5 26 -2 10 11
10 9 22 38 25 38 38 32 30 16 3 -4 -20 -20 -20 -20 -10 -3 11 7 0 22 20 27 -12 4 34 19 20 22 24 28 29 24 26 21 11 12 9 1 2 21 25
0 -2 14 24 28 34 38 37 33 23 28 20 8 -3 15 -20 7 -4 7 -14 14 13 -3 27 25 26 33 22 9 23 14 26 29 11 25 6 13 16 28 18 16 10 6
-12 5 -17 -20 -10 19 19 25 33 30 24 29 15 13 10 11 7 9 14 5 -1 5 15 15 12 23 23 24 17 11 8 24 17 3 19 23 30 24 30 26 18 7 -9
-20 -20 -20 -20 -19 -17 -15 5 20 11 22 21 19 22 15 19 25 17 18 23 20 16 11 7 15 22 21 20 6 16 14 17 2 4 11 7 5 8 -2 -8 -3 -4 -4
-20 -20 -20 -20 -20 -20 -20 -20 -20 -3 6 12 20 21 19 24 22 20 19 20 18 13 12 18 20 21 20 18 17 13 11 -1 -1 11 10 7 0 1 -2 -3 -20 -20 -20
-20 -20 -20 -20 -20 -20 -20 -20 -20 -20 -16 -5 -9 -4 10 13 15 15 12 17 21 21 20 15 13 13 13 12 12 13 13 15 11 12 11 11 8 -1 -16 -17 -14 -2 1
-20 -20 -20 -20 -20 -20 -20 -20 -20 -19 -20 -20 -19 -18 -17 -18 -1 -4 7 13 16 17 17 14 13 16 18 18 19 20 19 19 16 5 6 8 11 8 9 13 14 12 9
-20 -20 -20 -20 -20 -20 -20 -20 -11 3 -8 -20 -20 -20 -20 -2 -1 -1 -3 -4 1 3 3 3 8 14 15 15 15 15 15 12 12 10 3 2 4 7 7 9 10 7 6
-20 -20 -20 -20 -20 -20 -20 -20 -20 -20 -20 -14 -1 2 -3 -20 -20 -19 -12 -4 -6 -6 -1 -3 0 4 9 13 14 15 15 13 10 9 9 9 12 13 12 11 10 9 7
-20 -20 -20 -20 -20 -20 -20 -20 -20 -20 -20 -20 -19 -20 -20 -20 -20 -20 -20 -20 -20 -18 -14 -18 -20 -14 -14 -15 -9 -5 -4 -7 -7 -8 -9 -6 -5 -18 -18 -18 -20 -20 -20
-20 -20 -20 -20 -20 -20 -20 -20 -20 -20 -20 -20 -20 -20 -20 -20 -20 -20 -20 -20 -20 -20 -20 -20 -20 -20 -20 -20 -20 -20 -20 -19 -17 -17 -20 -20 -20 -20 -20 -20 -20 -20 -20
-20 -20 -20 -20 -20 -20 -20 -20 -20 -20 -20 -20 -20 -20 -20 -20 -20 -20 -20 -20 -20 -20 -20 -20 -20 -20 -20 -20 -20 -20 -20 -20 -20 -20 -20 -20 -20 -20 -20 -20 -20 -20 -20
-20 -20 -20 -20 -20 -20 -20 -20 -20 -20 -20 -20 -20 -20 -20 -20 -20 -20 -20 -20 -20 -20 -20 -20 -20 -20 -20 -20 -20 -20 -20 -20 -20 -20 -20 -20 -20 -20 -20 -20 -20 -20 -20
-20 -20 -20 -20 -20 -20 -20 -20 -20 -20 -20 -20 -20 -20 -20 -20 -20 -20 -20 -20 -20 -20 -20 -20 -20 -20 -20 -20 -20 -20 -20 -20 -20 -20 -20 -20 -20 -20 -20 -20 -20 -20 -20
-20 -20 -20 -20 -20 -20 -20 -20 -20 -20 -20 -20 -20 -20 -20 -20 -20 -20 -20 -20 -20 -20 -20 -20 -20 -20 -20 -20 -20 -20 -20 -20 -20 -20 -20 -20 -20 -20 -20 -20 -20 -20 -20
-20 -20 -20 -20 -20 -20 -20 -20 -20 -20 -20 -20 -20 -20 -20 -20 -20 -20 -20 -20 -20 -20 -20 -20 -20 -20 -20 -20 -20 -20 -20 -20 -20 -20 -20 -20 -20 -20 -20 -20 -20 -20 -20
-20 -20 -20 -20 -20 -20 -20 -20 -20 -20 -20 -20 -20 -20 -20 -20 -20 -20 -20 -20 -20 -20 -20 -20 -20 -20 -20 -20 -20 -20 -20 -20 -20 -20 -20 -20 -20 -20 -20 -20 -20 -20 -20
-20 -20 -20 -20 -20 -20 -20 -20 -20 -20 -20 -20 -20 -20 -20 -20 -20 -20 -20 -20 -20 -20 -20 -20 -20 -20 -20 -20 -20 -20 -20 -20 -20 -20 -20 -20 -20 -20 -20 -20 -20 -20 -20

GFSGL_prec_radar_099.txt.gz
Reflectivity
23 20 -1 -15 2 -7 -5 -10 3 17 31 31 20 13 -16 -10 -3 -2 4 4 8 4 13 -2 -11 -15 -4 -1 -3 -18 -19 23 27 24 26 21 0 5 -10 -18 0 -20 -15
28 30 20 -2 20 17 -14 -19 -11 11 26 11 15 0 -7 -20 -11 -5 15 6 2 -13 -16 17 -0 2 28 -2 9 29 13 15 25 26 28 6 -19 -20 -20 -20 -20 -20 -20
27 14 15 -5 23 28 21 -17 -20 -19 25 15 4 16 -19 -18 -0 3 -1 -18 -10 -20 -17 -20 -11 20 27 6 4 16 24 13 26 15 24 20 9 -20 -3 -20 -20 -20 -20
14 21 16 14 19 21 10 28 -20 -16 16 15 -8 -20 -20 -19 -16 -20 -20 -5 -20 -14 -20 -16 8 27 10 24 8 19 24 26 29 23 21 22 -5 -20 -20 -16 -10 -1 16
35 19 15 14 12 6 7 9 18 -6 27 -18 -20 -20 -20 -20 -19 -9 5 -12 -15 -20 -20 -20 -11 15 14 27 19 23 25 29 22 21 23 21 1 -0 -12 -17 -20 -18 11
19 32 28 -8 -9 21 22 17 42 16 15 -17 -20 -18 -20 -20 7 10 8 -20 -20 -20 -20 -7 16 21 20 27 26 25 31 32 32 23 19 20 24 24 24 24 26 28 23
7 32 22 26 23 23 33 27 41 43 21 22 -4 -20 -20 -12 5 9 12 -20 -20 -20 -10 -10 13 29 29 24 21 27 33 32 33 22 22 28 29 28 29 26 25 24 25
-10 -1 26 11 26 13 12 32 41 42 33 24 15 -6 -20 -20 -7 15 15 -19 -20 -19 2 -17 6 9 27 29 30 36 36 36 35 32 29 29 27 25 17 22 24 23 17
14 3 5 9 10 26 36 38 40 42 32 13 4 4 -14 -20 -11 10 18 -20 -16 -20 2 8 6 5 2 24 32 33 33 36 34 34 37 34 35 32 29 25 23 21 22
-16 0 1 4 4 16 24 35 36 36 40 27 4 2 13 -18 4 18 16 -16 -20 7 -20 11 22 11 13 14 18 24 26 19 11 21 27 25 22 23 25 1 14 28 12
-15 -20 -20 -17 -4 2 21 27 28 30 35 29 24 15 10 10 19 21 18 5 -4 -19 -3 0 0 6 16 15 17 16 19 23 21 22 21 27 28 24 14 10 13 10 22
-20 -20 -20 -20 -20 -20 1 12 19 25 29 34 31 26 35 24 27 34 26 19 17 11 7 -5 8 9 14 12 15 20 22 16 6 12 9 17 24 19 10 20 26 19 9
-20 -20 -20 -20 -20 -20 -20 -17 -11 8 13 10 19 23 19 17 14 14 14 14 12 11 1 17 20 16 7 11 18 16 14 -1 -3 -1 10 9 8 14 14 14 19 19 16
-20 -20 -20 -20 -20 -20 -20 -20 -20 -20 -20 -3 -0 -9 8 13 7 5 9 12 14 15 15 13 10 2 5 14 16 16 16 14 -0 10 15 18 16 14 16 14 10 9 7
-20 -20 -20 -20 -20 -20 -8 4 3 6 -0 -3 0 -1 -20 -2 1 -2 -12 -7 3 6 11 7 -7 -4 5 12 14 14 13 16 19 21 18 17 17 17 14 15 15 12 6
-20 -20 -20 -20 -20 -20 -20 -20 -20 -8 1 -4 -13 1 8 3 -15 -15 -19 -16 -10 0 -11 -9 -14 -18 -12 -2 3 5 6 10 12 13 14 16 15 14 13 11 11 8 3
-20 -20 -20 -20 -20 -20 -20 -20 -20 -20 -20 -19 -3 -1 -17 -7 -20 -20 -20 -20 -20 -20 -20 -20 -15 -8 -14 -20 -20 -20 -14 -5 2 6 7 8 7 6 4 4 3 2 1
-20 -20 -20 -20 -20 -20 -20 -20 -20 -20 -20 -20 -20 -20 -2 -20 -20 -20 -20 -20 -20 -20 -20 -20 -20 -18 -9 -16 -18 -15 -19 -19 -19 -17 -11 -9 -8 -6 -5 -4 -6 -8 -10
-20 -20 -20 -20 -20 -20 -20 -20 -20 -20 -20 -20 -20 -20 -20 -20 -20 -20 -20 -20 -20 -20 -20 -20 -20 -20 -20 -20 -20 -20 -20 -20 -20 -20 -20 -20 -20 -20 -20 -20 -20 -20 -20
-20 -20 -20 -20 -20 -20 -20 -20 -20 -20 -20 -20 -20 -20 -20 -20 -20 -20 -20 -20 -20 -20 -20 -20 -20 -20 -20 -20 -20 -20 -20 -20 -20 -20 -20 -20 -20 -20 -20 -20 -20 -20 -20
-20 -20 -20 -20 -20 -20 -20 -20 -20 -20 -20 -20 -20 -20 -20 -20 -20 -20 -20 -20 -20 -20 -20 -20 -20 -20 -20 -20 -20 -20 -20 -20 -20 -20 -20 -20 -20 -20 -20 -20 -20 -20 -20
-20 -20 -20 -20 -20 -20 -20 -19 -20 -20 -20 -20 -20 -20 -20 -20 -20 -20 -20 -20 -20 -20 -20 -20 -20 -20 -20 -20 -20 -20 -20 -20 -20 -20 -20 -20 -20 -20 -20 -20 -20 -20 -20
-20 -20 -20 -20 -20 -20 -20 -20 -20 -20 -20 -20 -20 -20 -20 -20 -20 -20 -20 -20 -20 -20 -20 -20 -20 -20 -20 -20 -20 -20 -20 -20 -20 -20 -20 -20 -20 -20 -20 -20 -20 -20 -20
-20 -20 -20 -20 -20 -20 -20 -20 -20 -20 -20 -20 -20 -20 -20 -20 -20 -20 -20 -20 -20 -20 -20 -20 -20 -20 -20 -20 -20 -20 -20 -20 -20 -20 -20 -20 -20 -20 -20 -20 -20 -20 -20
-20 -20 -20 -20 -20 -20 -20 -20 -20 -20 -20 -20 -20 -20 -20 -20 -20 -20 -20 -20 -20 -20 -20 -20 -20 -20 -20 -20 -20 -20 -20 -20 -20 -20 -20 -20 -20 -20 -20 -20 -20 -20 -20
-20 -20 -20 -20 -20 -20 -20 -20 -20 -20 -20 -20 -20 -20 -20 -20 -20 -20 -20 -20 -20 -20 -20 -20 -20 -20 -20 -20 -20 -20 -20 -20 -20 -20 -20 -20 -20 -20 -20 -20 -20 -20 -20

GFSGL_prec_radar_102.txt.gz
Reflectivity
13 21 25 20 18 15 10 -3 10 -12 9 -20 -20 -4 10 29 25 33 -13 -16 9 -15 15 6 4 2 7 3 11 19 21 19 -14 14 -3 -0 17 25 22 25 5 -15 -19
12 12 21 27 22 13 18 28 14 8 11 1 -1 12 27 18 20 -2 16 -18 5 9 4 -5 14 1 -14 6 15 4 -20 -14 -2 -15 3 25 26 24 27 31 6 18 -17
4 20 13 17 28 27 29 32 29 18 8 15 9 8 29 27 23 -15 -3 -10 -9 -16 -2 11 -0 17 8 -19 -6 12 -10 21 19 9 1 21 23 23 31 24 -20 21 -4
32 11 21 28 24 27 12 39 26 30 14 -6 1 -15 25 15 -5 1 10 12 2 10 22 13 15 11 9 -17 6 20 25 17 12 22 21 16 14 27 19 11 -8 -16 -20
26 35 24 30 24 45 34 24 28 23 16 -20 -20 -2 11 -20 -20 -16 4 4 6 -10 -20 4 -20 0 7 0 24 21 24 16 24 20 23 21 16 18 21 17 -11 -20 -7
20 21 30 17 23 5 20 11 12 25 15 12 14 12 -11 -20 7 13 12 -20 -16 -7 -18 -20 -20 12 -7 14 22 29 25 16 27 22 23 19 18 26 2 10 15 -20 -4
-10 -8 33 36 28 17 21 29 35 27 23 27 0 4 6 10 18 12 4 -9 8 -19 -20 -20 -20 -20 -1 24 20 27 23 26 27 25 27 27 13 19 15 -9 17 -17 10
-15 2 13 22 25 32 29 3 29 37 43 44 30 22 15 -2 5 13 15 -9 4 -18 -20 -20 -20 -20 -10 2 27 30 27 29 30 31 29 30 28 32 32 22 24 32 32
-10 -15 -2 1 8 7 10 8 25 25 27 31 37 36 -7 2 12 6 14 -16 -19 -20 -20 -10 -17 -8 -0 4 3 24 27 28 33 33 34 32 31 33 31 32 31 26 24
-17 4 4 2 -14 -13 13 19 23 32 27 36 41 23 27 4 14 8 9 2 15 1 -20 -9 16 17 8 12 -10 5 21 18 21 21 21 30 35 31 34 30 31 28 29
3 4 1 1 2 3 5 18 24 28 31 36 36 32 27 28 11 14 10 -4 16 -5 -16 -7 -20 3 15 7 14 14 28 21 24 13 18 16 23 26 27 25 27 24 22
-1 1 -16 -13 3 3 1 8 24 26 27 29 30 32 31 29 30 25 22 18 18 12 -6 -7 7 4 4 8 10 19 22 15 9 20 25 21 20 20 22 25 29 30 25
-8 -4 0 2 1 0 -7 -15 3 18 18 19 23 27 30 29 28 25 22 21 13 16 20 21 17 8 5 -13 -3 8 10 4 21 18 5 9 11 12 11 22 15 21 22
-20 -20 -20 -6 -3 0 -19 -16 -20 -1 2 7 15 14 14 18 17 19 22 24 21 23 23 24 20 11 11 11 6 14 10 -0 6 6 18 20 13 12 16 19 18 22 22
-20 -20 -20 -20 -20 -11 -14 -18 5 6 0 3 4 3 9 12 9 5 7 -0 8 13 16 19 19 12 6 11 11 7 1 4 11 20 20 19 18 17 8 -10 -2 7 10
-20 -20 -20 -20 -20 -20 -20 -3 -20 -20 -6 -18 -20 -0 -2 -12 -6 7 0 -3 -3 6 7 -3 -0 5 5 4 2 -2 -1 -0 0 1 7 13 15 14 10 1 -1 3 1
-20 -20 -20 -20 -20 -20 -6 -1 0 -20 -20 -20 -6 -7 -20 -20 -20 -20 -20 -19 -20 -13 -18 -5 -2 -3 -17 -20 -20 -20 -20 -20 -20 -11 -1 1 2 3 4 4 -5 -19 -19
1 -1 2 -1 -3 -1 0 2 -1 -7 -14 -7 -20 -20 -20 -20 -20 -20 -20 -20 -20 -20 -20 -20 -20 -20 -20 -20 -20 -20 -20 -20 -20 -20 -20 -19 -11 -5 -1 3 1 -15 -20
-19 -0 1 1 -2 -2 -2 -2 -3 -12 -12 -13 -9 -17 -20 -20 -20 -20 -20 -20 -20 -20 -20 -20 -20 -20 -20 -20 -20 -20 -20 -20 -20 -20 -20 -19 -15 -11 -7 -4 -3 -4 -15
-20 -20 -17 -6 -20 -20 -20 -20 -20 -20 -20 -20 -20 -20 -20 -20 -16 -20 -1 -2 -20 -20 -20 -20 -20 -20 -20 -20 -20 -20 -20 -20 -20 -20 -20 -20 -20 -20 -20 -20 -20 -20 -20
-8 -20 -20 -20 -20 -19 -20 -19 -17 -6 -20 -20 -20 -20 -20 -20 -20 -4 -5 1 -8 -4 -1 -20 -19 -6 -6 -20 -20 -20 -20 -20 -20 -20 -20 -20 -20 -20 -20 -20 -20 -20 -20
-20 -20 -20 -11 -9 -2 -13 -7 -1 -2 -3 -2 -0 -20 -20 -1 -3 -14 -2 2 4 -0 -4 0 -14 -20 -20 -20 -20 -20 -20 -20 -20 -20 -20 -20 -20 -20 -20 -20 -20 -20 -20
-20 -11 -14 -20 0 -0 3 1 3 3 2 2 2 2 1 4 2 -1 1 2 -0 2 -1 2 1 -5 -20 -13 -20 -20 -20 -20 -20 -20 -20 -20 -20 -20 -20 -20 -20 -20 -20
-20 -7 -20 -7 2 0 4 7 7 -17 1 4 7 4 4 5 5 2 2 2 1 2 1 -2 -18 -20 -20 -2 -5 -20 -20 -20 -20 -20 -20 -20 -20 -20 -20 -20 -20 -20 -20
-0 -0 -1 1 4 6 5 6 7 9 9 8 8 9 6 5 3 5 4 3 -4 3 -1 -4 -2 -18 -20 -20 -20 -20 -20 -20 -20 -20 -20 -20 -20 -20 -20 -20 -20 -20 -20
-2 -2 2 3 3 3 4 5 5 7 7 2 10 10 9 8 7 8 5 4 2 2 -2 2 1 -3 -15 -4 -14 -20 -20 -20 -20 -20 -20 -20 -20 -20 -20 -20 -20 -20 -20

GFSGL_prec_radar_105.txt.gz
Reflectivity
-20 -17 15 -1 -17 27 24 37 -20 -12 -5 20 -2 18 -19 -6 -11 1 19 41 31 25 5 -2 -4 -6 20 9 -1 16 -1 8 8 17 2 -18 -20 -20 -1 13 4 6 18
-20 -18 -17 -13 -2 -10 30 -16 -15 -9 -17 37 -17 -10 4 4 -9 19 31 21 23 9 6 7 -17 10 12 8 8 -11 -5 15 6 16 2 -20 -20 -5 4 9 27 24 19
-20 -20 -1 -4 3 5 1 5 2 8 3 1 -16 13 9 2 2 12 32 43 32 28 16 1 2 9 -15 2 7 6 12 12 12 21 -20 -16 -15 -6 18 31 29 22 12
-20 -14 21 -4 14 16 16 26 20 23 15 10 27 19 6 9 14 -6 13 20 29 17 -16 5 -2 -11 -7 5 -16 5 6 2 9 4 -4 7 23 11 28 21 21 11 20
1 17 36 39 25 40 25 41 27 23 24 31 25 9 -9 -11 -3 -17 3 20 -11 5 -20 -14 -20 6 10 -9 -13 -11 0 14 -1 3 22 7 29 28 15 5 9 18 29
11 12 13 9 26 15 14 18 39 28 39 10 19 15 18 -16 12 -4 9 -19 -7 -20 -20 -19 14 -1 -10 -20 -20 20 16 -13 19 23 18 18 26 13 7 4 -3 15 27
18 13 7 5 29 36 27 28 37 35 30 37 30 21 15 -19 16 10 6 -20 -19 -16 -0 -20 -17 -17 8 -20 -20 5 16 25 27 24 21 24 28 24 16 20 26 24 10
10 14 15 9 21 33 29 26 12 -13 5 33 35 28 29 9 19 14 3 -16 0 15 -13 -12 -19 -5 -15 -20 -20 -20 16 29 29 30 25 23 27 31 22 28 32 20 26
8 8 17 25 12 15 17 14 -5 5 18 32 34 30 33 28 28 34 25 -20 -20 -20 -4 -9 5 4 3 8 -17 -20 2 25 36 36 35 32 34 36 28 24 30 25 27
3 11 19 21 16 9 6 -0 3 10 16 17 21 31 41 40 42 40 20 -19 -19 -18 -20 -18 -6 8 7 13 -13 -20 -8 6 28 35 36 36 33 30 32 29 29 30 26
3 -6 -3 7 -2 10 2 1 20 30 23 23 23 27 27 31 35 38 30 11 15 -10 -12 15 15 22 12 11 19 -14 -7 -1 10 15 31 28 28 30 27 32 26 27 30
-20 -3 -9 -20 -14 -5 -10 -0 6 22 20 24 27 30 30 30 33 29 26 25 22 14 20 11 10 20 3 -4 14 20 17 16 -2 -4 13 22 23 23 20 27 26 24 27
-6 -20 -10 -18 -20 -9 -12 -6 -20 1 2 15 19 23 26 27 28 28 29 29 27 26 29 23 27 11 11 16 16 23 18 7 2 11 11 18 17 17 21 27 25 25 21
-20 -20 -20 -9 -10 -15 -20 -16 -20 -8 4 0 9 12 18 21 23 24 25 24 28 27 25 24 22 20 19 20 16 14 10 6 14 16 7 15 19 16 19 27 24 19 19
-20 -20 -20 -20 -18 -14 -20 -20 -10 4 -2 -1 6 6 12 13 15 14 15 16 15 19 21 19 13 15 15 19 20 21 21 20 18 12 13 6 12 16 8 16 18 17 10
-20 -20 -20 -20 -20 -20 -18 -20 -20 -20 -17 -3 -5 -7 2 4 6 7 6 10 13 10 12 15 6 4 9 15 18 15 15 15 16 17 15 11 0 -1 6 15 17 20 19
-20 -20 -20 -20 -20 -20 -20 -20 -8 -20 -20 -20 -20 -20 -20 -20 -20 -20 -14 -8 -4 -5 3 4 4 10 12 5 -3 -15 -17 -17 -17 -16 -7 4 7 6 -0 -8 -5 1 3
2 1 2 0 -0 0 1 1 -1 -2 -4 2 -20 -20 -20 -20 -20 -20 -20 -20 -20 -16 -11 -6 -8 -3 -0 0 5 3 -1 -20 -20 -20 -20 -20 -20 -20 -20 -20 -20 -20 -20
-4 -9 4 4 -0 -1 -1 -1 -3 -5 -18 -20 -20 -20 -20 -20 -20 -20 -20 -20 -20 -20 -20 -20 -20 -20 -20 -20 -20 -16 -20 -8 -13 -20 -20 -20 -20 -20 -20 -20 -20 -20 -20
-16 -20 -20 -2 -16 -4 -4 -4 -3 -1 -2 -4 -12 -20 -20 -20 -7 -5 -4 -1 -16 -20 -20 -20 -20 -20 -20 -19 -1 -1 -4 -20 -16 -17 -2 -1 -13 -20 -20 -20 -20 -20 -20
-20 -20 -20 -20 -20 -12 -20 -20 -17 -4 -4 -3 -3 -20 -20 -18 -7 -3 -2 0 -4 -5 2 -8 -1 -1 -5 -20 -20 -20 -19 -19 -20 -20 -20 -16 -20 -20 -20 -20 -20 -20 -20
-20 -20 -20 -20 -20 -16 -15 -20 -3 1 -0 -0 -1 -14 -14 3 -1 -1 -2 4 4 -2 -3 2 -10 -15 -20 -4 -15 -13 -10 -4 -15 -15 -20 -20 -20 -20 -20 -20 -20 -20 -20
-20 -11 -20 -20 -11 -20 -0 2 4 1 2 6 6 6 5 6 5 3 6 6 2 5 -3 3 3 -1 -1 -2 -7 -14 -20 -20 -20 -20 -11 -20 -20 -20 -20 -20 -20 -20 -20
-20 -3 -20 -5 -0 -0 3 2 6 6 9 9 8 8 8 6 9 10 7 3 4 5 6 3 -5 -18 -7 1 -1 -19 -20 -20 -20 -20 -20 -20 -20 -20 -10 -20 -20 -20 -20
-1 -1 -1 1 2 3 3 4 4 8 7 5 13 9 9 11 9 9 9 8 -2 6 -1 -3 1 -3 -19 -20 -20 -20 -20 -20 -20 -20 -20 -20 -20 -20 -20 -20 -20 -20 -20
2 0 2 4 3 4 4 6 4 6 5 8 7 9 9 8 8 9 12 -7 3 4 -19 3 0 -20 -8 -12 -17 -20 -20 -20 -20 -20 -20 -20 -20 -5 -14 -20 -20 -20 -20

GFSGL_prec_radar_111.txt.gz
Reflectivity
-20 -20 -20 -20 -20 -20 -20 16 15 9 16 -3 -20 -17 -20 -18 28 26 4 -14 12 5 33 7 20 -15 -3 -16 21 18 26 -20 5 -20 -20 -20 -7 -4 -14 18 -19 -18 -5
-20 -20 -20 -20 -20 -20 -20 -20 -14 -19 -20 -20 18 5 -10 5 28 25 35 27 14 17 -16 26 6 29 36 30 -5 20 28 25 4 3 -20 -20 -20 -20 -20 -20 -16 -17 24
-20 -20 -20 -20 -20 -20 -20 -20 -20 -20 -20 -20 -20 -20 24 13 33 6 22 22 -4 -11 32 32 11 40 27 -3 10 25 16 -13 13 -19 -20 -20 -20 -20 -17 -20 -17 -17 -18
-20 -20 -20 -19 -17 -20 -20 -20 -20 -20 -20 -20 -18 -18 -20 28 41 32 26 22 7 21 32 29 -1 -18 -20 13 20 21 24 12 14 -7 -1 -20 4 -20 -17 -20 3 2 -9
-20 -20 -19 -12 -14 -20 -20 -20 -20 -20 -20 -20 -7 21 11 37 35 34 23 27 -5 28 29 -20 -18 21 15 21 29 6 18 11 7 12 14 -2 3 1 -10 -3 -19 2 -1
-20 0 -5 -13 3 -18 -20 -20 -20 -7 6 -12 -20 -20 -12 15 24 27 31 30 23 27 -20 -20 22 2 28 26 13 -19 8 17 7 20 9 -11 -20 13 5 -15 17 28 30
-17 -6 -1 -3 -7 -7 -20 -20 -20 -14 1 6 -13 -6 -10 20 27 24 28 24 22 22 -11 -20 -20 11 24 8 8 11 8 -2 18 17 -15 11 -8 -20 -6 -14 -17 -7 -4
-17 -14 -9 -17 -20 -6 -2 -12 -20 -18 -5 1 5 3 13 25 25 36 45 27 27 30 34 3 12 14 2 17 14 26 2 -12 -13 -12 -10 -10 8 17 -13 20 26 24 20
-13 -9 2 12 12 10 13 13 7 5 4 14 8 -0 1 17 33 30 30 29 48 22 22 18 11 13 27 24 10 -18 -20 -20 -5 -2 9 1 -15 16 29 28 24 25 27
9 6 2 6 6 10 -3 8 14 13 16 18 15 8 2 8 32 21 28 37 36 24 19 11 30 28 35 4 -0 -19 -18 -20 -20 -20 -18 -0 -8 18 22 13 3 22 17
-14 -20 -20 -20 2 2 -2 -20 -18 -17 -20 -11 0 -1 12 17 18 33 24 30 33 21 30 30 21 23 29 19 19 -2 9 -4 5 0 -20 -20 -20 -8 10 14 21 24 24
-9 -19 -15 -20 -18 -17 -6 -20 -20 -20 -20 -20 -20 -18 -20 -10 7 18 33 20 25 30 32 28 26 29 26 17 18 15 8 8 0 -17 -20 -18 -1 -1 2 11 22 17 28
-20 -20 -20 -20 -20 -20 -20 -20 -20 -20 -20 -20 -20 -20 -20 -20 -6 -14 6 20 24 26 28 29 30 29 23 19 18 9 7 2 6 -5 -14 -10 -3 -6 2 2 7 15 13
-20 -20 -20 -20 -20 -20 -20 -20 -20 -20 -20 -20 -20 -20 -20 -20 -20 -20 -8 -8 -2 11 20 22 23 24 24 24 25 21 20 2 16 17 -1 8 4 8 12 13 5 16 18
-20 -20 -20 -20 -20 -20 -20 -20 -20 -20 -20 -20 -19 -20 -20 -19 -7 -20 -20 -6 -3 -6 -7 -2 9 16 19 21 22 25 26 24 16 15 11 12 15 11 8 16 20 19 12
-20 -20 -20 -20 -20 -20 -20 -20 -14 -19 -20 -20 -20 -6 -16 -13 2 -20 -20 -20 -16 -7 -2 -3 -8 -20 -12 8 17 21 22 22 20 18 18 18 15 18 15 13 11 12 10
-20 -20 -20 -20 -20 -20 -20 -15 -20 -9 -20 -20 -20 -20 -3 -1 -14 1 -18 -20 -20 -20 -20 -6 -3 -1 -4 -20 -20 -9 3 11 16 17 15 15 12 10 12 11 14 14 13
-20 -20 -20 -20 -20 -20 -20 -20 -20 -20 -20 -20 -20 -20 -20 -3 -12 -20 -20 -20 -20 -20 -20 -20 -18 -11 -9 -4 -8 -19 -20 -20 -17 -15 -0 12 15 16 12 11 10 3 -0
-20 -20 -20 -20 -20 -20 -20 -20 -20 -20 -20 -20 -20 -20 -20 -19 -20 -20 -20 -20 -20 -20 -12 -11 -20 -20 -20 -20 -20 -19 -13 -17 -18 -20 -20 -20 -18 -14 -5 4 11 14 14
-20 -20 -20 -20 -20 -20 -20 -20 -20 -20 -20 -20 -20 -20 -20 -20 -20 -20 -20 -20 -20 -20 -20 -20 -20 -20 -20 -20 -20 -20 -20 -20 -20 -20 -20 -20 -20 -20 -20 -20 -20 -7 7
-20 -20 -20 -20 -20 -20 -20 -20 -20 -20 -20 -19 -20 -20 -20 -20 -20 -20 -20 -20 -20 -20 -20 -20 -20 -20 -20 -20 -20 -20 -20 -20 -20 -20 -20 -20 -20 -20 -20 -20 -20 -20 -20
-20 -20 -20 -20 -20 -20 -20 -20 -20 -20 -20 -20 -2 -16 -20 -20 -20 -20 -20 -20 -20 -20 -20 -20 -20 -20 -20 -20 -20 -20 -20 -20 -20 -20 -20 -20 -20 -20 -20 -20 -20 -20 -20
-20 -20 -20 -20 -20 -20 -20 -20 -20 -20 -20 -20 -20 -20 -4 -19 -20 -20 -20 -20 -20 -20 -20 -20 -20 -20 -20 -20 -20 -20 -20 -20 -20 -20 -20 -20 -20 -20 -20 -20 -20 -20 -20
-20 -20 -20 -20 -20 -20 -20 -20 -20 -20 -20 -20 -20 -20 -20 -20 -20 -20 -20 -20 -20 -20 -20 -20 -20 -20 -20 -20 -20 -20 -20 -20 -20 -20 -20 -20 -20 -20 -20 -20 -20 -20 -20
-20 -20 -20 -20 -20 -20 -20 -20 -20 -20 -20 -20 -20 -20 -20 -20 -20 -20 -20 -20 -20 -20 -20 -20 -20 -20 -20 -20 -20 -20 -20 -20 -20 -20 -20 -20 -20 -20 -20 -20 -20 -20 -20
-20 -20 -20 -20 -20 -20 -20 -20 -20 -20 -19 -7 -19 -20 -20 -20 -20 -20 -20 -20 -20 -20 -20 -20 -20 -20 -20 -20 -20 -20 -20 -20 -20 -20 -20 -20 -20 -20 -20 -20 -20 -20 -20

GFSGL_prec_radar_114.txt.gz
Reflectivity
-20 -20 -20 -20 -20 -20 -20 -20 -20 -20 -20 -20 -2 9 8 12 -1 -20 -20 -20 -12 13 17 18 -20 -20 -19 -10 32 25 24 -9 -15 3 -20 -20 -20 11 13 -20 -18 -10 -14
-20 3 5 -20 -20 -20 -20 -20 -20 -20 -20 -20 -20 -20 -20 -20 -16 4 21 -20 -20 28 -6 29 -20 23 -17 -2 35 -7 -20 28 17 14 -20 -20 -20 -12 9 -4 -20 -19 23
-19 -20 -12 -20 -20 -20 -20 -20 -20 -20 -20 -20 -20 -20 -20 -20 -20 13 25 27 24 20 -20 -20 0 -18 20 -20 -18 -20 -20 21 22 31 26 10 -20 -20 2 1 -9 -16 1
-20 -17 -13 -20 -20 -20 -20 -20 -20 -20 -20 -20 -20 -20 -20 -20 -20 -20 -20 6 20 7 -2 -20 27 26 1 -18 -2 33 31 28 22 23 10 8 -20 -19 8 11 -1 -19 -20
-20 -16 -18 -4 2 -6 -13 -20 -20 -20 -20 -5 13 9 6 -10 3 8 2 9 33 31 36 26 24 41 44 35 10 11 15 27 25 26 15 -20 3 11 4 -20 -20 -20 4
-20 -20 -20 -20 -20 1 -20 -19 -20 -20 -20 5 -4 2 -6 -1 20 12 19 25 28 42 27 22 43 14 -8 11 -17 -8 18 9 20 24 -20 -11 5 -20 7 -7 -18 19 11
-20 -20 -20 -20 -20 -18 -17 -19 -9 1 -11 -20 -9 5 6 3 15 28 28 20 14 35 37 23 20 9 10 -20 11 31 34 33 26 -20 -20 1 -18 -20 -9 -20 -20 -20 -18
-20 -20 -20 -20 -18 -3 3 3 -1 9 9 -11 4 11 15 23 27 19 25 28 22 31 32 31 33 4 -2 8 22 32 24 14 15 8 11 -3 -0 -19 -15 -18 -20 -19 13
-14 -20 -19 -19 -20 -20 -20 -20 -12 -19 -11 4 4 12 19 22 33 25 25 25 21 30 29 33 9 22 30 25 25 41 17 14 13 12 17 18 10 15 13 17 6 25 13
-8 1 -5 -4 -20 -20 -20 -20 -16 -12 -11 -15 -0 -9 10 16 19 22 19 18 30 29 36 39 43 36 32 22 18 26 47 15 18 9 -20 -20 -12 -7 11 5 -3 11 20
-0 -20 -20 -20 -20 -20 -18 -11 0 4 5 6 7 3 7 10 -1 6 22 19 19 22 25 31 30 31 37 19 28 28 31 16 3 -5 -20 -20 -20 -20 -20 -11 2 7 -8
-20 -20 -20 -20 -20 -20 -8 -7 -4 0 -0 2 5 1 2 0 -6 5 8 3 9 18 23 26 30 26 28 23 38 32 35 16 5 10 12 -20 -7 -12 -14 5 -7 -3 14
-20 -20 -20 -20 -20 -20 -20 -20 -20 -19 -6 -8 -20 -19 -20 -19 -20 -3 -1 4 9 7 9 14 17 16 25 29 29 25 27 15 8 3 1 -5 13 3 -11 -9 -8 4 4
-20 -20 -20 -20 -20 -20 -20 -20 -20 -20 -20 -20 -20 -20 -20 -5 -20 -20 -10 3 4 6 3 8 -3 -9 12 19 23 26 28 26 23 14 13 1 1 15 12 1 14 3 1
-20 -20 -20 -20 -20 -20 -20 -10 -20 -20 -20 -19 -14 0 -11 -20 2 -17 -20 -20 -17 -13 -4 2 -2 8 3 -4 13 18 22 24 24 24 23 14 16 4 10 10 12 9 10
-20 -20 -20 -20 -20 -20 -20 -20 1 -20 -20 -14 -2 -1 -20 -7 -3 1 -6 -20 -20 -20 -20 -18 -17 -5 -1 0 3 5 11 12 11 14 18 20 18 19 14 12 20 19 5
-20 -20 -20 -20 -20 -20 -20 -20 -20 -20 -20 -20 -20 -13 -5 -6 -20 -20 -20 -20 -20 -20 -20 -20 -20 -20 -20 -10 -2 8 10 2 -8 -9 3 14 16 18 19 17 20 21 21
-20 -20 -20 -20 -20 -20 -20 -20 -20 -20 -20 -20 -20 -20 -20 -20 -20 -20 -20 -20 -20 -20 -20 -20 -20 -20 -20 -20 -20 -20 -15 -7 2 -13 -20 -7 -0 7 14 15 15 16 17
-20 -20 -20 -20 -20 -20 -20 -20 -20 -20 -20 -20 -20 -20 -20 -20 -20 -20 -20 -20 -20 -20 -20 -20 -20 -20 -20 -20 -20 -20 -20 -20 -20 -20 -20 -11 -18 -20 -13 -9 3 12 12
-20 -20 -20 -20 -20 -20 -20 -20 -20 -20 -20 -20 -20 -20 -20 -20 -20 -20 -20 -20 -20 -20 -20 -20 -20 -20 -20 -20 -20 -20 -20 -20 -20 -20 -20 -20 -20 -9 -14 -12 -10 -19 -20
-20 -20 -20 -20 -20 -20 -20 -20 -20 -20 -20 -20 -20 -19 -20 -20 -20 -20 -20 -20 -20 -20 -20 -20 -20 -20 -20 -20 -20 -20 -20 -20 -20 -20 -20 -20 -20 -20 -20 -20 -20 -20 -20
-20 -20 -20 -20 -20 -20 -20 -20 -20 -20 -20 -20 -20 -20 -20 -20 -20 -20 -20 -20 -20 -20 -20 -20 -20 -20 -20 -20 -20 -20 -20 -20 -20 -20 -20 -20 -20 -20 -20 -20 -20 -20 -20
-20 -20 -20 -20 -20 -20 -20 -20 -20 -20 -20 -20 -20 -20 -20 -20 -20 -20 -20 -20 -20 -20 -20 -20 -20 -20 -20 -20 -20 -20 -20 -20 -20 -20 -20 -20 -20 -20 -20 -20 -20 -20 -20
-20 -20 -20 -20 -20 -20 -20 -20 -20 -20 -20 -20 -20 -20 -20 -20 -20 -20 -20 -20 -20 -20 -20 -20 -20 -20 -20 -20 -20 -20 -20 -20 -20 -20 -20 -20 -20 -20 -20 -20 -20 -20 -20
-20 -20 -20 -20 -20 -20 -20 -20 -20 -20 -20 -20 -20 -20 -19 -20 -20 -20 -20 -20 -20 -20 -20 -20 -20 -20 -20 -20 -20 -20 -20 -20 -20 -20 -20 -20 -20 -20 -20 -20 -20 -20 -20
-20 -20 -20 -20 -20 -20 -20 -20 -20 -20 -20 -20 -20 -20 -20 -20 -20 -20 -18 -17 -20 -20 -20 -20 -20 -20 -20 -20 -20 -20 -20 -20 -20 -20 -20 -20 -20 -20 -20 -20 -20 -20 -20

GFSGL_prec_radar_117.txt.gz
Reflectivity
5 -20 -20 -9 -20 -20 -16 -20 -3 -6 -20 -20 -20 -20 -20 -20 -20 -9 2 -1 9 -16 9 7 -9 9 -20 9 19 27 29 -20 -4 35 18 -14 -20 -20 -20 -2 13 -20 -10
-20 -20 -20 -18 -20 -20 -20 -20 -20 -20 -20 -20 -20 -20 -20 -20 -20 -20 -11 -20 22 -20 -5 -7 -6 -9 -20 23 -16 -1 -20 -20 30 42 22 3 20 -20 -20 -8 16 -16 -20
-20 -20 -20 -16 -7 -6 -19 -20 -20 -20 -20 -20 -20 -20 -20 -20 -20 -20 -20 16 11 10 -20 4 -20 33 11 -9 1 -6 27 27 23 25 17 22 20 -18 -6 -20 -20 -10 -20
-20 -5 -20 -20 -20 -20 -20 -11 -20 -20 -20 -20 -20 -20 -20 -20 -20 -20 -20 -20 -9 -6 24 32 15 9 -14 -12 1 -5 25 25 27 9 17 -3 9 11 1 5 6 -2 -20
-20 -20 -14 -19 -20 -20 -20 -20 -20 -20 -20 -20 -20 -20 -18 -18 -11 -20 -20 -20 -20 -20 -20 -5 21 13 8 -20 -19 -4 8 22 18 11 3 3 14 30 15 -18 -19 -20 -15
-4 -14 -20 -20 -20 -20 -20 -20 -20 -20 -20 -20 -20 -20 -20 4 4 0 -6 1 3 4 3 0 1 4 7 21 28 1 -20 -19 -17 -18 -19 -20 26 21 14 -5 -20 13 19
-20 -20 -20 -20 -20 -20 -20 -20 -20 -20 -20 -20 -20 -20 -20 -8 6 9 14 10 21 29 23 16 4 19 25 48 32 13 7 20 8 4 -19 15 18 29 18 -19 -10 12 -19
-13 -6 -19 -19 -11 -20 -20 -20 -20 -20 -20 -20 -20 -20 -20 -7 14 20 13 13 20 23 28 22 37 40 45 21 15 -7 -20 -12 23 33 23 8 38 16 11 -20 -18 3 -16
-15 -3 -16 -4 -19 -20 -20 -20 -20 -20 -20 -20 -20 -20 -20 -5 18 29 26 21 23 22 22 24 24 32 38 40 26 3 7 17 39 31 30 31 30 7 24 -6 -13 -17 19
-4 -13 -12 -20 -20 -20 -20 -20 -20 -20 -20 -20 -18 -18 -20 -20 -12 5 14 19 21 20 20 25 24 32 31 28 21 5 21 28 41 28 20 24 19 10 19 17 -18 -20 -8
-19 -20 -20 -20 -20 -20 -20 -20 -20 -20 -20 -17 -15 -6 -4 -0 3 8 11 15 14 11 13 20 24 28 29 30 35 26 29 35 35 33 35 29 2 -3 -15 6 -7 -7 11
-20 -17 -20 -20 -20 -20 -20 -20 -20 -20 -20 -20 -20 -20 -9 -3 -1 5 7 10 12 14 12 9 14 14 22 27 27 32 24 31 33 36 35 29 17 -2 -15 -14 -20 -5 4
-20 -20 -20 -20 -20 -20 -20 -20 -20 -20 -20 -20 -20 -20 -19 -12 -1 -3 0 1 1 1 1 9 15 17 7 19 24 26 28 25 28 28 33 35 26 14 7 11 16 6 12
-20 -20 -20 -20 -20 -20 -13 -20 -20 -20 -20 2 -20 -20 -20 -20 -11 -20 -20 -20 -8 -16 -2 1 1 7 14 16 17 18 15 22 25 26 27 26 24 22 15 10 12 11 6
-20 -20 -20 -20 -20 -20 -7 -20 -20 -20 -20 -20 -3 -20 -13 -20 -18 -0 -11 -20 -20 -20 -20 -10 -0 -5 -1 8 11 16 12 6 12 18 19 26 27 21 14 13 8 7 3
-20 -20 -20 -20 -20 -20 -20 -20 -20 -20 -20 -20 -20 -20 -20 -16 -20 -18 -17 -20 -20 -20 -20 -20 -16 -6 -10 -0 5 5 13 11 15 12 8 11 15 20 24 22 19 17 17
-20 -20 -20 -20 -20 -20 -20 -20 -20 -20 -20 -20 -20 -20 -20 -20 -20 -20 -20 -20 -20 -20 -20 -20 -20 -20 -20 -20 -20 -20 -20 -20 -20 -2 13 12 4 5 8 14 20 25 22
-20 -20 -20 -20 -20 -20 -20 -20 -20 -20 -20 -20 -20 -20 -20 -20 -20 -20 -20 -20 -20 -20 -20 -20 -20 -20 -20 -20 -20 -20 -20 -20 -20 -20 -20 -11 5 8 3 -4 -1 13 18
-20 -20 -20 -20 -20 -20 -20 -20 -20 -20 -20 -20 -20 -20 -20 -20 -20 -20 -20 -20 -20 -20 -20 -20 -20 -20 -20 -20 -20 -20 -20 -20 -20 -20 -20 -20 -20 -13 -5 -4 -15 -4 4
-20 -20 -20 -20 -20 -20 -20 -20 -20 -20 -20 -20 -20 -20 -20 -20 -20 -20 -20 -20 -20 -20 -20 -20 -20 -20 -20 -20 -20 -20 -20 -20 -20 -20 -20 -20 -20 -20 -19 -14 -12 -7 1
-20 -20 -20 -20 -20 -20 -20 -20 -20 -20 -20 -20 -20 -20 -20 -20 -20 -20 -20 -20 -20 -20 -20 -20 -20 -20 -20 -20 -20 -20 -20 -20 -20 -20 -20 -20 -20 -20 -20 -20 -20 -19 -18
-20 -20 -20 -20 -20 -20 -20 -20 -20 -20 -20 -20 -20 -20 -20 -20 -20 -20 -20 -20 -20 -20 -20 -20 -20 -20 -20 -20 -20 -20 -20 -20 -20 -20 -20 -20 -20 -20 -20 -20 -20 -20 -20
-20 -20 -20 -20 -20 -20 -20 -20 -20 -20 -20 -20 -20 -20 -20 -20 -20 -20 -20 -20 -20 -20 -20 -20 -20 -20 -20 -20 -20 -20 -20 -20 -20 -20 -20 -20 -20 -20 -20 -20 -20 -20 -20
-20 -20 -20 -20 -20 -20 -20 -20 -20 -20 -20 -20 -20 -20 -20 -20 -20 -20 -20 -20 -20 -20 -20 -20 -20 -20 -20 -20 -20 -20 -20 -20 -20 -20 -20 -20 -20 -20 -20 -20 -20 -20 -20
-20 -20 -20 -20 -20 -20 -20 -20 -20 -20 -20 -20 -20 -20 -20 -20 -20 -20 -20 -20 -20 -20 -20 -20 -20 -20 -20 -20 -20 -20 -20 -20 -20 -20 -20 -20 -20 -20 -20 -20 -20 -20 -20
-20 -20 -20 -20 -20 -20 -20 -20 -20 -20 -20 -20 -20 -20 -20 -20 -20 -20 -20 -20 -20 -20 -20 -20 -20 -20 -20 -20 -20 -20 -20 -20 -20 -20 -20 -20 -20 -20 -20 -20 -20 -20 -20

GFSGL_prec_radar_120.txt.gz
Reflectivity
3 -3 -3 -9 -4 -10 -3 -2 -20 -20 -20 -20 -20 -20 -20 -20 -15 -20 -17 -20 -20 -12 5 5 15 -3 17 -1 2 -6 11 15 3 5 -20 -20 -12 8 3 11 -3 -20 -16
-2 -14 -16 -6 -5 -20 -14 -6 -20 -20 -20 -20 -20 -20 -20 -20 -20 -20 -20 -20 -20 5 -0 19 13 16 5 -2 13 -14 -19 -14 7 -20 17 -6 20 23 19 11 -20 -20 -20
-5 -9 -20 -20 -20 -17 -13 -20 -20 -20 -20 -20 -20 -20 -20 -20 -20 -20 -20 -20 -20 2 14 16 17 23 6 18 -7 7 14 16 18 16 17 28 38 24 30 -2 -20 -20 -20
0 -17 -20 -20 -20 -17 -13 -20 -6 -20 -20 -20 -20 -20 -17 -20 -20 -20 -20 -20 -20 1 13 16 18 17 18 20 13 21 21 9 -2 -14 24 14 10 17 30 17 2 -20 -19
-20 -20 -20 -20 -20 -20 -20 -20 -20 -20 -20 -20 -20 -20 -20 -19 -17 -20 -20 -20 -20 -3 12 5 11 17 24 18 30 9 10 21 11 1 13 -8 13 36 29 27 -14 -4 -20
-20 -20 -20 -20 -20 -18 -13 -20 -20 -20 -20 -20 -20 -20 -20 -16 5 -20 -20 -20 -20 -20 -20 -15 -13 10 -2 4 14 28 21 22 4 20 17 -9 -20 1 21 23 13 -9 4
-20 -18 -19 -20 -17 -8 -20 -20 -20 -20 -20 -20 -20 -20 -20 -20 -16 -20 -20 -20 -20 -20 4 -6 0 6 21 -9 8 18 22 19 21 28 26 -6 12 10 25 6 15 -19 -15
-17 -15 -7 -8 -6 -20 -20 -20 -20 -20 -20 -20 -20 -20 -20 -17 -17 -20 -20 -20 -20 -20 -14 -3 5 9 23 24 19 25 37 25 31 44 11 -15 -19 10 -20 -20 1 -13 18
-11 -16 0 7 -19 -20 -20 -20 -20 -20 -20 -20 -20 -20 -20 -20 -20 -20 -20 -20 -20 -20 -17 3 -0 -1 26 32 30 29 32 31 38 34 32 30 17 10 22 -13 7 29 33
-20 -20 -13 -20 -20 -20 -20 -20 -20 -20 -20 -20 -20 -20 -4 -20 -20 -20 -20 -20 -20 -19 -1 -7 -3 3 16 19 29 33 36 28 13 21 25 29 31 33 28 31 12 20 33
-20 -20 -20 -20 -20 -20 -20 -20 -20 -20 -20 -20 -20 -20 -20 -2 -20 -20 -20 -20 -8 -2 -2 9 10 14 14 19 23 26 30 31 25 31 28 37 36 32 29 35 37 24 21
-20 -20 -17 -20 -20 -20 -20 -20 -20 -20 -20 -20 -20 -20 -20 -20 -9 -20 -20 -20 -9 -4 5 7 11 5 12 17 20 20 23 26 26 27 18 27 32 32 35 24 30 34 24
-20 -20 -20 -20 -3 -20 -20 -20 -20 -20 -20 -20 -20 -20 -20 -20 -20 -20 -17 -12 -20 -9 -2 2 6 6 4 5 15 19 19 21 24 22 23 24 25 34 36 35 39 28 15
-20 -20 -20 -20 -20 -20 -20 -20 -20 -20 -20 -20 -20 -20 -20 -20 -20 -20 -20 -20 -16 -20 -20 -15 -6 -6 -5 -5 -7 10 11 19 22 20 14 22 25 26 28 29 23 32 16
-20 -20 -20 -20 -20 -20 -20 -20 -20 -20 -20 -20 -20 -20 -20 -20 -20 -20 -20 -20 -20 -20 -20 -20 -20 -20 -16 -19 -12 -4 9 12 13 19 20 14 16 21 27 31 29 23 17
-20 -20 -20 -20 -20 -20 -20 -20 -20 -20 -20 -20 -20 -20 -20 -20 -20 -20 -20 -20 -20 -20 -20 -20 -20 -20 -20 -20 -20 -20 -13 2 6 9 12 14 12 15 17 21 25 27 28
-20 -20 -20 -20 -20 -20 -20 -20 -20 -20 -20 -20 -4 -20 -20 -20 -20 -20 -20 -20 -20 -20 -20 -20 -20 -20 -20 -20 -20 -20 -20 -20 -12 0 6 6 6 7 15 15 18 21 24
-20 -20 -20 -20 -20 -20 -20 -20 -20 -20 -20 -20 -20 -8 -8 -20 -20 -20 -20 -20 -20 -20 -20 -20 -20 -20 -20 -20 -20 -20 -20 -20 -20 -20 -9 -8 2 -14 -6 4 16 15 16
-20 -20 -20 -20 -20 -20 -20 -20 -20 -20 -20 -20 -20 -20 -20 -20 -20 -20 -20 -20 -20 -20 -20 -20 -20 -20 -20 -20 -20 -20 -20 -20 -20 -20 -20 -20 -17 -15 -19 -20 -13 0 11
-20 -20 -20 -20 -20 -20 -20 -20 -20 -20 -20 -20 -20 -20 -20 -20 -20 -20 -20 -20 -20 -20 -20 -20 -20 -20 -20 -20 -20 -20 -20 -20 -20 -20 -20 -20 -20 -20 -20 -17 -20 -20 -15
-20 -20 -20 -20 -20 -20 -20 -20 -20 -20 -20 -20 -20 -20 -20 -20 -20 -20 -20 -20 -20 -20 -20 -20 -20 -20 -20 -20 -20 -20 -20 -20 -20 -20 -20 -20 -20 -20 -20 -20 -20 -20 -20
-20 -20 -20 -20 -20 -20 -20 -20 -20 -20 -20 -20 -20 -20 -20 -20 -20 -20 -20 -20 -20 -20 -20 -20 -20 -20 -20 -20 -20 -20 -20 -20 -20 -20 -20 -20 -20 -20 -20 -20 -20 -20 -20
-20 -20 -20 -20 -20 -20 -20 -20 -20 -20 -20 -20 -20 -20 -20 -20 -20 -20 -20 -20 -20 -20 -20 -20 -20 -20 -20 -20 -20 -20 -20 -20 -20 -20 -20 -20 -20 -20 -20 -20 -20 -20 -20
-20 -20 -20 -20 -20 -20 -20 -20 -20 -20 -20 -20 -20 -20 -20 -20 -20 -20 -20 -20 -20 -20 -20 -20 -20 -20 -20 -20 -20 -20 -20 -20 -20 -20 -20 -20 -20 -20 -20 -20 -20 -20 -20
-20 -20 -20 -20 -20 -20 -20 -20 -20 -20 -20 -20 -20 -20 -20 -20 -20 -20 -20 -20 -20 -20 -20 -20 -20 -20 -20 -20 -20 -20 -20 -20 -20 -20 -20 -20 -20 -20 -20 -20 -20 -20 -20
-20 -20 -20 -20 -20 -20 -20 -20 -20 -20 -20 -20 -20 -20 -20 -20 -20 -20 -20 -20 -20 -20 -20 -20 -20 -20 -20 -20 -20 -20 -20 -20 -20 -20 -20 -20 -20 -20 -20 -20 -20 -20 -20

GFSGL_prec_radar_123.txt.gz
Reflectivity
-15 -8 -17 3 13 1 -4 -10 -12 -20 -20 -20 -7 -2 -2 -1 -20 -20 -10 -7 -9 -20 -20 2 3 11 9 11 17 18 17 15 10 -4 21 -9 -20 -20 -18 -20 -5 -20 -19
0 -1 -2 -4 -1 -20 -4 -19 -20 -15 -20 -20 -7 -8 -16 3 -5 -2 0 0 -11 1 -2 5 9 -3 -3 14 20 16 9 -1 19 18 5 22 -20 -20 -20 -2 2 -20 -20
-9 -7 -7 -18 -20 -8 -20 -12 -20 -20 -20 -20 -20 -8 6 -15 2 -0 -9 -20 -20 -5 12 11 11 11 4 4 -20 8 23 -1 2 5 5 24 -8 0 1 -15 21 5 -14
-20 -20 -17 -20 -20 -20 -20 -20 -20 -20 -20 -20 -20 -20 3 -18 -20 2 -2 -20 -20 -20 -20 -12 15 -1 -0 -3 9 -3 12 16 14 16 18 13 11 13 26 26 16 -20 11
-20 -20 -20 -20 -20 -20 -20 -20 -20 -20 -20 -20 -20 -20 -7 1 7 -7 -5 -2 -20 -20 -20 -20 -17 25 18 12 12 2 9 10 24 19 10 20 34 7 -12 1 24 36 30
-20 -20 -20 -17 -20 -20 -20 -20 -20 -20 -20 -20 -20 -20 -20 -20 -12 -10 -20 -3 -13 -20 -20 -20 -20 -12 -1 17 28 32 9 33 21 26 -3 10 28 -4 -10 -3 -6 29 30
-20 -20 -20 -20 -10 -9 -20 -20 -20 -20 -8 -4 -4 -15 -2 -6 -20 -20 -20 -19 -20 -20 -20 -20 -20 -18 -11 -14 -16 20 25 13 12 9 31 29 18 13 5 -10 1 -4 25
-20 -20 -20 -16 -12 -20 -20 -20 -20 -20 -7 -1 -0 -5 -0 2 -20 -20 -20 -20 -20 -20 -20 -20 -20 -20 -20 -18 -3 8 -1 -5 5 15 22 39 16 26 27 8 -5 16 16
-20 -20 -20 -7 -5 -20 -20 -20 -20 -20 -20 -5 -3 -1 2 -1 -20 -20 -20 -20 -14 -20 -2 -0 -15 -15 -20 -14 -12 2 16 12 16 32 35 38 30 33 21 37 20 3 25
-20 -20 -20 -20 -20 -20 -20 -20 -9 -20 -20 -20 -20 -5 -1 0 -20 -20 -20 -18 -20 -19 -20 -20 -10 -20 -20 -12 6 14 14 14 20 21 28 34 35 38 39 39 27 17 12
-20 -20 -20 -20 -20 -20 -20 -20 -14 -20 -20 -20 -20 -20 -10 -8 -20 -20 -20 -19 -15 -20 -20 2 4 -20 -20 -20 -14 9 19 19 19 21 24 24 27 27 20 29 32 25 25
-20 -20 -20 -20 -20 -20 -20 -20 -20 -20 -20 -20 -20 -20 -7 -5 -20 -20 -20 -20 -20 -12 -13 -12 0 -20 -20 -16 -6 3 4 12 17 19 19 23 21 24 23 21 16 25 33
-20 -20 -19 -20 -20 -20 -20 -20 -20 -20 -20 -20 -20 -20 -8 -2 -20 -20 -20 -20 -20 -20 -20 -20 -20 -20 -20 -20 -20 -9 6 10 1 13 16 17 19 19 25 23 23 24 29
-20 -20 -20 -20 -20 -20 -20 -20 -20 -20 -8 -5 -14 0 -3 -9 -4 -11 -7 -20 -20 -20 -20 -20 -20 -20 -20 -20 -20 -20 -20 3 2 7 1 10 17 14 13 19 23 27 27
-20 -20 -20 -20 -20 -20 -10 -6 -17 -3 -6 -1 1 -4 -2 3 -1 -20 -19 -20 -20 -20 -20 -20 -20 -20 -20 -20 -20 -20 -20 -20 -17 -2 5 5 1 13 15 16 19 25 26
-20 -20 -20 -20 -20 -20 -20 -20 -19 -11 -4 -5 -16 -10 -3 -14 -20 -20 -20 -20 -20 -20 -20 -20 -20 -20 -20 -20 -20 -20 -20 -20 -20 -20 -18 -1 3 4 1 7 18 21 19
-20 -20 -20 -20 -20 -20 -20 -20 -20 -20 -20 -3 -20 -20 -20 -20 -20 -20 -20 -20 -20 -20 -20 -20 -20 -20 -20 -20 -20 -20 -20 -20 -20 -20 -20 -20 -12 -8 6 1 -2 12 19
-20 -20 -20 -20 -20 -20 -20 -20 -20 -20 -20 -20 -20 -20 -20 -20 -20 -20 -20 -20 -20 -20 -20 -20 -20 -20 -20 -20 -20 -20 -20 -20 -20 -20 -20 -20 -20 -20 -10 -1 6 1 -1
-20 -20 -20 -20 -20 -20 -20 -20 -20 -20 -20 -20 -20 -20 -20 -20 -20 -20 -20 -20 -20 -20 -20 -20 -20 -20 -20 -20 -20 -20 -20 -20 -20 -20 -20 -20 -20 -10 -20 -18 -1 -2 -3
-20 -20 -20 -20 -20 -20 -20 -20 -20 -20 -20 -20 -7 -5 -20 -20 -20 -20 -20 -8 -20 -20 -20 -20 -20 -20 -20 -20 -20 -20 -20 -20 -20 -20 -13 -7 1 2 3 -20 -20 -4 -4
-20 -20 -20 -20 -20 -20 -20 -20 -20 -20 -20 -20 -20 -20 -20 -20 -3 -2 -1 -0 -2 -1 -0 -6 -2 -1 -2 -4 -20 -20 -20 -20 -20 -20 -20 -5 -0 4 2 3 -20 -20 -18
-20 -20 -20 -20 -20 -20 -20 -20 -20 -20 -20 -20 -20 -20 -20 -20 -20 -20 -20 -14 1 -1 -19 -6 -0 0 3 2 -20 -6 -20 -20 -20 -20 -20 -20 -4 3 3 2 1 -20 -20
-20 -20 -20 -20 -20 -20 -20 -20 -20 -20 -20 -20 -20 -20 -20 -11 -13 -20 -3 -1 -2 -1 -2 -20 -7 -20 -12 -1 2 3 2 -20 -20 -20 -20 -20 -20 -2 3 4 3 -20 -20
-20 -20 -20 -20 -20 -20 -20 -20 -20 -20 -20 -20 -20 -20 -20 -20 -20 -20 -20 -20 -20 -20 -20 -20 -10 -18 -20 -19 1 -0 2 -20 -20 -20 -20 -20 -20 -20 -0 0 1 -17 -20
-20 -20 -20 -20 -20 -20 -20 -20 -20 -20 -20 -20 -20 -20 -20 -20 -20 -20 -20 -20 -20 -20 -20 -20 -20 -20 -20 -20 -20 -20 -20 -20 -20 -20 -20 -20 -20 -20 -17 1 2 0 -20
-20 -20 -20 -20 -20 -20 -20 -20 -20 -20 -20 -20 -20 -20 -20 -20 -20 -20 -20 -20 -20 -20 -20 -20 -20 -20 -20 -20 -20 -20 -20 -20 -20 -20 -20 -20 -20 -20 -20 -2 -7 1 -2

GFSGL_prec_radar_126.txt.gz
Reflectivity
-2 -10 -6 -0 -6 -5 -2 -1 -5 -0 -2 -2 -2 0 -3 -1 -4 -2 -3 -6 -1 -1 2 -1 -4 -19 -15 -9 9 18 19 7 16 9 -12 -20 1 0 -20 6 0 -1 -20
-5 -3 -3 -10 -20 -19 -3 -8 -16 -10 -10 -20 -7 -4 -7 -3 -3 -3 -2 -3 -3 -4 -1 2 -5 -18 4 1 2 14 -19 8 6 -6 -20 -7 -18 19 22 12 17 -5 -8
-20 -20 -20 -20 -20 -18 -20 -9 -20 -20 -20 -20 -20 -3 -17 -6 -3 -4 -15 -16 -8 -1 2 2 9 8 -12 -10 3 5 -20 12 12 13 9 -17 -20 -18 3 25 25 13 -1
-20 -20 -20 -20 -20 -20 -20 -20 -20 -20 -20 -20 -20 -18 -20 -20 -20 -8 -7 -7 -6 -1 1 -2 3 0 2 -16 -8 3 1 -20 -19 18 17 20 8 -20 19 23 14 -20 -14
-20 -20 -20 -20 -20 -20 -20 -20 -20 -20 -20 -20 -20 -20 -20 -20 -20 -3 -6 -4 -13 -18 -4 -14 1 4 0 -6 2 1 -5 -5 -13 -20 -12 17 21 11 10 -1 -1 2 -16
-20 -20 -20 -20 -20 -20 -20 -20 -20 -20 -20 -20 -20 -20 -20 -20 -20 -20 -19 -7 -5 -2 -3 -20 -20 -20 -20 -13 -10 1 -11 -5 -8 21 18 20 -10 1 29 20 6 29 -1
-20 -20 -20 -20 -20 -20 -20 -20 -20 -20 -20 -20 -16 -20 -20 -20 -20 -20 -20 -8 -7 1 1 -17 -18 -16 -12 -14 -8 -1 4 -6 -12 3 4 0 2 26 32 27 25 36 7
-20 -20 -20 -20 -20 -20 -20 -20 -20 -6 -11 -3 -20 -4 -19 -11 -20 -20 -20 -14 1 -0 3 5 4 5 -10 -5 -20 -20 -8 -15 4 8 -0 3 3 -3 3 22 29 31 22
-20 -20 -20 -20 -19 -19 -20 -20 -17 -20 -20 -20 -20 -20 -20 -20 -20 -20 -20 -20 -10 -20 -1 0 -1 -1 -5 -20 -20 -20 -20 -18 -13 -10 -10 -19 -15 -3 3 -3 -6 25 32
-20 -20 -20 -20 -20 -20 -14 -18 -20 -3 -2 -20 -20 -20 -20 -20 -20 -20 -20 -20 -20 -20 -20 -20 -19 -20 -20 -20 -9 -14 -20 -11 -9 -18 -18 -18 -15 6 12 15 21 34 29
-20 -20 -20 -20 -20 -11 -13 -4 -20 -20 -20 -20 -20 -20 -20 -20 -20 -20 -20 -20 -20 -20 -20 -20 -20 -20 -20 -20 -20 -1 0 -4 -7 -1 -0 5 8 5 18 23 26 35 38
-20 -20 -20 -20 -20 -20 -20 -4 -20 -20 -20 -20 -20 -20 -20 -20 -20 -20 -20 -20 -20 -20 -20 -20 -17 -20 -20 -20 -20 -20 -20 -16 1 1 -0 -20 8 16 19 22 26 27 35
-20 -20 -20 -20 -20 -20 -20 -20 -20 -20 -20 -20 -20 -20 -20 -20 -20 -20 -20 -20 -20 -20 -20 -20 -20 -20 -20 -20 -20 -20 -20 0 -1 1 4 -18 -20 9 19 22 21 24 26
-20 -20 -20 -20 -20 -20 -20 -20 -20 -20 -20 -20 -14 -1 -19 -20 -20 -20 -20 -20 -20 -20 -20 -20 -20 -20 -20 -20 -20 -20 -20 -4 3 2 6 5 -1 -2 12 18 19 23 21
-20 -20 -20 -20 -20 -20 -20 -20 -20 -11 -20 -12 -9 1 -2 -20 -20 -8 -20 -20 -20 -20 -20 -20 -20 -20 -20 -20 -20 -20 -20 -20 -14 -0 0 5 0 -0 0 11 14 13 20
-20 -20 -20 -20 -20 -20 -20 -20 -20 -20 -20 -20 -20 -20 1 -20 -20 -20 -20 -20 -20 -20 -20 -20 -20 -20 -20 -20 -20 -20 -20 -20 -20 -20 -20 -1 3 4 3 1 5 10 11
-20 -20 -20 -20 -20 -20 -20 -20 -20 -20 -20 -20 -20 -20 -4 -3 -4 -20 -20 -20 -20 -20 -20 -20 -20 -20 -20 -20 -20 -20 -20 -20 -20 -20 -20 -10 3 -5 4 4 3 1 -3
-20 -20 -20 -20 -20 -20 -16 -3 -1 0 2 4 -16 -7 -4 -3 -3 -4 -20 -20 -20 -20 -20 -20 -20 -20 -20 -20 -20 -20 -20 -20 -20 -20 -19 -7 5 6 6 5 6 3 0
-20 -20 -20 -20 -20 -11 0 -0 -1 -3 -2 -2 -6 -20 -13 -3 -3 -1 -0 -9 -20 -20 -20 -20 -20 -20 -20 -20 -4 0 -20 -20 -20 -1 -20 -13 7 -20 -1 -3 6 -0 -10
-20 -20 -20 -20 -8 -9 -20 -20 -20 -20 -20 -20 -17 -15 -20 -20 -16 -4 -18 -2 2 -4 -20 -20 -20 -20 -2 -20 -20 -7 -20 -20 -13 -19 -13 1 2 -14 -15 -15 7 7 -2
-20 -20 -20 -20 -20 -20 -20 -20 -20 -20 -20 -20 -20 -11 -20 -20 -20 -13 -20 1 2 0 -18 -20 -20 -14 -20 -4 -9 5 -20 -4 -20 -20 -20 -13 4 3 -20 -20 -20 -20 -0
-20 -20 -20 -20 -20 -20 -20 -20 -20 -20 -20 -20 -20 -20 -20 -20 -20 -20 -9 2 3 -3 1 3 4 4 -13 5 5 7 -12 -15 -15 3 -14 -11 -20 -5 -20 -16 -15 -13 -20
-20 -20 -20 -20 -20 -20 -20 -20 -20 -20 -20 -20 -20 -20 -20 -11 -4 -11 -3 -1 -4 -3 -9 -10 -1 -3 -10 -1 3 -9 6 6 6 6 7 -6 -20 -20 -18 -20 -20 -20 -20
-20 -20 -20 -20 -20 -20 -20 -20 -20 -20 -20 -20 -17 -20 -20 -17 -3 -11 -4 -3 -20 -18 -20 -20 -18 -20 -20 -18 -6 -5 -2 1 5 4 3 6 4 -17 -20 -10 -6 2 -16
-20 -20 -20 -20 -20 -20 -20 -20 -20 -20 -20 -20 -20 -11 -20 -20 -20 -5 -5 -20 -20 -20 -20 -20 -20 -20 -20 -20 -20 -9 -8 -16 -1 2 5 -6 -2 0 -18 0 -2 0 1
-20 -20 -20 -20 -20 -20 -20 -20 -20 -20 -20 -20 -20 -5 -3 -5 -20 -5 -19 -20 -20 -20 -20 -20 -20 -20 -20 -20 -20 -14 -20 -17 -3 -5 5 1 6 3 0 2 1 -6 -14